<?xml version="1.0" encoding="UTF-8" standalone="no" ?>
<gpx xmlns="http://www.topografix.com/GPX/1/1" xmlns:xsi="http://www.w3.org/2001/XMLSchema-instance" xsi:schemaLocation="http://www.topografix.com/GPX/1/1 http://www.topografix.com/GPX/1/1/gpx.xsd" version="1.1" creator="VisuGPX - https://www.visugpx.com">
  <metadata>
    <name>La Vachette Tour des Forts </name>
    <desc><![CDATA[La Vachette Tour des Forts de Briançon Source des la Durance fait 20 08 20]]></desc>
  </metadata>
  <trk>
    <name><![CDATA[La Vachette Tour des Forts de Briançon 20 08 20]]></name>
    <trkseg>
      <trkpt lat="44.91301" lon="6.672">
        <ele>1368.6</ele>
        <time>2020-08-20T07:05:40Z</time>
      </trkpt>
      <trkpt lat="44.91301" lon="6.67198">
        <ele>1368.6</ele>
        <time>2020-08-20T07:05:41Z</time>
      </trkpt>
      <trkpt lat="44.91307" lon="6.67209">
        <ele>1370.1</ele>
        <time>2020-08-20T07:10:49Z</time>
      </trkpt>
      <trkpt lat="44.9131" lon="6.67196">
        <ele>1370.2</ele>
        <time>2020-08-20T07:12:15Z</time>
      </trkpt>
      <trkpt lat="44.91317" lon="6.67204">
        <ele>1370.8</ele>
        <time>2020-08-20T07:13:49Z</time>
      </trkpt>
      <trkpt lat="44.91327" lon="6.67206">
        <ele>1370.8</ele>
        <time>2020-08-20T07:14:37Z</time>
      </trkpt>
      <trkpt lat="44.91336" lon="6.6721">
        <ele>1370.8</ele>
        <time>2020-08-20T07:14:46Z</time>
      </trkpt>
      <trkpt lat="44.91342" lon="6.6722">
        <ele>1370.8</ele>
        <time>2020-08-20T07:14:53Z</time>
      </trkpt>
      <trkpt lat="44.91348" lon="6.6723">
        <ele>1370.8</ele>
        <time>2020-08-20T07:15:17Z</time>
      </trkpt>
      <trkpt lat="44.91357" lon="6.67229">
        <ele>1370.8</ele>
        <time>2020-08-20T07:15:51Z</time>
      </trkpt>
      <trkpt lat="44.91366" lon="6.67234">
        <ele>1370.8</ele>
        <time>2020-08-20T07:15:58Z</time>
      </trkpt>
      <trkpt lat="44.91374" lon="6.67241">
        <ele>1370.8</ele>
        <time>2020-08-20T07:16:05Z</time>
      </trkpt>
      <trkpt lat="44.91381" lon="6.6725">
        <ele>1370.8</ele>
        <time>2020-08-20T07:16:12Z</time>
      </trkpt>
      <trkpt lat="44.9139" lon="6.67256">
        <ele>1370.8</ele>
        <time>2020-08-20T07:16:23Z</time>
      </trkpt>
      <trkpt lat="44.914" lon="6.6726">
        <ele>1370.8</ele>
        <time>2020-08-20T07:16:31Z</time>
      </trkpt>
      <trkpt lat="44.91407" lon="6.67268">
        <ele>1370.8</ele>
        <time>2020-08-20T07:16:39Z</time>
      </trkpt>
      <trkpt lat="44.91416" lon="6.67274">
        <ele>1370.8</ele>
        <time>2020-08-20T07:16:47Z</time>
      </trkpt>
      <trkpt lat="44.91424" lon="6.67278">
        <ele>1370.8</ele>
        <time>2020-08-20T07:16:55Z</time>
      </trkpt>
      <trkpt lat="44.91433" lon="6.67284">
        <ele>1370.8</ele>
        <time>2020-08-20T07:17:03Z</time>
      </trkpt>
      <trkpt lat="44.91442" lon="6.6729">
        <ele>1370.7</ele>
        <time>2020-08-20T07:17:10Z</time>
      </trkpt>
      <trkpt lat="44.9145" lon="6.67297">
        <ele>1370.6</ele>
        <time>2020-08-20T07:17:17Z</time>
      </trkpt>
      <trkpt lat="44.91458" lon="6.67304">
        <ele>1370.3</ele>
        <time>2020-08-20T07:17:24Z</time>
      </trkpt>
      <trkpt lat="44.91468" lon="6.6731">
        <ele>1370</ele>
        <time>2020-08-20T07:17:32Z</time>
      </trkpt>
      <trkpt lat="44.91476" lon="6.67315">
        <ele>1369.8</ele>
        <time>2020-08-20T07:17:40Z</time>
      </trkpt>
      <trkpt lat="44.91485" lon="6.67322">
        <ele>1369.7</ele>
        <time>2020-08-20T07:17:48Z</time>
      </trkpt>
      <trkpt lat="44.91494" lon="6.67327">
        <ele>1369.4</ele>
        <time>2020-08-20T07:17:56Z</time>
      </trkpt>
      <trkpt lat="44.91504" lon="6.6733">
        <ele>1369.1</ele>
        <time>2020-08-20T07:18:04Z</time>
      </trkpt>
      <trkpt lat="44.91513" lon="6.67333">
        <ele>1369</ele>
        <time>2020-08-20T07:18:11Z</time>
      </trkpt>
      <trkpt lat="44.91523" lon="6.67333">
        <ele>1368.9</ele>
        <time>2020-08-20T07:18:19Z</time>
      </trkpt>
      <trkpt lat="44.91533" lon="6.67333">
        <ele>1368.8</ele>
        <time>2020-08-20T07:18:27Z</time>
      </trkpt>
      <trkpt lat="44.91542" lon="6.67332">
        <ele>1368.5</ele>
        <time>2020-08-20T07:18:34Z</time>
      </trkpt>
      <trkpt lat="44.91552" lon="6.67335">
        <ele>1368.4</ele>
        <time>2020-08-20T07:18:42Z</time>
      </trkpt>
      <trkpt lat="44.91561" lon="6.67337">
        <ele>1368.3</ele>
        <time>2020-08-20T07:18:49Z</time>
      </trkpt>
      <trkpt lat="44.91571" lon="6.67339">
        <ele>1368.2</ele>
        <time>2020-08-20T07:18:56Z</time>
      </trkpt>
      <trkpt lat="44.9158" lon="6.67342">
        <ele>1368.1</ele>
        <time>2020-08-20T07:19:05Z</time>
      </trkpt>
      <trkpt lat="44.91589" lon="6.67341">
        <ele>1367.4</ele>
        <time>2020-08-20T07:21:27Z</time>
      </trkpt>
      <trkpt lat="44.91599" lon="6.67341">
        <ele>1367.4</ele>
        <time>2020-08-20T07:21:35Z</time>
      </trkpt>
      <trkpt lat="44.91609" lon="6.67343">
        <ele>1367.4</ele>
        <time>2020-08-20T07:21:43Z</time>
      </trkpt>
      <trkpt lat="44.91618" lon="6.67343">
        <ele>1367.4</ele>
        <time>2020-08-20T07:21:50Z</time>
      </trkpt>
      <trkpt lat="44.91628" lon="6.67346">
        <ele>1367.2</ele>
        <time>2020-08-20T07:21:57Z</time>
      </trkpt>
      <trkpt lat="44.91634" lon="6.67355">
        <ele>1366.8</ele>
        <time>2020-08-20T07:22:08Z</time>
      </trkpt>
      <trkpt lat="44.91642" lon="6.67364">
        <ele>1366.1</ele>
        <time>2020-08-20T07:22:15Z</time>
      </trkpt>
      <trkpt lat="44.9165" lon="6.67372">
        <ele>1365.5</ele>
        <time>2020-08-20T07:22:22Z</time>
      </trkpt>
      <trkpt lat="44.91658" lon="6.67381">
        <ele>1364.8</ele>
        <time>2020-08-20T07:22:29Z</time>
      </trkpt>
      <trkpt lat="44.91665" lon="6.67389">
        <ele>1364.2</ele>
        <time>2020-08-20T07:22:35Z</time>
      </trkpt>
      <trkpt lat="44.91672" lon="6.67398">
        <ele>1363.3</ele>
        <time>2020-08-20T07:22:42Z</time>
      </trkpt>
      <trkpt lat="44.9168" lon="6.67407">
        <ele>1362.7</ele>
        <time>2020-08-20T07:22:49Z</time>
      </trkpt>
      <trkpt lat="44.91687" lon="6.67416">
        <ele>1362.2</ele>
        <time>2020-08-20T07:22:56Z</time>
      </trkpt>
      <trkpt lat="44.91692" lon="6.67427">
        <ele>1361.8</ele>
        <time>2020-08-20T07:23:02Z</time>
      </trkpt>
      <trkpt lat="44.91698" lon="6.67438">
        <ele>1361.3</ele>
        <time>2020-08-20T07:23:09Z</time>
      </trkpt>
      <trkpt lat="44.91702" lon="6.67451">
        <ele>1361</ele>
        <time>2020-08-20T07:23:16Z</time>
      </trkpt>
      <trkpt lat="44.91706" lon="6.67463">
        <ele>1360.8</ele>
        <time>2020-08-20T07:23:23Z</time>
      </trkpt>
      <trkpt lat="44.91711" lon="6.67475">
        <ele>1360.6</ele>
        <time>2020-08-20T07:23:30Z</time>
      </trkpt>
      <trkpt lat="44.91715" lon="6.67487">
        <ele>1360.5</ele>
        <time>2020-08-20T07:23:38Z</time>
      </trkpt>
      <trkpt lat="44.91718" lon="6.675">
        <ele>1360.5</ele>
        <time>2020-08-20T07:23:46Z</time>
      </trkpt>
      <trkpt lat="44.91723" lon="6.67512">
        <ele>1360.6</ele>
        <time>2020-08-20T07:23:54Z</time>
      </trkpt>
      <trkpt lat="44.91727" lon="6.67524">
        <ele>1361.1</ele>
        <time>2020-08-20T07:24:02Z</time>
      </trkpt>
      <trkpt lat="44.91729" lon="6.67538">
        <ele>1361.6</ele>
        <time>2020-08-20T07:24:11Z</time>
      </trkpt>
      <trkpt lat="44.91731" lon="6.67552">
        <ele>1362.3</ele>
        <time>2020-08-20T07:24:20Z</time>
      </trkpt>
      <trkpt lat="44.91731" lon="6.67566">
        <ele>1362.9</ele>
        <time>2020-08-20T07:24:29Z</time>
      </trkpt>
      <trkpt lat="44.91732" lon="6.6758">
        <ele>1364</ele>
        <time>2020-08-20T07:24:39Z</time>
      </trkpt>
      <trkpt lat="44.91731" lon="6.67593">
        <ele>1364.9</ele>
        <time>2020-08-20T07:24:46Z</time>
      </trkpt>
      <trkpt lat="44.91732" lon="6.67607">
        <ele>1365.8</ele>
        <time>2020-08-20T07:24:54Z</time>
      </trkpt>
      <trkpt lat="44.91731" lon="6.6762">
        <ele>1366.9</ele>
        <time>2020-08-20T07:25:02Z</time>
      </trkpt>
      <trkpt lat="44.91726" lon="6.67632">
        <ele>1368</ele>
        <time>2020-08-20T07:25:09Z</time>
      </trkpt>
      <trkpt lat="44.91722" lon="6.67645">
        <ele>1369.5</ele>
        <time>2020-08-20T07:25:18Z</time>
      </trkpt>
      <trkpt lat="44.91716" lon="6.67654">
        <ele>1370.9</ele>
        <time>2020-08-20T07:25:27Z</time>
      </trkpt>
      <trkpt lat="44.91711" lon="6.67666">
        <ele>1372</ele>
        <time>2020-08-20T07:25:35Z</time>
      </trkpt>
      <trkpt lat="44.91707" lon="6.67678">
        <ele>1372.9</ele>
        <time>2020-08-20T07:25:44Z</time>
      </trkpt>
      <trkpt lat="44.91706" lon="6.6769">
        <ele>1373.6</ele>
        <time>2020-08-20T07:25:52Z</time>
      </trkpt>
      <trkpt lat="44.91704" lon="6.67703">
        <ele>1374.5</ele>
        <time>2020-08-20T07:26:01Z</time>
      </trkpt>
      <trkpt lat="44.91705" lon="6.67716">
        <ele>1375.5</ele>
        <time>2020-08-20T07:26:10Z</time>
      </trkpt>
      <trkpt lat="44.91702" lon="6.67729">
        <ele>1376.5</ele>
        <time>2020-08-20T07:26:19Z</time>
      </trkpt>
      <trkpt lat="44.91699" lon="6.67741">
        <ele>1377.4</ele>
        <time>2020-08-20T07:26:27Z</time>
      </trkpt>
      <trkpt lat="44.91697" lon="6.67754">
        <ele>1378.4</ele>
        <time>2020-08-20T07:26:36Z</time>
      </trkpt>
      <trkpt lat="44.91694" lon="6.67766">
        <ele>1379.5</ele>
        <time>2020-08-20T07:26:45Z</time>
      </trkpt>
      <trkpt lat="44.91691" lon="6.67779">
        <ele>1380.5</ele>
        <time>2020-08-20T07:26:53Z</time>
      </trkpt>
      <trkpt lat="44.91687" lon="6.67792">
        <ele>1381.5</ele>
        <time>2020-08-20T07:27:02Z</time>
      </trkpt>
      <trkpt lat="44.91685" lon="6.67805">
        <ele>1382.4</ele>
        <time>2020-08-20T07:27:11Z</time>
      </trkpt>
      <trkpt lat="44.91681" lon="6.67817">
        <ele>1383.4</ele>
        <time>2020-08-20T07:27:20Z</time>
      </trkpt>
      <trkpt lat="44.91676" lon="6.67828">
        <ele>1384.5</ele>
        <time>2020-08-20T07:27:29Z</time>
      </trkpt>
      <trkpt lat="44.91671" lon="6.67839">
        <ele>1385.6</ele>
        <time>2020-08-20T07:27:37Z</time>
      </trkpt>
      <trkpt lat="44.91666" lon="6.67849">
        <ele>1386.7</ele>
        <time>2020-08-20T07:27:45Z</time>
      </trkpt>
      <trkpt lat="44.91661" lon="6.67861">
        <ele>1387.8</ele>
        <time>2020-08-20T07:27:54Z</time>
      </trkpt>
      <trkpt lat="44.91655" lon="6.67873">
        <ele>1388.9</ele>
        <time>2020-08-20T07:28:04Z</time>
      </trkpt>
      <trkpt lat="44.9165" lon="6.67883">
        <ele>1389.9</ele>
        <time>2020-08-20T07:28:12Z</time>
      </trkpt>
      <trkpt lat="44.91644" lon="6.67893">
        <ele>1390.8</ele>
        <time>2020-08-20T07:28:21Z</time>
      </trkpt>
      <trkpt lat="44.91636" lon="6.67901">
        <ele>1391.7</ele>
        <time>2020-08-20T07:28:30Z</time>
      </trkpt>
      <trkpt lat="44.91629" lon="6.6791">
        <ele>1392.7</ele>
        <time>2020-08-20T07:28:39Z</time>
      </trkpt>
      <trkpt lat="44.91621" lon="6.67919">
        <ele>1393.9</ele>
        <time>2020-08-20T07:28:49Z</time>
      </trkpt>
      <trkpt lat="44.91612" lon="6.67925">
        <ele>1394.9</ele>
        <time>2020-08-20T07:28:57Z</time>
      </trkpt>
      <trkpt lat="44.91605" lon="6.67932">
        <ele>1397.9</ele>
        <time>2020-08-20T07:31:06Z</time>
      </trkpt>
      <trkpt lat="44.91598" lon="6.67941">
        <ele>1398.2</ele>
        <time>2020-08-20T07:31:12Z</time>
      </trkpt>
      <trkpt lat="44.91589" lon="6.67948">
        <ele>1398.9</ele>
        <time>2020-08-20T07:31:20Z</time>
      </trkpt>
      <trkpt lat="44.91581" lon="6.67954">
        <ele>1399.6</ele>
        <time>2020-08-20T07:31:27Z</time>
      </trkpt>
      <trkpt lat="44.91572" lon="6.67957">
        <ele>1400.5</ele>
        <time>2020-08-20T07:31:34Z</time>
      </trkpt>
      <trkpt lat="44.91563" lon="6.6796">
        <ele>1401.8</ele>
        <time>2020-08-20T07:31:42Z</time>
      </trkpt>
      <trkpt lat="44.91555" lon="6.67966">
        <ele>1403.2</ele>
        <time>2020-08-20T07:31:50Z</time>
      </trkpt>
      <trkpt lat="44.91545" lon="6.67966">
        <ele>1404.7</ele>
        <time>2020-08-20T07:31:59Z</time>
      </trkpt>
      <trkpt lat="44.91536" lon="6.67961">
        <ele>1406.1</ele>
        <time>2020-08-20T07:32:08Z</time>
      </trkpt>
      <trkpt lat="44.91527" lon="6.67956">
        <ele>1406.9</ele>
        <time>2020-08-20T07:32:15Z</time>
      </trkpt>
      <trkpt lat="44.91518" lon="6.67954">
        <ele>1407.4</ele>
        <time>2020-08-20T07:32:22Z</time>
      </trkpt>
      <trkpt lat="44.91511" lon="6.67945">
        <ele>1408.2</ele>
        <time>2020-08-20T07:32:30Z</time>
      </trkpt>
      <trkpt lat="44.91507" lon="6.67932">
        <ele>1408.9</ele>
        <time>2020-08-20T07:32:36Z</time>
      </trkpt>
      <trkpt lat="44.91504" lon="6.67919">
        <ele>1409.7</ele>
        <time>2020-08-20T07:32:43Z</time>
      </trkpt>
      <trkpt lat="44.915" lon="6.67906">
        <ele>1410.4</ele>
        <time>2020-08-20T07:32:52Z</time>
      </trkpt>
      <trkpt lat="44.91498" lon="6.67893">
        <ele>1410.8</ele>
        <time>2020-08-20T07:32:59Z</time>
      </trkpt>
      <trkpt lat="44.91494" lon="6.67881">
        <ele>1411.3</ele>
        <time>2020-08-20T07:33:06Z</time>
      </trkpt>
      <trkpt lat="44.91488" lon="6.6787">
        <ele>1411.7</ele>
        <time>2020-08-20T07:33:12Z</time>
      </trkpt>
      <trkpt lat="44.91483" lon="6.67857">
        <ele>1412.2</ele>
        <time>2020-08-20T07:33:19Z</time>
      </trkpt>
      <trkpt lat="44.91476" lon="6.67849">
        <ele>1412.6</ele>
        <time>2020-08-20T07:33:25Z</time>
      </trkpt>
      <trkpt lat="44.91469" lon="6.67841">
        <ele>1413</ele>
        <time>2020-08-20T07:33:32Z</time>
      </trkpt>
      <trkpt lat="44.91462" lon="6.67831">
        <ele>1413.5</ele>
        <time>2020-08-20T07:33:39Z</time>
      </trkpt>
      <trkpt lat="44.91456" lon="6.67821">
        <ele>1414</ele>
        <time>2020-08-20T07:33:45Z</time>
      </trkpt>
      <trkpt lat="44.91451" lon="6.6781">
        <ele>1415</ele>
        <time>2020-08-20T07:33:53Z</time>
      </trkpt>
      <trkpt lat="44.91448" lon="6.67797">
        <ele>1416</ele>
        <time>2020-08-20T07:34:02Z</time>
      </trkpt>
      <trkpt lat="44.91443" lon="6.67785">
        <ele>1416.6</ele>
        <time>2020-08-20T07:34:08Z</time>
      </trkpt>
      <trkpt lat="44.91436" lon="6.67775">
        <ele>1417.2</ele>
        <time>2020-08-20T07:34:15Z</time>
      </trkpt>
      <trkpt lat="44.91431" lon="6.67765">
        <ele>1417.8</ele>
        <time>2020-08-20T07:34:21Z</time>
      </trkpt>
      <trkpt lat="44.91426" lon="6.67753">
        <ele>1418.9</ele>
        <time>2020-08-20T07:34:28Z</time>
      </trkpt>
      <trkpt lat="44.91419" lon="6.67745">
        <ele>1419.9</ele>
        <time>2020-08-20T07:34:36Z</time>
      </trkpt>
      <trkpt lat="44.91411" lon="6.67738">
        <ele>1420.5</ele>
        <time>2020-08-20T07:34:41Z</time>
      </trkpt>
      <trkpt lat="44.91403" lon="6.6773">
        <ele>1421.3</ele>
        <time>2020-08-20T07:34:49Z</time>
      </trkpt>
      <trkpt lat="44.91394" lon="6.67725">
        <ele>1422</ele>
        <time>2020-08-20T07:34:57Z</time>
      </trkpt>
      <trkpt lat="44.91385" lon="6.67721">
        <ele>1422.5</ele>
        <time>2020-08-20T07:35:04Z</time>
      </trkpt>
      <trkpt lat="44.91376" lon="6.67718">
        <ele>1423.1</ele>
        <time>2020-08-20T07:35:11Z</time>
      </trkpt>
      <trkpt lat="44.91368" lon="6.67714">
        <ele>1423.5</ele>
        <time>2020-08-20T07:35:17Z</time>
      </trkpt>
      <trkpt lat="44.91358" lon="6.67712">
        <ele>1423.9</ele>
        <time>2020-08-20T07:35:24Z</time>
      </trkpt>
      <trkpt lat="44.91349" lon="6.6771">
        <ele>1424.4</ele>
        <time>2020-08-20T07:35:31Z</time>
      </trkpt>
      <trkpt lat="44.91339" lon="6.67708">
        <ele>1424.7</ele>
        <time>2020-08-20T07:35:36Z</time>
      </trkpt>
      <trkpt lat="44.9133" lon="6.67711">
        <ele>1425.1</ele>
        <time>2020-08-20T07:35:43Z</time>
      </trkpt>
      <trkpt lat="44.9132" lon="6.67713">
        <ele>1425.6</ele>
        <time>2020-08-20T07:35:51Z</time>
      </trkpt>
      <trkpt lat="44.91311" lon="6.67716">
        <ele>1425.8</ele>
        <time>2020-08-20T07:35:57Z</time>
      </trkpt>
      <trkpt lat="44.91301" lon="6.67717">
        <ele>1426</ele>
        <time>2020-08-20T07:36:02Z</time>
      </trkpt>
      <trkpt lat="44.91291" lon="6.67718">
        <ele>1426.1</ele>
        <time>2020-08-20T07:36:09Z</time>
      </trkpt>
      <trkpt lat="44.91282" lon="6.67718">
        <ele>1426.2</ele>
        <time>2020-08-20T07:36:16Z</time>
      </trkpt>
      <trkpt lat="44.91272" lon="6.67718">
        <ele>1426.2</ele>
        <time>2020-08-20T07:36:22Z</time>
      </trkpt>
      <trkpt lat="44.91261" lon="6.67719">
        <ele>1426.2</ele>
        <time>2020-08-20T07:36:28Z</time>
      </trkpt>
      <trkpt lat="44.91252" lon="6.67721">
        <ele>1426.3</ele>
        <time>2020-08-20T07:36:35Z</time>
      </trkpt>
      <trkpt lat="44.91241" lon="6.67719">
        <ele>1426.4</ele>
        <time>2020-08-20T07:36:43Z</time>
      </trkpt>
      <trkpt lat="44.91232" lon="6.67721">
        <ele>1427</ele>
        <time>2020-08-20T07:36:51Z</time>
      </trkpt>
      <trkpt lat="44.91223" lon="6.67726">
        <ele>1427.8</ele>
        <time>2020-08-20T07:36:59Z</time>
      </trkpt>
      <trkpt lat="44.91214" lon="6.6773">
        <ele>1428.3</ele>
        <time>2020-08-20T07:37:06Z</time>
      </trkpt>
      <trkpt lat="44.91204" lon="6.67732">
        <ele>1428.6</ele>
        <time>2020-08-20T07:37:12Z</time>
      </trkpt>
      <trkpt lat="44.91196" lon="6.67728">
        <ele>1428.9</ele>
        <time>2020-08-20T07:37:19Z</time>
      </trkpt>
      <trkpt lat="44.91188" lon="6.6772">
        <ele>1429.4</ele>
        <time>2020-08-20T07:37:25Z</time>
      </trkpt>
      <trkpt lat="44.91181" lon="6.67709">
        <ele>1430.1</ele>
        <time>2020-08-20T07:37:32Z</time>
      </trkpt>
      <trkpt lat="44.91174" lon="6.677">
        <ele>1431</ele>
        <time>2020-08-20T07:37:40Z</time>
      </trkpt>
      <trkpt lat="44.91167" lon="6.67691">
        <ele>1431.7</ele>
        <time>2020-08-20T07:37:47Z</time>
      </trkpt>
      <trkpt lat="44.91158" lon="6.67685">
        <ele>1432.2</ele>
        <time>2020-08-20T07:37:53Z</time>
      </trkpt>
      <trkpt lat="44.9115" lon="6.67678">
        <ele>1432.6</ele>
        <time>2020-08-20T07:38:00Z</time>
      </trkpt>
      <trkpt lat="44.91141" lon="6.67671">
        <ele>1433</ele>
        <time>2020-08-20T07:38:07Z</time>
      </trkpt>
      <trkpt lat="44.91133" lon="6.67663">
        <ele>1433.4</ele>
        <time>2020-08-20T07:38:14Z</time>
      </trkpt>
      <trkpt lat="44.91128" lon="6.6765">
        <ele>1434</ele>
        <time>2020-08-20T07:38:22Z</time>
      </trkpt>
      <trkpt lat="44.91125" lon="6.67638">
        <ele>1434.6</ele>
        <time>2020-08-20T07:38:29Z</time>
      </trkpt>
      <trkpt lat="44.91121" lon="6.67626">
        <ele>1435.2</ele>
        <time>2020-08-20T07:38:36Z</time>
      </trkpt>
      <trkpt lat="44.91114" lon="6.67616">
        <ele>1435.8</ele>
        <time>2020-08-20T07:38:43Z</time>
      </trkpt>
      <trkpt lat="44.91108" lon="6.67607">
        <ele>1436.5</ele>
        <time>2020-08-20T07:38:51Z</time>
      </trkpt>
      <trkpt lat="44.91104" lon="6.67595">
        <ele>1437.2</ele>
        <time>2020-08-20T07:38:58Z</time>
      </trkpt>
      <trkpt lat="44.911" lon="6.67583">
        <ele>1438.1</ele>
        <time>2020-08-20T07:39:05Z</time>
      </trkpt>
      <trkpt lat="44.91096" lon="6.67571">
        <ele>1438.8</ele>
        <time>2020-08-20T07:39:12Z</time>
      </trkpt>
      <trkpt lat="44.9109" lon="6.67561">
        <ele>1439.3</ele>
        <time>2020-08-20T07:39:18Z</time>
      </trkpt>
      <trkpt lat="44.91083" lon="6.6755">
        <ele>1439.8</ele>
        <time>2020-08-20T07:39:24Z</time>
      </trkpt>
      <trkpt lat="44.91074" lon="6.67544">
        <ele>1440.1</ele>
        <time>2020-08-20T07:39:30Z</time>
      </trkpt>
      <trkpt lat="44.91066" lon="6.67537">
        <ele>1440.5</ele>
        <time>2020-08-20T07:39:38Z</time>
      </trkpt>
      <trkpt lat="44.91059" lon="6.67528">
        <ele>1441.1</ele>
        <time>2020-08-20T07:39:46Z</time>
      </trkpt>
      <trkpt lat="44.9105" lon="6.67521">
        <ele>1441.9</ele>
        <time>2020-08-20T07:39:53Z</time>
      </trkpt>
      <trkpt lat="44.91043" lon="6.67512">
        <ele>1442.6</ele>
        <time>2020-08-20T07:40:01Z</time>
      </trkpt>
      <trkpt lat="44.91035" lon="6.67503">
        <ele>1443.1</ele>
        <time>2020-08-20T07:40:08Z</time>
      </trkpt>
      <trkpt lat="44.91028" lon="6.67492">
        <ele>1443.4</ele>
        <time>2020-08-20T07:40:15Z</time>
      </trkpt>
      <trkpt lat="44.91022" lon="6.67482">
        <ele>1443.5</ele>
        <time>2020-08-20T07:40:21Z</time>
      </trkpt>
      <trkpt lat="44.91014" lon="6.67472">
        <ele>1443.7</ele>
        <time>2020-08-20T07:40:28Z</time>
      </trkpt>
      <trkpt lat="44.91007" lon="6.67464">
        <ele>1443.7</ele>
        <time>2020-08-20T07:40:35Z</time>
      </trkpt>
      <trkpt lat="44.91" lon="6.67454">
        <ele>1443.6</ele>
        <time>2020-08-20T07:40:42Z</time>
      </trkpt>
      <trkpt lat="44.90994" lon="6.67442">
        <ele>1443.1</ele>
        <time>2020-08-20T07:40:49Z</time>
      </trkpt>
      <trkpt lat="44.90989" lon="6.67431">
        <ele>1442.6</ele>
        <time>2020-08-20T07:40:56Z</time>
      </trkpt>
      <trkpt lat="44.90983" lon="6.6742">
        <ele>1442</ele>
        <time>2020-08-20T07:41:02Z</time>
      </trkpt>
      <trkpt lat="44.9098" lon="6.67408">
        <ele>1441.6</ele>
        <time>2020-08-20T07:41:07Z</time>
      </trkpt>
      <trkpt lat="44.90976" lon="6.67396">
        <ele>1441.2</ele>
        <time>2020-08-20T07:41:14Z</time>
      </trkpt>
      <trkpt lat="44.90972" lon="6.67382">
        <ele>1440.9</ele>
        <time>2020-08-20T07:41:21Z</time>
      </trkpt>
      <trkpt lat="44.90966" lon="6.6737">
        <ele>1440.7</ele>
        <time>2020-08-20T07:41:29Z</time>
      </trkpt>
      <trkpt lat="44.90961" lon="6.67358">
        <ele>1440.6</ele>
        <time>2020-08-20T07:41:36Z</time>
      </trkpt>
      <trkpt lat="44.90955" lon="6.67348">
        <ele>1441</ele>
        <time>2020-08-20T07:41:44Z</time>
      </trkpt>
      <trkpt lat="44.90946" lon="6.67343">
        <ele>1441.8</ele>
        <time>2020-08-20T07:41:52Z</time>
      </trkpt>
      <trkpt lat="44.90936" lon="6.67339">
        <ele>1442.9</ele>
        <time>2020-08-20T07:42:00Z</time>
      </trkpt>
      <trkpt lat="44.90928" lon="6.67333">
        <ele>1443.9</ele>
        <time>2020-08-20T07:42:08Z</time>
      </trkpt>
      <trkpt lat="44.90919" lon="6.67326">
        <ele>1444.8</ele>
        <time>2020-08-20T07:42:15Z</time>
      </trkpt>
      <trkpt lat="44.90911" lon="6.67318">
        <ele>1445.4</ele>
        <time>2020-08-20T07:42:21Z</time>
      </trkpt>
      <trkpt lat="44.90904" lon="6.6731">
        <ele>1445.8</ele>
        <time>2020-08-20T07:42:27Z</time>
      </trkpt>
      <trkpt lat="44.90896" lon="6.673">
        <ele>1446</ele>
        <time>2020-08-20T07:42:34Z</time>
      </trkpt>
      <trkpt lat="44.9089" lon="6.6729">
        <ele>1446.2</ele>
        <time>2020-08-20T07:42:41Z</time>
      </trkpt>
      <trkpt lat="44.90883" lon="6.6728">
        <ele>1446.3</ele>
        <time>2020-08-20T07:42:48Z</time>
      </trkpt>
      <trkpt lat="44.90875" lon="6.67272">
        <ele>1446.4</ele>
        <time>2020-08-20T07:42:55Z</time>
      </trkpt>
      <trkpt lat="44.90867" lon="6.67266">
        <ele>1446.5</ele>
        <time>2020-08-20T07:43:02Z</time>
      </trkpt>
      <trkpt lat="44.90858" lon="6.67259">
        <ele>1446.5</ele>
        <time>2020-08-20T07:43:09Z</time>
      </trkpt>
      <trkpt lat="44.90849" lon="6.67252">
        <ele>1446.5</ele>
        <time>2020-08-20T07:43:16Z</time>
      </trkpt>
      <trkpt lat="44.90841" lon="6.67246">
        <ele>1446.5</ele>
        <time>2020-08-20T07:43:21Z</time>
      </trkpt>
      <trkpt lat="44.90835" lon="6.67236">
        <ele>1446.5</ele>
        <time>2020-08-20T07:43:28Z</time>
      </trkpt>
      <trkpt lat="44.90829" lon="6.67223">
        <ele>1446.5</ele>
        <time>2020-08-20T07:43:36Z</time>
      </trkpt>
      <trkpt lat="44.90823" lon="6.67211">
        <ele>1446.5</ele>
        <time>2020-08-20T07:43:43Z</time>
      </trkpt>
      <trkpt lat="44.90819" lon="6.67199">
        <ele>1446.5</ele>
        <time>2020-08-20T07:43:49Z</time>
      </trkpt>
      <trkpt lat="44.9082" lon="6.67185">
        <ele>1446.5</ele>
        <time>2020-08-20T07:43:58Z</time>
      </trkpt>
      <trkpt lat="44.90821" lon="6.67171">
        <ele>1446.5</ele>
        <time>2020-08-20T07:44:07Z</time>
      </trkpt>
      <trkpt lat="44.9082" lon="6.67156">
        <ele>1446.5</ele>
        <time>2020-08-20T07:44:13Z</time>
      </trkpt>
      <trkpt lat="44.9082" lon="6.67143">
        <ele>1446.5</ele>
        <time>2020-08-20T07:44:20Z</time>
      </trkpt>
      <trkpt lat="44.9082" lon="6.67129">
        <ele>1446.5</ele>
        <time>2020-08-20T07:44:27Z</time>
      </trkpt>
      <trkpt lat="44.90817" lon="6.67116">
        <ele>1446.5</ele>
        <time>2020-08-20T07:44:34Z</time>
      </trkpt>
      <trkpt lat="44.90816" lon="6.67102">
        <ele>1446.5</ele>
        <time>2020-08-20T07:44:41Z</time>
      </trkpt>
      <trkpt lat="44.90812" lon="6.6709">
        <ele>1446.4</ele>
        <time>2020-08-20T07:44:47Z</time>
      </trkpt>
      <trkpt lat="44.90807" lon="6.67076">
        <ele>1446.3</ele>
        <time>2020-08-20T07:44:53Z</time>
      </trkpt>
      <trkpt lat="44.90799" lon="6.67065">
        <ele>1446.2</ele>
        <time>2020-08-20T07:44:59Z</time>
      </trkpt>
      <trkpt lat="44.90791" lon="6.67057">
        <ele>1446</ele>
        <time>2020-08-20T07:45:04Z</time>
      </trkpt>
      <trkpt lat="44.90783" lon="6.6705">
        <ele>1445.8</ele>
        <time>2020-08-20T07:45:11Z</time>
      </trkpt>
      <trkpt lat="44.90777" lon="6.67038">
        <ele>1445.4</ele>
        <time>2020-08-20T07:45:18Z</time>
      </trkpt>
      <trkpt lat="44.90774" lon="6.67027">
        <ele>1445</ele>
        <time>2020-08-20T07:45:25Z</time>
      </trkpt>
      <trkpt lat="44.90767" lon="6.67018">
        <ele>1444.5</ele>
        <time>2020-08-20T07:45:33Z</time>
      </trkpt>
      <trkpt lat="44.90758" lon="6.67009">
        <ele>1443.7</ele>
        <time>2020-08-20T07:45:41Z</time>
      </trkpt>
      <trkpt lat="44.90749" lon="6.67004">
        <ele>1442.9</ele>
        <time>2020-08-20T07:45:48Z</time>
      </trkpt>
      <trkpt lat="44.90739" lon="6.66998">
        <ele>1442.2</ele>
        <time>2020-08-20T07:45:55Z</time>
      </trkpt>
      <trkpt lat="44.90732" lon="6.66988">
        <ele>1441.8</ele>
        <time>2020-08-20T07:46:01Z</time>
      </trkpt>
      <trkpt lat="44.90726" lon="6.66978">
        <ele>1441.5</ele>
        <time>2020-08-20T07:46:07Z</time>
      </trkpt>
      <trkpt lat="44.90718" lon="6.6697">
        <ele>1441.2</ele>
        <time>2020-08-20T07:46:14Z</time>
      </trkpt>
      <trkpt lat="44.90709" lon="6.66964">
        <ele>1441.1</ele>
        <time>2020-08-20T07:46:21Z</time>
      </trkpt>
      <trkpt lat="44.907" lon="6.66958">
        <ele>1441</ele>
        <time>2020-08-20T07:46:28Z</time>
      </trkpt>
      <trkpt lat="44.90692" lon="6.66949">
        <ele>1440.9</ele>
        <time>2020-08-20T07:46:35Z</time>
      </trkpt>
      <trkpt lat="44.90682" lon="6.66946">
        <ele>1440.9</ele>
        <time>2020-08-20T07:46:43Z</time>
      </trkpt>
      <trkpt lat="44.90673" lon="6.6694">
        <ele>1440.9</ele>
        <time>2020-08-20T07:46:50Z</time>
      </trkpt>
      <trkpt lat="44.90667" lon="6.66931">
        <ele>1441</ele>
        <time>2020-08-20T07:46:55Z</time>
      </trkpt>
      <trkpt lat="44.90661" lon="6.6692">
        <ele>1441.4</ele>
        <time>2020-08-20T07:47:02Z</time>
      </trkpt>
      <trkpt lat="44.90655" lon="6.66909">
        <ele>1441.7</ele>
        <time>2020-08-20T07:47:10Z</time>
      </trkpt>
      <trkpt lat="44.9065" lon="6.66895">
        <ele>1442.3</ele>
        <time>2020-08-20T07:47:18Z</time>
      </trkpt>
      <trkpt lat="44.90647" lon="6.66883">
        <ele>1442.8</ele>
        <time>2020-08-20T07:47:24Z</time>
      </trkpt>
      <trkpt lat="44.90638" lon="6.66881">
        <ele>1443.6</ele>
        <time>2020-08-20T07:47:32Z</time>
      </trkpt>
      <trkpt lat="44.90629" lon="6.66883">
        <ele>1444.2</ele>
        <time>2020-08-20T07:47:38Z</time>
      </trkpt>
      <trkpt lat="44.90621" lon="6.66877">
        <ele>1444.7</ele>
        <time>2020-08-20T07:47:45Z</time>
      </trkpt>
      <trkpt lat="44.90615" lon="6.66865">
        <ele>1445.1</ele>
        <time>2020-08-20T07:47:52Z</time>
      </trkpt>
      <trkpt lat="44.9061" lon="6.66853">
        <ele>1445.6</ele>
        <time>2020-08-20T07:48:05Z</time>
      </trkpt>
      <trkpt lat="44.90607" lon="6.66841">
        <ele>1445.8</ele>
        <time>2020-08-20T07:48:13Z</time>
      </trkpt>
      <trkpt lat="44.906" lon="6.66831">
        <ele>1446.1</ele>
        <time>2020-08-20T07:48:20Z</time>
      </trkpt>
      <trkpt lat="44.90592" lon="6.66823">
        <ele>1446.3</ele>
        <time>2020-08-20T07:48:28Z</time>
      </trkpt>
      <trkpt lat="44.90583" lon="6.66818">
        <ele>1446.5</ele>
        <time>2020-08-20T07:48:35Z</time>
      </trkpt>
      <trkpt lat="44.90574" lon="6.66812">
        <ele>1446.8</ele>
        <time>2020-08-20T07:48:42Z</time>
      </trkpt>
      <trkpt lat="44.90566" lon="6.66805">
        <ele>1447</ele>
        <time>2020-08-20T07:48:49Z</time>
      </trkpt>
      <trkpt lat="44.90558" lon="6.66798">
        <ele>1447.1</ele>
        <time>2020-08-20T07:48:56Z</time>
      </trkpt>
      <trkpt lat="44.9055" lon="6.66791">
        <ele>1447.2</ele>
        <time>2020-08-20T07:49:03Z</time>
      </trkpt>
      <trkpt lat="44.90542" lon="6.66783">
        <ele>1447.2</ele>
        <time>2020-08-20T07:49:10Z</time>
      </trkpt>
      <trkpt lat="44.90534" lon="6.66776">
        <ele>1447.3</ele>
        <time>2020-08-20T07:49:18Z</time>
      </trkpt>
      <trkpt lat="44.90525" lon="6.6677">
        <ele>1447.3</ele>
        <time>2020-08-20T07:49:25Z</time>
      </trkpt>
      <trkpt lat="44.90515" lon="6.66766">
        <ele>1447.3</ele>
        <time>2020-08-20T07:49:32Z</time>
      </trkpt>
      <trkpt lat="44.90506" lon="6.66761">
        <ele>1447.3</ele>
        <time>2020-08-20T07:49:39Z</time>
      </trkpt>
      <trkpt lat="44.90497" lon="6.66758">
        <ele>1447.3</ele>
        <time>2020-08-20T07:49:46Z</time>
      </trkpt>
      <trkpt lat="44.90486" lon="6.66754">
        <ele>1447.3</ele>
        <time>2020-08-20T07:49:54Z</time>
      </trkpt>
      <trkpt lat="44.90477" lon="6.6675">
        <ele>1447.3</ele>
        <time>2020-08-20T07:50:01Z</time>
      </trkpt>
      <trkpt lat="44.90468" lon="6.66746">
        <ele>1447.3</ele>
        <time>2020-08-20T07:50:07Z</time>
      </trkpt>
      <trkpt lat="44.90458" lon="6.6674">
        <ele>1447.3</ele>
        <time>2020-08-20T07:50:13Z</time>
      </trkpt>
      <trkpt lat="44.90448" lon="6.66738">
        <ele>1447.4</ele>
        <time>2020-08-20T07:50:20Z</time>
      </trkpt>
      <trkpt lat="44.90438" lon="6.66734">
        <ele>1447.4</ele>
        <time>2020-08-20T07:50:27Z</time>
      </trkpt>
      <trkpt lat="44.90429" lon="6.66731">
        <ele>1447.4</ele>
        <time>2020-08-20T07:50:34Z</time>
      </trkpt>
      <trkpt lat="44.9042" lon="6.66726">
        <ele>1447.6</ele>
        <time>2020-08-20T07:50:40Z</time>
      </trkpt>
      <trkpt lat="44.90412" lon="6.66722">
        <ele>1447.7</ele>
        <time>2020-08-20T07:50:46Z</time>
      </trkpt>
      <trkpt lat="44.90403" lon="6.66719">
        <ele>1447.7</ele>
        <time>2020-08-20T07:50:53Z</time>
      </trkpt>
      <trkpt lat="44.90393" lon="6.66715">
        <ele>1447.8</ele>
        <time>2020-08-20T07:51:00Z</time>
      </trkpt>
      <trkpt lat="44.90383" lon="6.66712">
        <ele>1447.8</ele>
        <time>2020-08-20T07:51:08Z</time>
      </trkpt>
      <trkpt lat="44.90374" lon="6.6671">
        <ele>1447.9</ele>
        <time>2020-08-20T07:51:15Z</time>
      </trkpt>
      <trkpt lat="44.90364" lon="6.66707">
        <ele>1447.9</ele>
        <time>2020-08-20T07:51:22Z</time>
      </trkpt>
      <trkpt lat="44.90353" lon="6.66703">
        <ele>1448</ele>
        <time>2020-08-20T07:51:28Z</time>
      </trkpt>
      <trkpt lat="44.90345" lon="6.66694">
        <ele>1448</ele>
        <time>2020-08-20T07:51:34Z</time>
      </trkpt>
      <trkpt lat="44.90337" lon="6.66685">
        <ele>1448.2</ele>
        <time>2020-08-20T07:51:40Z</time>
      </trkpt>
      <trkpt lat="44.9033" lon="6.66676">
        <ele>1448.3</ele>
        <time>2020-08-20T07:51:45Z</time>
      </trkpt>
      <trkpt lat="44.90321" lon="6.6667">
        <ele>1448.4</ele>
        <time>2020-08-20T07:51:53Z</time>
      </trkpt>
      <trkpt lat="44.90313" lon="6.66663">
        <ele>1448.5</ele>
        <time>2020-08-20T07:52:01Z</time>
      </trkpt>
      <trkpt lat="44.90303" lon="6.66659">
        <ele>1448.6</ele>
        <time>2020-08-20T07:52:09Z</time>
      </trkpt>
      <trkpt lat="44.90294" lon="6.66659">
        <ele>1448.6</ele>
        <time>2020-08-20T07:52:15Z</time>
      </trkpt>
      <trkpt lat="44.90283" lon="6.66658">
        <ele>1448.7</ele>
        <time>2020-08-20T07:52:22Z</time>
      </trkpt>
      <trkpt lat="44.90275" lon="6.66655">
        <ele>1448.7</ele>
        <time>2020-08-20T07:52:29Z</time>
      </trkpt>
      <trkpt lat="44.90265" lon="6.66655">
        <ele>1448.7</ele>
        <time>2020-08-20T07:52:37Z</time>
      </trkpt>
      <trkpt lat="44.90255" lon="6.66658">
        <ele>1448.7</ele>
        <time>2020-08-20T07:52:44Z</time>
      </trkpt>
      <trkpt lat="44.90246" lon="6.66659">
        <ele>1448.7</ele>
        <time>2020-08-20T07:52:48Z</time>
      </trkpt>
      <trkpt lat="44.90237" lon="6.66658">
        <ele>1448.7</ele>
        <time>2020-08-20T07:52:54Z</time>
      </trkpt>
      <trkpt lat="44.90226" lon="6.66655">
        <ele>1448.7</ele>
        <time>2020-08-20T07:53:01Z</time>
      </trkpt>
      <trkpt lat="44.90217" lon="6.66654">
        <ele>1448.7</ele>
        <time>2020-08-20T07:53:07Z</time>
      </trkpt>
      <trkpt lat="44.9021" lon="6.66646">
        <ele>1448.7</ele>
        <time>2020-08-20T07:53:13Z</time>
      </trkpt>
      <trkpt lat="44.90201" lon="6.66644">
        <ele>1448.8</ele>
        <time>2020-08-20T07:53:19Z</time>
      </trkpt>
      <trkpt lat="44.90191" lon="6.66646">
        <ele>1448.9</ele>
        <time>2020-08-20T07:53:26Z</time>
      </trkpt>
      <trkpt lat="44.90181" lon="6.66646">
        <ele>1449</ele>
        <time>2020-08-20T07:53:34Z</time>
      </trkpt>
      <trkpt lat="44.90172" lon="6.66647">
        <ele>1449</ele>
        <time>2020-08-20T07:53:42Z</time>
      </trkpt>
      <trkpt lat="44.90162" lon="6.66644">
        <ele>1449.1</ele>
        <time>2020-08-20T07:53:47Z</time>
      </trkpt>
      <trkpt lat="44.90152" lon="6.66641">
        <ele>1449.1</ele>
        <time>2020-08-20T07:53:53Z</time>
      </trkpt>
      <trkpt lat="44.90143" lon="6.66638">
        <ele>1449.1</ele>
        <time>2020-08-20T07:54:00Z</time>
      </trkpt>
      <trkpt lat="44.90134" lon="6.66633">
        <ele>1449.1</ele>
        <time>2020-08-20T07:54:07Z</time>
      </trkpt>
      <trkpt lat="44.90121" lon="6.66635">
        <ele>1450.4</ele>
        <time>2020-08-20T07:54:58Z</time>
      </trkpt>
      <trkpt lat="44.90113" lon="6.66628">
        <ele>1450.5</ele>
        <time>2020-08-20T07:55:05Z</time>
      </trkpt>
      <trkpt lat="44.90105" lon="6.66621">
        <ele>1450.5</ele>
        <time>2020-08-20T07:55:12Z</time>
      </trkpt>
      <trkpt lat="44.90097" lon="6.66615">
        <ele>1450.5</ele>
        <time>2020-08-20T07:55:18Z</time>
      </trkpt>
      <trkpt lat="44.90088" lon="6.66611">
        <ele>1450.5</ele>
        <time>2020-08-20T07:55:26Z</time>
      </trkpt>
      <trkpt lat="44.90079" lon="6.66604">
        <ele>1450.5</ele>
        <time>2020-08-20T07:55:32Z</time>
      </trkpt>
      <trkpt lat="44.90071" lon="6.66594">
        <ele>1450.5</ele>
        <time>2020-08-20T07:55:39Z</time>
      </trkpt>
      <trkpt lat="44.90063" lon="6.66587">
        <ele>1450.5</ele>
        <time>2020-08-20T07:55:46Z</time>
      </trkpt>
      <trkpt lat="44.90054" lon="6.66579">
        <ele>1450.5</ele>
        <time>2020-08-20T07:55:54Z</time>
      </trkpt>
      <trkpt lat="44.90045" lon="6.66572">
        <ele>1450.5</ele>
        <time>2020-08-20T07:56:03Z</time>
      </trkpt>
      <trkpt lat="44.90036" lon="6.66566">
        <ele>1450.5</ele>
        <time>2020-08-20T07:56:09Z</time>
      </trkpt>
      <trkpt lat="44.90028" lon="6.66558">
        <ele>1450.5</ele>
        <time>2020-08-20T07:56:17Z</time>
      </trkpt>
      <trkpt lat="44.90019" lon="6.66551">
        <ele>1450.5</ele>
        <time>2020-08-20T07:56:24Z</time>
      </trkpt>
      <trkpt lat="44.90011" lon="6.66541">
        <ele>1450.5</ele>
        <time>2020-08-20T07:56:31Z</time>
      </trkpt>
      <trkpt lat="44.90004" lon="6.66531">
        <ele>1450.5</ele>
        <time>2020-08-20T07:56:38Z</time>
      </trkpt>
      <trkpt lat="44.9" lon="6.66519">
        <ele>1450.6</ele>
        <time>2020-08-20T07:56:45Z</time>
      </trkpt>
      <trkpt lat="44.89997" lon="6.66506">
        <ele>1450.6</ele>
        <time>2020-08-20T07:56:53Z</time>
      </trkpt>
      <trkpt lat="44.89999" lon="6.66492">
        <ele>1450.6</ele>
        <time>2020-08-20T07:57:00Z</time>
      </trkpt>
      <trkpt lat="44.90002" lon="6.66479">
        <ele>1450.6</ele>
        <time>2020-08-20T07:57:08Z</time>
      </trkpt>
      <trkpt lat="44.90001" lon="6.66466">
        <ele>1450.7</ele>
        <time>2020-08-20T07:57:15Z</time>
      </trkpt>
      <trkpt lat="44.89995" lon="6.66455">
        <ele>1450.8</ele>
        <time>2020-08-20T07:57:21Z</time>
      </trkpt>
      <trkpt lat="44.89988" lon="6.66444">
        <ele>1450.9</ele>
        <time>2020-08-20T07:57:27Z</time>
      </trkpt>
      <trkpt lat="44.8998" lon="6.66437">
        <ele>1451</ele>
        <time>2020-08-20T07:57:34Z</time>
      </trkpt>
      <trkpt lat="44.89973" lon="6.6643">
        <ele>1451.1</ele>
        <time>2020-08-20T07:57:41Z</time>
      </trkpt>
      <trkpt lat="44.89965" lon="6.66422">
        <ele>1451.3</ele>
        <time>2020-08-20T07:57:49Z</time>
      </trkpt>
      <trkpt lat="44.89957" lon="6.66415">
        <ele>1451.5</ele>
        <time>2020-08-20T07:57:56Z</time>
      </trkpt>
      <trkpt lat="44.89949" lon="6.66406">
        <ele>1451.6</ele>
        <time>2020-08-20T07:58:03Z</time>
      </trkpt>
      <trkpt lat="44.89941" lon="6.66399">
        <ele>1451.8</ele>
        <time>2020-08-20T07:58:10Z</time>
      </trkpt>
      <trkpt lat="44.89932" lon="6.66394">
        <ele>1451.9</ele>
        <time>2020-08-20T07:58:16Z</time>
      </trkpt>
      <trkpt lat="44.89925" lon="6.66385">
        <ele>1452.2</ele>
        <time>2020-08-20T07:58:23Z</time>
      </trkpt>
      <trkpt lat="44.89924" lon="6.66372">
        <ele>1452.5</ele>
        <time>2020-08-20T07:58:31Z</time>
      </trkpt>
      <trkpt lat="44.89929" lon="6.66361">
        <ele>1452.7</ele>
        <time>2020-08-20T07:58:38Z</time>
      </trkpt>
      <trkpt lat="44.89929" lon="6.66346">
        <ele>1452.9</ele>
        <time>2020-08-20T07:58:47Z</time>
      </trkpt>
      <trkpt lat="44.8993" lon="6.66333">
        <ele>1453.1</ele>
        <time>2020-08-20T07:58:54Z</time>
      </trkpt>
      <trkpt lat="44.89931" lon="6.6632">
        <ele>1453.3</ele>
        <time>2020-08-20T07:59:01Z</time>
      </trkpt>
      <trkpt lat="44.89925" lon="6.66308">
        <ele>1453.6</ele>
        <time>2020-08-20T07:59:08Z</time>
      </trkpt>
      <trkpt lat="44.89918" lon="6.66299">
        <ele>1453.8</ele>
        <time>2020-08-20T07:59:14Z</time>
      </trkpt>
      <trkpt lat="44.89916" lon="6.66286">
        <ele>1454.1</ele>
        <time>2020-08-20T07:59:21Z</time>
      </trkpt>
      <trkpt lat="44.89915" lon="6.66274">
        <ele>1454.3</ele>
        <time>2020-08-20T07:59:28Z</time>
      </trkpt>
      <trkpt lat="44.89913" lon="6.6626">
        <ele>1454.4</ele>
        <time>2020-08-20T07:59:35Z</time>
      </trkpt>
      <trkpt lat="44.89911" lon="6.66248">
        <ele>1454.5</ele>
        <time>2020-08-20T07:59:41Z</time>
      </trkpt>
      <trkpt lat="44.89905" lon="6.66236">
        <ele>1454.6</ele>
        <time>2020-08-20T07:59:48Z</time>
      </trkpt>
      <trkpt lat="44.89898" lon="6.66225">
        <ele>1454.8</ele>
        <time>2020-08-20T07:59:55Z</time>
      </trkpt>
      <trkpt lat="44.89894" lon="6.66214">
        <ele>1454.9</ele>
        <time>2020-08-20T08:00:02Z</time>
      </trkpt>
      <trkpt lat="44.8989" lon="6.66202">
        <ele>1455.1</ele>
        <time>2020-08-20T08:00:09Z</time>
      </trkpt>
      <trkpt lat="44.89884" lon="6.66192">
        <ele>1455.2</ele>
        <time>2020-08-20T08:00:15Z</time>
      </trkpt>
      <trkpt lat="44.89882" lon="6.66178">
        <ele>1455.5</ele>
        <time>2020-08-20T08:00:22Z</time>
      </trkpt>
      <trkpt lat="44.89886" lon="6.66166">
        <ele>1455.9</ele>
        <time>2020-08-20T08:00:29Z</time>
      </trkpt>
      <trkpt lat="44.89886" lon="6.66152">
        <ele>1456.3</ele>
        <time>2020-08-20T08:00:37Z</time>
      </trkpt>
      <trkpt lat="44.89883" lon="6.66138">
        <ele>1456.6</ele>
        <time>2020-08-20T08:00:44Z</time>
      </trkpt>
      <trkpt lat="44.89877" lon="6.66126">
        <ele>1457</ele>
        <time>2020-08-20T08:00:51Z</time>
      </trkpt>
      <trkpt lat="44.89869" lon="6.66117">
        <ele>1457.3</ele>
        <time>2020-08-20T08:00:59Z</time>
      </trkpt>
      <trkpt lat="44.8986" lon="6.66113">
        <ele>1457.6</ele>
        <time>2020-08-20T08:01:06Z</time>
      </trkpt>
      <trkpt lat="44.89851" lon="6.66106">
        <ele>1457.9</ele>
        <time>2020-08-20T08:01:14Z</time>
      </trkpt>
      <trkpt lat="44.89846" lon="6.66094">
        <ele>1458.2</ele>
        <time>2020-08-20T08:01:22Z</time>
      </trkpt>
      <trkpt lat="44.89847" lon="6.66082">
        <ele>1458.5</ele>
        <time>2020-08-20T08:01:29Z</time>
      </trkpt>
      <trkpt lat="44.8985" lon="6.66069">
        <ele>1458.8</ele>
        <time>2020-08-20T08:01:36Z</time>
      </trkpt>
      <trkpt lat="44.89848" lon="6.66055">
        <ele>1459.5</ele>
        <time>2020-08-20T08:01:43Z</time>
      </trkpt>
      <trkpt lat="44.89842" lon="6.66045">
        <ele>1459.9</ele>
        <time>2020-08-20T08:01:49Z</time>
      </trkpt>
      <trkpt lat="44.89834" lon="6.66035">
        <ele>1460.3</ele>
        <time>2020-08-20T08:01:56Z</time>
      </trkpt>
      <trkpt lat="44.89827" lon="6.66026">
        <ele>1460.7</ele>
        <time>2020-08-20T08:02:03Z</time>
      </trkpt>
      <trkpt lat="44.8982" lon="6.66017">
        <ele>1460.9</ele>
        <time>2020-08-20T08:02:10Z</time>
      </trkpt>
      <trkpt lat="44.89817" lon="6.66004">
        <ele>1461.2</ele>
        <time>2020-08-20T08:02:18Z</time>
      </trkpt>
      <trkpt lat="44.89821" lon="6.65991">
        <ele>1461.6</ele>
        <time>2020-08-20T08:02:25Z</time>
      </trkpt>
      <trkpt lat="44.89819" lon="6.65979">
        <ele>1462.1</ele>
        <time>2020-08-20T08:02:32Z</time>
      </trkpt>
      <trkpt lat="44.89815" lon="6.65967">
        <ele>1462.7</ele>
        <time>2020-08-20T08:02:39Z</time>
      </trkpt>
      <trkpt lat="44.89817" lon="6.65954">
        <ele>1463.5</ele>
        <time>2020-08-20T08:02:48Z</time>
      </trkpt>
      <trkpt lat="44.89823" lon="6.65944">
        <ele>1464.3</ele>
        <time>2020-08-20T08:02:55Z</time>
      </trkpt>
      <trkpt lat="44.8983" lon="6.65936">
        <ele>1465.2</ele>
        <time>2020-08-20T08:03:02Z</time>
      </trkpt>
      <trkpt lat="44.8983" lon="6.65921">
        <ele>1466.4</ele>
        <time>2020-08-20T08:03:10Z</time>
      </trkpt>
      <trkpt lat="44.89823" lon="6.6591">
        <ele>1467.5</ele>
        <time>2020-08-20T08:03:17Z</time>
      </trkpt>
      <trkpt lat="44.89814" lon="6.65905">
        <ele>1468.3</ele>
        <time>2020-08-20T08:03:23Z</time>
      </trkpt>
      <trkpt lat="44.89806" lon="6.65899">
        <ele>1469.2</ele>
        <time>2020-08-20T08:03:30Z</time>
      </trkpt>
      <trkpt lat="44.89798" lon="6.65893">
        <ele>1469.8</ele>
        <time>2020-08-20T08:03:37Z</time>
      </trkpt>
      <trkpt lat="44.8979" lon="6.65887">
        <ele>1470.2</ele>
        <time>2020-08-20T08:03:44Z</time>
      </trkpt>
      <trkpt lat="44.89781" lon="6.65883">
        <ele>1470.5</ele>
        <time>2020-08-20T08:03:50Z</time>
      </trkpt>
      <trkpt lat="44.89774" lon="6.65875">
        <ele>1470.9</ele>
        <time>2020-08-20T08:03:58Z</time>
      </trkpt>
      <trkpt lat="44.89766" lon="6.65866">
        <ele>1471.1</ele>
        <time>2020-08-20T08:04:06Z</time>
      </trkpt>
      <trkpt lat="44.89759" lon="6.65856">
        <ele>1471.4</ele>
        <time>2020-08-20T08:04:14Z</time>
      </trkpt>
      <trkpt lat="44.89754" lon="6.65845">
        <ele>1471.5</ele>
        <time>2020-08-20T08:04:21Z</time>
      </trkpt>
      <trkpt lat="44.89751" lon="6.65832">
        <ele>1471.2</ele>
        <time>2020-08-20T08:04:31Z</time>
      </trkpt>
      <trkpt lat="44.89747" lon="6.6582">
        <ele>1470.6</ele>
        <time>2020-08-20T08:04:39Z</time>
      </trkpt>
      <trkpt lat="44.89742" lon="6.65809">
        <ele>1469.9</ele>
        <time>2020-08-20T08:04:47Z</time>
      </trkpt>
      <trkpt lat="44.89733" lon="6.65801">
        <ele>1468.9</ele>
        <time>2020-08-20T08:04:56Z</time>
      </trkpt>
      <trkpt lat="44.89724" lon="6.65794">
        <ele>1468.1</ele>
        <time>2020-08-20T08:05:03Z</time>
      </trkpt>
      <trkpt lat="44.89715" lon="6.6579">
        <ele>1467.4</ele>
        <time>2020-08-20T08:05:10Z</time>
      </trkpt>
      <trkpt lat="44.89705" lon="6.65788">
        <ele>1466.6</ele>
        <time>2020-08-20T08:05:18Z</time>
      </trkpt>
      <trkpt lat="44.89697" lon="6.65781">
        <ele>1466.1</ele>
        <time>2020-08-20T08:05:24Z</time>
      </trkpt>
      <trkpt lat="44.89688" lon="6.65775">
        <ele>1465.3</ele>
        <time>2020-08-20T08:05:32Z</time>
      </trkpt>
      <trkpt lat="44.8968" lon="6.65766">
        <ele>1464.6</ele>
        <time>2020-08-20T08:05:40Z</time>
      </trkpt>
      <trkpt lat="44.89673" lon="6.65758">
        <ele>1463.8</ele>
        <time>2020-08-20T08:05:48Z</time>
      </trkpt>
      <trkpt lat="44.89664" lon="6.65751">
        <ele>1463.1</ele>
        <time>2020-08-20T08:05:56Z</time>
      </trkpt>
      <trkpt lat="44.89655" lon="6.65747">
        <ele>1462.6</ele>
        <time>2020-08-20T08:06:03Z</time>
      </trkpt>
      <trkpt lat="44.89646" lon="6.65745">
        <ele>1461.9</ele>
        <time>2020-08-20T08:06:11Z</time>
      </trkpt>
      <trkpt lat="44.89636" lon="6.65743">
        <ele>1461.5</ele>
        <time>2020-08-20T08:06:18Z</time>
      </trkpt>
      <trkpt lat="44.89626" lon="6.65745">
        <ele>1461.2</ele>
        <time>2020-08-20T08:06:24Z</time>
      </trkpt>
      <trkpt lat="44.89617" lon="6.65745">
        <ele>1461</ele>
        <time>2020-08-20T08:06:30Z</time>
      </trkpt>
      <trkpt lat="44.89608" lon="6.65745">
        <ele>1460.8</ele>
        <time>2020-08-20T08:06:40Z</time>
      </trkpt>
      <trkpt lat="44.89598" lon="6.65745">
        <ele>1460.6</ele>
        <time>2020-08-20T08:06:48Z</time>
      </trkpt>
      <trkpt lat="44.89589" lon="6.6574">
        <ele>1460.6</ele>
        <time>2020-08-20T08:06:55Z</time>
      </trkpt>
      <trkpt lat="44.89581" lon="6.65735">
        <ele>1460.6</ele>
        <time>2020-08-20T08:07:02Z</time>
      </trkpt>
      <trkpt lat="44.89572" lon="6.65726">
        <ele>1460.7</ele>
        <time>2020-08-20T08:07:08Z</time>
      </trkpt>
      <trkpt lat="44.89565" lon="6.65717">
        <ele>1460.7</ele>
        <time>2020-08-20T08:07:15Z</time>
      </trkpt>
      <trkpt lat="44.89557" lon="6.6571">
        <ele>1460.8</ele>
        <time>2020-08-20T08:07:22Z</time>
      </trkpt>
      <trkpt lat="44.89549" lon="6.65704">
        <ele>1460.9</ele>
        <time>2020-08-20T08:07:29Z</time>
      </trkpt>
      <trkpt lat="44.89542" lon="6.65694">
        <ele>1461.1</ele>
        <time>2020-08-20T08:07:38Z</time>
      </trkpt>
      <trkpt lat="44.89538" lon="6.65682">
        <ele>1461</ele>
        <time>2020-08-20T08:07:46Z</time>
      </trkpt>
      <trkpt lat="44.89536" lon="6.65669">
        <ele>1460.6</ele>
        <time>2020-08-20T08:07:53Z</time>
      </trkpt>
      <trkpt lat="44.89535" lon="6.65655">
        <ele>1460.1</ele>
        <time>2020-08-20T08:07:59Z</time>
      </trkpt>
      <trkpt lat="44.89536" lon="6.65641">
        <ele>1459.3</ele>
        <time>2020-08-20T08:08:06Z</time>
      </trkpt>
      <trkpt lat="44.89532" lon="6.65627">
        <ele>1458.1</ele>
        <time>2020-08-20T08:08:14Z</time>
      </trkpt>
      <trkpt lat="44.89527" lon="6.65615">
        <ele>1457.2</ele>
        <time>2020-08-20T08:08:21Z</time>
      </trkpt>
      <trkpt lat="44.89521" lon="6.65603">
        <ele>1456.3</ele>
        <time>2020-08-20T08:08:29Z</time>
      </trkpt>
      <trkpt lat="44.89515" lon="6.65592">
        <ele>1455.7</ele>
        <time>2020-08-20T08:08:36Z</time>
      </trkpt>
      <trkpt lat="44.8951" lon="6.65579">
        <ele>1455.1</ele>
        <time>2020-08-20T08:08:43Z</time>
      </trkpt>
      <trkpt lat="44.89506" lon="6.65567">
        <ele>1454.6</ele>
        <time>2020-08-20T08:08:50Z</time>
      </trkpt>
      <trkpt lat="44.89503" lon="6.65554">
        <ele>1454.3</ele>
        <time>2020-08-20T08:08:56Z</time>
      </trkpt>
      <trkpt lat="44.89501" lon="6.65541">
        <ele>1454.1</ele>
        <time>2020-08-20T08:09:01Z</time>
      </trkpt>
      <trkpt lat="44.89498" lon="6.65527">
        <ele>1453.7</ele>
        <time>2020-08-20T08:09:10Z</time>
      </trkpt>
      <trkpt lat="44.89497" lon="6.65515">
        <ele>1453.4</ele>
        <time>2020-08-20T08:09:16Z</time>
      </trkpt>
      <trkpt lat="44.89492" lon="6.65503">
        <ele>1453.2</ele>
        <time>2020-08-20T08:09:22Z</time>
      </trkpt>
      <trkpt lat="44.89486" lon="6.65493">
        <ele>1453.1</ele>
        <time>2020-08-20T08:09:29Z</time>
      </trkpt>
      <trkpt lat="44.89481" lon="6.6548">
        <ele>1453.3</ele>
        <time>2020-08-20T08:09:36Z</time>
      </trkpt>
      <trkpt lat="44.89472" lon="6.65481">
        <ele>1453.7</ele>
        <time>2020-08-20T08:09:43Z</time>
      </trkpt>
      <trkpt lat="44.89467" lon="6.65492">
        <ele>1454.1</ele>
        <time>2020-08-20T08:09:50Z</time>
      </trkpt>
      <trkpt lat="44.89466" lon="6.65505">
        <ele>1454.4</ele>
        <time>2020-08-20T08:09:56Z</time>
      </trkpt>
      <trkpt lat="44.89466" lon="6.6552">
        <ele>1454.8</ele>
        <time>2020-08-20T08:10:02Z</time>
      </trkpt>
      <trkpt lat="44.89468" lon="6.65532">
        <ele>1455.3</ele>
        <time>2020-08-20T08:10:08Z</time>
      </trkpt>
      <trkpt lat="44.89467" lon="6.65546">
        <ele>1455.9</ele>
        <time>2020-08-20T08:10:15Z</time>
      </trkpt>
      <trkpt lat="44.89467" lon="6.6556">
        <ele>1456.5</ele>
        <time>2020-08-20T08:10:22Z</time>
      </trkpt>
      <trkpt lat="44.89464" lon="6.65573">
        <ele>1457.5</ele>
        <time>2020-08-20T08:10:30Z</time>
      </trkpt>
      <trkpt lat="44.89458" lon="6.65585">
        <ele>1458.7</ele>
        <time>2020-08-20T08:10:38Z</time>
      </trkpt>
      <trkpt lat="44.8945" lon="6.65592">
        <ele>1460.2</ele>
        <time>2020-08-20T08:10:46Z</time>
      </trkpt>
      <trkpt lat="44.89442" lon="6.65597">
        <ele>1461.9</ele>
        <time>2020-08-20T08:10:55Z</time>
      </trkpt>
      <trkpt lat="44.89434" lon="6.65605">
        <ele>1463.4</ele>
        <time>2020-08-20T08:11:03Z</time>
      </trkpt>
      <trkpt lat="44.89426" lon="6.65611">
        <ele>1465.6</ele>
        <time>2020-08-20T08:11:13Z</time>
      </trkpt>
      <trkpt lat="44.89421" lon="6.65623">
        <ele>1467.4</ele>
        <time>2020-08-20T08:11:21Z</time>
      </trkpt>
      <trkpt lat="44.89424" lon="6.65635">
        <ele>1469.1</ele>
        <time>2020-08-20T08:11:28Z</time>
      </trkpt>
      <trkpt lat="44.89432" lon="6.65644">
        <ele>1470.3</ele>
        <time>2020-08-20T08:11:34Z</time>
      </trkpt>
      <trkpt lat="44.89438" lon="6.65655">
        <ele>1472.1</ele>
        <time>2020-08-20T08:11:43Z</time>
      </trkpt>
      <trkpt lat="44.89441" lon="6.65667">
        <ele>1473.4</ele>
        <time>2020-08-20T08:11:50Z</time>
      </trkpt>
      <trkpt lat="44.89442" lon="6.65681">
        <ele>1475</ele>
        <time>2020-08-20T08:11:59Z</time>
      </trkpt>
      <trkpt lat="44.89444" lon="6.65694">
        <ele>1476.8</ele>
        <time>2020-08-20T08:12:09Z</time>
      </trkpt>
      <trkpt lat="44.89447" lon="6.65707">
        <ele>1478.2</ele>
        <time>2020-08-20T08:12:18Z</time>
      </trkpt>
      <trkpt lat="44.89453" lon="6.65717">
        <ele>1479.3</ele>
        <time>2020-08-20T08:12:26Z</time>
      </trkpt>
      <trkpt lat="44.89458" lon="6.65729">
        <ele>1480.5</ele>
        <time>2020-08-20T08:12:34Z</time>
      </trkpt>
      <trkpt lat="44.89452" lon="6.65739">
        <ele>1482.1</ele>
        <time>2020-08-20T08:12:43Z</time>
      </trkpt>
      <trkpt lat="44.89443" lon="6.65734">
        <ele>1483.5</ele>
        <time>2020-08-20T08:12:51Z</time>
      </trkpt>
      <trkpt lat="44.89433" lon="6.65735">
        <ele>1485.3</ele>
        <time>2020-08-20T08:13:03Z</time>
      </trkpt>
      <trkpt lat="44.89424" lon="6.65731">
        <ele>1486.3</ele>
        <time>2020-08-20T08:13:10Z</time>
      </trkpt>
      <trkpt lat="44.89414" lon="6.65728">
        <ele>1487.6</ele>
        <time>2020-08-20T08:13:19Z</time>
      </trkpt>
      <trkpt lat="44.89405" lon="6.65727">
        <ele>1488.7</ele>
        <time>2020-08-20T08:13:27Z</time>
      </trkpt>
      <trkpt lat="44.89396" lon="6.65726">
        <ele>1489.7</ele>
        <time>2020-08-20T08:13:33Z</time>
      </trkpt>
      <trkpt lat="44.89387" lon="6.65722">
        <ele>1491</ele>
        <time>2020-08-20T08:13:42Z</time>
      </trkpt>
      <trkpt lat="44.89379" lon="6.65717">
        <ele>1492.1</ele>
        <time>2020-08-20T08:13:50Z</time>
      </trkpt>
      <trkpt lat="44.89369" lon="6.65715">
        <ele>1493.2</ele>
        <time>2020-08-20T08:13:59Z</time>
      </trkpt>
      <trkpt lat="44.89361" lon="6.65709">
        <ele>1493.8</ele>
        <time>2020-08-20T08:14:03Z</time>
      </trkpt>
      <trkpt lat="44.89354" lon="6.657">
        <ele>1495.4</ele>
        <time>2020-08-20T08:14:12Z</time>
      </trkpt>
      <trkpt lat="44.89346" lon="6.65694">
        <ele>1496.7</ele>
        <time>2020-08-20T08:14:21Z</time>
      </trkpt>
      <trkpt lat="44.89337" lon="6.65688">
        <ele>1498.3</ele>
        <time>2020-08-20T08:14:32Z</time>
      </trkpt>
      <trkpt lat="44.89328" lon="6.65683">
        <ele>1499.5</ele>
        <time>2020-08-20T08:14:40Z</time>
      </trkpt>
      <trkpt lat="44.8932" lon="6.65679">
        <ele>1500.5</ele>
        <time>2020-08-20T08:14:47Z</time>
      </trkpt>
      <trkpt lat="44.89311" lon="6.65676">
        <ele>1501.8</ele>
        <time>2020-08-20T08:14:55Z</time>
      </trkpt>
      <trkpt lat="44.89302" lon="6.65669">
        <ele>1503.4</ele>
        <time>2020-08-20T08:15:04Z</time>
      </trkpt>
      <trkpt lat="44.89294" lon="6.65663">
        <ele>1504.1</ele>
        <time>2020-08-20T08:15:08Z</time>
      </trkpt>
      <trkpt lat="44.89286" lon="6.65657">
        <ele>1505</ele>
        <time>2020-08-20T08:15:14Z</time>
      </trkpt>
      <trkpt lat="44.89278" lon="6.6565">
        <ele>1506.1</ele>
        <time>2020-08-20T08:15:22Z</time>
      </trkpt>
      <trkpt lat="44.8927" lon="6.65646">
        <ele>1507.5</ele>
        <time>2020-08-20T08:15:30Z</time>
      </trkpt>
      <trkpt lat="44.89261" lon="6.65642">
        <ele>1508.9</ele>
        <time>2020-08-20T08:15:38Z</time>
      </trkpt>
      <trkpt lat="44.89252" lon="6.65638">
        <ele>1510.1</ele>
        <time>2020-08-20T08:15:46Z</time>
      </trkpt>
      <trkpt lat="44.89244" lon="6.65631">
        <ele>1511.4</ele>
        <time>2020-08-20T08:15:54Z</time>
      </trkpt>
      <trkpt lat="44.89236" lon="6.65625">
        <ele>1512.4</ele>
        <time>2020-08-20T08:16:01Z</time>
      </trkpt>
      <trkpt lat="44.8923" lon="6.65614">
        <ele>1513.8</ele>
        <time>2020-08-20T08:16:10Z</time>
      </trkpt>
      <trkpt lat="44.89222" lon="6.65607">
        <ele>1515.2</ele>
        <time>2020-08-20T08:16:18Z</time>
      </trkpt>
      <trkpt lat="44.89215" lon="6.656">
        <ele>1516.5</ele>
        <time>2020-08-20T08:16:26Z</time>
      </trkpt>
      <trkpt lat="44.89208" lon="6.6559">
        <ele>1517.7</ele>
        <time>2020-08-20T08:16:34Z</time>
      </trkpt>
      <trkpt lat="44.892" lon="6.65582">
        <ele>1518.8</ele>
        <time>2020-08-20T08:16:41Z</time>
      </trkpt>
      <trkpt lat="44.89191" lon="6.65578">
        <ele>1520.2</ele>
        <time>2020-08-20T08:16:50Z</time>
      </trkpt>
      <trkpt lat="44.89182" lon="6.65575">
        <ele>1521.1</ele>
        <time>2020-08-20T08:16:57Z</time>
      </trkpt>
      <trkpt lat="44.89172" lon="6.65572">
        <ele>1522.4</ele>
        <time>2020-08-20T08:17:05Z</time>
      </trkpt>
      <trkpt lat="44.89167" lon="6.65561">
        <ele>1523.6</ele>
        <time>2020-08-20T08:17:12Z</time>
      </trkpt>
      <trkpt lat="44.89162" lon="6.6555">
        <ele>1524.7</ele>
        <time>2020-08-20T08:17:19Z</time>
      </trkpt>
      <trkpt lat="44.89155" lon="6.65541">
        <ele>1526.3</ele>
        <time>2020-08-20T08:17:29Z</time>
      </trkpt>
      <trkpt lat="44.89148" lon="6.65532">
        <ele>1527.8</ele>
        <time>2020-08-20T08:17:38Z</time>
      </trkpt>
      <trkpt lat="44.89143" lon="6.65521">
        <ele>1529.3</ele>
        <time>2020-08-20T08:17:49Z</time>
      </trkpt>
      <trkpt lat="44.89138" lon="6.65509">
        <ele>1530.5</ele>
        <time>2020-08-20T08:17:57Z</time>
      </trkpt>
      <trkpt lat="44.89132" lon="6.655">
        <ele>1531.9</ele>
        <time>2020-08-20T08:18:06Z</time>
      </trkpt>
      <trkpt lat="44.89122" lon="6.655">
        <ele>1533.4</ele>
        <time>2020-08-20T08:18:15Z</time>
      </trkpt>
      <trkpt lat="44.89113" lon="6.65499">
        <ele>1534.8</ele>
        <time>2020-08-20T08:18:24Z</time>
      </trkpt>
      <trkpt lat="44.89105" lon="6.65491">
        <ele>1536.3</ele>
        <time>2020-08-20T08:18:33Z</time>
      </trkpt>
      <trkpt lat="44.89098" lon="6.65482">
        <ele>1537.4</ele>
        <time>2020-08-20T08:18:40Z</time>
      </trkpt>
      <trkpt lat="44.89092" lon="6.65471">
        <ele>1538.5</ele>
        <time>2020-08-20T08:18:48Z</time>
      </trkpt>
      <trkpt lat="44.89085" lon="6.65462">
        <ele>1539.6</ele>
        <time>2020-08-20T08:18:55Z</time>
      </trkpt>
      <trkpt lat="44.89081" lon="6.6545">
        <ele>1541.3</ele>
        <time>2020-08-20T08:19:05Z</time>
      </trkpt>
      <trkpt lat="44.89074" lon="6.6544">
        <ele>1542.8</ele>
        <time>2020-08-20T08:19:15Z</time>
      </trkpt>
      <trkpt lat="44.89077" lon="6.65453">
        <ele>1544.2</ele>
        <time>2020-08-20T08:19:24Z</time>
      </trkpt>
      <trkpt lat="44.89081" lon="6.65465">
        <ele>1545.3</ele>
        <time>2020-08-20T08:19:31Z</time>
      </trkpt>
      <trkpt lat="44.89085" lon="6.65478">
        <ele>1546.3</ele>
        <time>2020-08-20T08:19:38Z</time>
      </trkpt>
      <trkpt lat="44.89091" lon="6.6549">
        <ele>1547.3</ele>
        <time>2020-08-20T08:19:45Z</time>
      </trkpt>
      <trkpt lat="44.89094" lon="6.65501">
        <ele>1548.3</ele>
        <time>2020-08-20T08:19:52Z</time>
      </trkpt>
      <trkpt lat="44.891" lon="6.65511">
        <ele>1549.4</ele>
        <time>2020-08-20T08:19:58Z</time>
      </trkpt>
      <trkpt lat="44.89105" lon="6.65523">
        <ele>1551.1</ele>
        <time>2020-08-20T08:20:07Z</time>
      </trkpt>
      <trkpt lat="44.89112" lon="6.65531">
        <ele>1552.7</ele>
        <time>2020-08-20T08:20:16Z</time>
      </trkpt>
      <trkpt lat="44.89121" lon="6.6554">
        <ele>1554.1</ele>
        <time>2020-08-20T08:20:24Z</time>
      </trkpt>
      <trkpt lat="44.89128" lon="6.65549">
        <ele>1555.1</ele>
        <time>2020-08-20T08:20:30Z</time>
      </trkpt>
      <trkpt lat="44.89133" lon="6.65561">
        <ele>1556.4</ele>
        <time>2020-08-20T08:20:38Z</time>
      </trkpt>
      <trkpt lat="44.89136" lon="6.65574">
        <ele>1558</ele>
        <time>2020-08-20T08:20:47Z</time>
      </trkpt>
      <trkpt lat="44.89142" lon="6.65586">
        <ele>1559.4</ele>
        <time>2020-08-20T08:20:55Z</time>
      </trkpt>
      <trkpt lat="44.89145" lon="6.65599">
        <ele>1561</ele>
        <time>2020-08-20T08:21:05Z</time>
      </trkpt>
      <trkpt lat="44.8915" lon="6.6561">
        <ele>1562.6</ele>
        <time>2020-08-20T08:21:15Z</time>
      </trkpt>
      <trkpt lat="44.89159" lon="6.65615">
        <ele>1563.8</ele>
        <time>2020-08-20T08:21:23Z</time>
      </trkpt>
      <trkpt lat="44.89169" lon="6.6562">
        <ele>1565.1</ele>
        <time>2020-08-20T08:21:31Z</time>
      </trkpt>
      <trkpt lat="44.89176" lon="6.65629">
        <ele>1566</ele>
        <time>2020-08-20T08:21:37Z</time>
      </trkpt>
      <trkpt lat="44.89181" lon="6.65641">
        <ele>1567.4</ele>
        <time>2020-08-20T08:21:46Z</time>
      </trkpt>
      <trkpt lat="44.89187" lon="6.65652">
        <ele>1568.6</ele>
        <time>2020-08-20T08:21:54Z</time>
      </trkpt>
      <trkpt lat="44.89192" lon="6.65664">
        <ele>1570.1</ele>
        <time>2020-08-20T08:22:03Z</time>
      </trkpt>
      <trkpt lat="44.89199" lon="6.65675">
        <ele>1571.8</ele>
        <time>2020-08-20T08:22:14Z</time>
      </trkpt>
      <trkpt lat="44.89201" lon="6.65688">
        <ele>1573</ele>
        <time>2020-08-20T08:22:22Z</time>
      </trkpt>
      <trkpt lat="44.89202" lon="6.65702">
        <ele>1574.4</ele>
        <time>2020-08-20T08:22:32Z</time>
      </trkpt>
      <trkpt lat="44.89199" lon="6.65714">
        <ele>1575.7</ele>
        <time>2020-08-20T08:22:41Z</time>
      </trkpt>
      <trkpt lat="44.89189" lon="6.65714">
        <ele>1576.5</ele>
        <time>2020-08-20T08:22:47Z</time>
      </trkpt>
      <trkpt lat="44.89187" lon="6.65702">
        <ele>1577.9</ele>
        <time>2020-08-20T08:22:56Z</time>
      </trkpt>
      <trkpt lat="44.89186" lon="6.65689">
        <ele>1579</ele>
        <time>2020-08-20T08:23:04Z</time>
      </trkpt>
      <trkpt lat="44.8918" lon="6.6568">
        <ele>1579.7</ele>
        <time>2020-08-20T08:23:09Z</time>
      </trkpt>
      <trkpt lat="44.89173" lon="6.65672">
        <ele>1580.6</ele>
        <time>2020-08-20T08:23:15Z</time>
      </trkpt>
      <trkpt lat="44.89165" lon="6.65663">
        <ele>1582</ele>
        <time>2020-08-20T08:23:24Z</time>
      </trkpt>
      <trkpt lat="44.89157" lon="6.65655">
        <ele>1583.5</ele>
        <time>2020-08-20T08:23:33Z</time>
      </trkpt>
      <trkpt lat="44.89148" lon="6.65651">
        <ele>1584.9</ele>
        <time>2020-08-20T08:23:41Z</time>
      </trkpt>
      <trkpt lat="44.89139" lon="6.65646">
        <ele>1586.2</ele>
        <time>2020-08-20T08:23:50Z</time>
      </trkpt>
      <trkpt lat="44.8913" lon="6.65647">
        <ele>1587.4</ele>
        <time>2020-08-20T08:23:58Z</time>
      </trkpt>
      <trkpt lat="44.8912" lon="6.65648">
        <ele>1588.6</ele>
        <time>2020-08-20T08:24:06Z</time>
      </trkpt>
      <trkpt lat="44.89112" lon="6.65656">
        <ele>1589.3</ele>
        <time>2020-08-20T08:24:11Z</time>
      </trkpt>
      <trkpt lat="44.89102" lon="6.6566">
        <ele>1590.4</ele>
        <time>2020-08-20T08:24:18Z</time>
      </trkpt>
      <trkpt lat="44.89094" lon="6.65666">
        <ele>1592.1</ele>
        <time>2020-08-20T08:24:29Z</time>
      </trkpt>
      <trkpt lat="44.89085" lon="6.65673">
        <ele>1593.4</ele>
        <time>2020-08-20T08:24:38Z</time>
      </trkpt>
      <trkpt lat="44.89077" lon="6.65679">
        <ele>1594.6</ele>
        <time>2020-08-20T08:24:46Z</time>
      </trkpt>
      <trkpt lat="44.89068" lon="6.65687">
        <ele>1596.2</ele>
        <time>2020-08-20T08:24:56Z</time>
      </trkpt>
      <trkpt lat="44.8906" lon="6.65689">
        <ele>1597.7</ele>
        <time>2020-08-20T08:25:05Z</time>
      </trkpt>
      <trkpt lat="44.8905" lon="6.65691">
        <ele>1598.8</ele>
        <time>2020-08-20T08:25:13Z</time>
      </trkpt>
      <trkpt lat="44.89042" lon="6.65685">
        <ele>1600</ele>
        <time>2020-08-20T08:25:22Z</time>
      </trkpt>
      <trkpt lat="44.89037" lon="6.65673">
        <ele>1601.2</ele>
        <time>2020-08-20T08:25:31Z</time>
      </trkpt>
      <trkpt lat="44.89037" lon="6.6566">
        <ele>1602.4</ele>
        <time>2020-08-20T08:25:40Z</time>
      </trkpt>
      <trkpt lat="44.89035" lon="6.65648">
        <ele>1603.4</ele>
        <time>2020-08-20T08:25:47Z</time>
      </trkpt>
      <trkpt lat="44.89033" lon="6.65635">
        <ele>1604.4</ele>
        <time>2020-08-20T08:25:54Z</time>
      </trkpt>
      <trkpt lat="44.89034" lon="6.65622">
        <ele>1605.3</ele>
        <time>2020-08-20T08:26:01Z</time>
      </trkpt>
      <trkpt lat="44.89035" lon="6.65609">
        <ele>1606.2</ele>
        <time>2020-08-20T08:26:08Z</time>
      </trkpt>
      <trkpt lat="44.89036" lon="6.65596">
        <ele>1606.7</ele>
        <time>2020-08-20T08:26:13Z</time>
      </trkpt>
      <trkpt lat="44.89037" lon="6.65583">
        <ele>1607.1</ele>
        <time>2020-08-20T08:26:21Z</time>
      </trkpt>
      <trkpt lat="44.89036" lon="6.65598">
        <ele>1607.9</ele>
        <time>2020-08-20T08:26:55Z</time>
      </trkpt>
      <trkpt lat="44.89028" lon="6.65605">
        <ele>1608.1</ele>
        <time>2020-08-20T08:27:02Z</time>
      </trkpt>
      <trkpt lat="44.8902" lon="6.65613">
        <ele>1609.3</ele>
        <time>2020-08-20T08:34:24Z</time>
      </trkpt>
      <trkpt lat="44.89011" lon="6.6562">
        <ele>1609.9</ele>
        <time>2020-08-20T08:34:31Z</time>
      </trkpt>
      <trkpt lat="44.89001" lon="6.65622">
        <ele>1610.8</ele>
        <time>2020-08-20T08:34:39Z</time>
      </trkpt>
      <trkpt lat="44.89002" lon="6.65635">
        <ele>1612.4</ele>
        <time>2020-08-20T08:34:52Z</time>
      </trkpt>
      <trkpt lat="44.89012" lon="6.65639">
        <ele>1613.7</ele>
        <time>2020-08-20T08:35:02Z</time>
      </trkpt>
      <trkpt lat="44.8902" lon="6.65646">
        <ele>1614.7</ele>
        <time>2020-08-20T08:35:10Z</time>
      </trkpt>
      <trkpt lat="44.89025" lon="6.65658">
        <ele>1615.5</ele>
        <time>2020-08-20T08:35:16Z</time>
      </trkpt>
      <trkpt lat="44.89026" lon="6.65671">
        <ele>1616.2</ele>
        <time>2020-08-20T08:35:21Z</time>
      </trkpt>
      <trkpt lat="44.89024" lon="6.65684">
        <ele>1617.3</ele>
        <time>2020-08-20T08:35:30Z</time>
      </trkpt>
      <trkpt lat="44.89018" lon="6.65694">
        <ele>1618.4</ele>
        <time>2020-08-20T08:35:39Z</time>
      </trkpt>
      <trkpt lat="44.89013" lon="6.65705">
        <ele>1619.4</ele>
        <time>2020-08-20T08:35:47Z</time>
      </trkpt>
      <trkpt lat="44.89011" lon="6.65718">
        <ele>1620.2</ele>
        <time>2020-08-20T08:35:53Z</time>
      </trkpt>
      <trkpt lat="44.89013" lon="6.65731">
        <ele>1621.4</ele>
        <time>2020-08-20T08:36:01Z</time>
      </trkpt>
      <trkpt lat="44.89016" lon="6.65744">
        <ele>1622.6</ele>
        <time>2020-08-20T08:36:08Z</time>
      </trkpt>
      <trkpt lat="44.89018" lon="6.65758">
        <ele>1623.7</ele>
        <time>2020-08-20T08:36:15Z</time>
      </trkpt>
      <trkpt lat="44.89016" lon="6.65771">
        <ele>1624.8</ele>
        <time>2020-08-20T08:36:23Z</time>
      </trkpt>
      <trkpt lat="44.89019" lon="6.65783">
        <ele>1626.2</ele>
        <time>2020-08-20T08:36:32Z</time>
      </trkpt>
      <trkpt lat="44.89027" lon="6.65788">
        <ele>1627.8</ele>
        <time>2020-08-20T08:36:45Z</time>
      </trkpt>
      <trkpt lat="44.89038" lon="6.65791">
        <ele>1629.2</ele>
        <time>2020-08-20T08:36:54Z</time>
      </trkpt>
      <trkpt lat="44.89048" lon="6.65792">
        <ele>1630.2</ele>
        <time>2020-08-20T08:37:01Z</time>
      </trkpt>
      <trkpt lat="44.89057" lon="6.65789">
        <ele>1631.5</ele>
        <time>2020-08-20T08:37:09Z</time>
      </trkpt>
      <trkpt lat="44.89066" lon="6.65787">
        <ele>1633</ele>
        <time>2020-08-20T08:37:20Z</time>
      </trkpt>
      <trkpt lat="44.89078" lon="6.65794">
        <ele>1633.9</ele>
        <time>2020-08-20T08:37:27Z</time>
      </trkpt>
      <trkpt lat="44.89085" lon="6.65802">
        <ele>1634.6</ele>
        <time>2020-08-20T08:37:32Z</time>
      </trkpt>
      <trkpt lat="44.89089" lon="6.65813">
        <ele>1635.7</ele>
        <time>2020-08-20T08:37:40Z</time>
      </trkpt>
      <trkpt lat="44.89092" lon="6.65826">
        <ele>1636.5</ele>
        <time>2020-08-20T08:37:47Z</time>
      </trkpt>
      <trkpt lat="44.89091" lon="6.6584">
        <ele>1637.6</ele>
        <time>2020-08-20T08:37:55Z</time>
      </trkpt>
      <trkpt lat="44.89091" lon="6.65855">
        <ele>1638.4</ele>
        <time>2020-08-20T08:38:02Z</time>
      </trkpt>
      <trkpt lat="44.89085" lon="6.65866">
        <ele>1639.7</ele>
        <time>2020-08-20T08:38:12Z</time>
      </trkpt>
      <trkpt lat="44.89083" lon="6.65879">
        <ele>1641.1</ele>
        <time>2020-08-20T08:38:22Z</time>
      </trkpt>
      <trkpt lat="44.89081" lon="6.65893">
        <ele>1642.3</ele>
        <time>2020-08-20T08:38:30Z</time>
      </trkpt>
      <trkpt lat="44.8908" lon="6.65906">
        <ele>1643.4</ele>
        <time>2020-08-20T08:38:37Z</time>
      </trkpt>
      <trkpt lat="44.89075" lon="6.65917">
        <ele>1644.8</ele>
        <time>2020-08-20T08:38:46Z</time>
      </trkpt>
      <trkpt lat="44.89074" lon="6.65936">
        <ele>1646.3</ele>
        <time>2020-08-20T08:38:58Z</time>
      </trkpt>
      <trkpt lat="44.89069" lon="6.65948">
        <ele>1647.1</ele>
        <time>2020-08-20T08:39:04Z</time>
      </trkpt>
      <trkpt lat="44.89072" lon="6.65962">
        <ele>1647.9</ele>
        <time>2020-08-20T08:39:10Z</time>
      </trkpt>
      <trkpt lat="44.89074" lon="6.65976">
        <ele>1648.9</ele>
        <time>2020-08-20T08:39:17Z</time>
      </trkpt>
      <trkpt lat="44.89079" lon="6.65987">
        <ele>1649.9</ele>
        <time>2020-08-20T08:39:25Z</time>
      </trkpt>
      <trkpt lat="44.89087" lon="6.65994">
        <ele>1650.7</ele>
        <time>2020-08-20T08:39:31Z</time>
      </trkpt>
      <trkpt lat="44.89096" lon="6.66">
        <ele>1651.7</ele>
        <time>2020-08-20T08:39:38Z</time>
      </trkpt>
      <trkpt lat="44.89104" lon="6.66004">
        <ele>1652.8</ele>
        <time>2020-08-20T08:39:45Z</time>
      </trkpt>
      <trkpt lat="44.89113" lon="6.66007">
        <ele>1654.1</ele>
        <time>2020-08-20T08:39:54Z</time>
      </trkpt>
      <trkpt lat="44.89124" lon="6.66005">
        <ele>1655</ele>
        <time>2020-08-20T08:40:00Z</time>
      </trkpt>
      <trkpt lat="44.89133" lon="6.66001">
        <ele>1655.8</ele>
        <time>2020-08-20T08:40:06Z</time>
      </trkpt>
      <trkpt lat="44.89143" lon="6.66005">
        <ele>1656.9</ele>
        <time>2020-08-20T08:40:15Z</time>
      </trkpt>
      <trkpt lat="44.89151" lon="6.66009">
        <ele>1658.1</ele>
        <time>2020-08-20T08:40:23Z</time>
      </trkpt>
      <trkpt lat="44.89159" lon="6.66016">
        <ele>1659.1</ele>
        <time>2020-08-20T08:40:31Z</time>
      </trkpt>
      <trkpt lat="44.89162" lon="6.66028">
        <ele>1660.2</ele>
        <time>2020-08-20T08:40:39Z</time>
      </trkpt>
      <trkpt lat="44.89158" lon="6.66041">
        <ele>1661.6</ele>
        <time>2020-08-20T08:40:49Z</time>
      </trkpt>
      <trkpt lat="44.89156" lon="6.66053">
        <ele>1662.6</ele>
        <time>2020-08-20T08:40:57Z</time>
      </trkpt>
      <trkpt lat="44.89155" lon="6.66068">
        <ele>1663.7</ele>
        <time>2020-08-20T08:41:05Z</time>
      </trkpt>
      <trkpt lat="44.89156" lon="6.66082">
        <ele>1664.6</ele>
        <time>2020-08-20T08:41:11Z</time>
      </trkpt>
      <trkpt lat="44.89154" lon="6.66094">
        <ele>1665.7</ele>
        <time>2020-08-20T08:41:19Z</time>
      </trkpt>
      <trkpt lat="44.89159" lon="6.66107">
        <ele>1666.7</ele>
        <time>2020-08-20T08:41:27Z</time>
      </trkpt>
      <trkpt lat="44.89168" lon="6.66113">
        <ele>1668.2</ele>
        <time>2020-08-20T08:41:37Z</time>
      </trkpt>
      <trkpt lat="44.89179" lon="6.66114">
        <ele>1669</ele>
        <time>2020-08-20T08:41:41Z</time>
      </trkpt>
      <trkpt lat="44.89189" lon="6.66116">
        <ele>1669.7</ele>
        <time>2020-08-20T08:41:45Z</time>
      </trkpt>
      <trkpt lat="44.89199" lon="6.66119">
        <ele>1671.1</ele>
        <time>2020-08-20T08:41:52Z</time>
      </trkpt>
      <trkpt lat="44.89208" lon="6.66119">
        <ele>1672.1</ele>
        <time>2020-08-20T08:41:58Z</time>
      </trkpt>
      <trkpt lat="44.89217" lon="6.66125">
        <ele>1673.2</ele>
        <time>2020-08-20T08:42:05Z</time>
      </trkpt>
      <trkpt lat="44.89221" lon="6.66137">
        <ele>1673.9</ele>
        <time>2020-08-20T08:42:10Z</time>
      </trkpt>
      <trkpt lat="44.89223" lon="6.66151">
        <ele>1674.9</ele>
        <time>2020-08-20T08:42:18Z</time>
      </trkpt>
      <trkpt lat="44.89214" lon="6.66149">
        <ele>1676.5</ele>
        <time>2020-08-20T08:42:31Z</time>
      </trkpt>
      <trkpt lat="44.89211" lon="6.66137">
        <ele>1677.3</ele>
        <time>2020-08-20T08:42:37Z</time>
      </trkpt>
      <trkpt lat="44.89202" lon="6.66129">
        <ele>1678.1</ele>
        <time>2020-08-20T08:42:43Z</time>
      </trkpt>
      <trkpt lat="44.89192" lon="6.66128">
        <ele>1679</ele>
        <time>2020-08-20T08:42:51Z</time>
      </trkpt>
      <trkpt lat="44.89183" lon="6.66128">
        <ele>1680</ele>
        <time>2020-08-20T08:42:59Z</time>
      </trkpt>
      <trkpt lat="44.89173" lon="6.66129">
        <ele>1680.7</ele>
        <time>2020-08-20T08:43:07Z</time>
      </trkpt>
      <trkpt lat="44.89165" lon="6.66133">
        <ele>1681.5</ele>
        <time>2020-08-20T08:43:14Z</time>
      </trkpt>
      <trkpt lat="44.89155" lon="6.66131">
        <ele>1682.1</ele>
        <time>2020-08-20T08:43:20Z</time>
      </trkpt>
      <trkpt lat="44.89146" lon="6.66127">
        <ele>1683.1</ele>
        <time>2020-08-20T08:43:28Z</time>
      </trkpt>
      <trkpt lat="44.89138" lon="6.66117">
        <ele>1684.2</ele>
        <time>2020-08-20T08:43:36Z</time>
      </trkpt>
      <trkpt lat="44.89135" lon="6.66105">
        <ele>1685.4</ele>
        <time>2020-08-20T08:43:45Z</time>
      </trkpt>
      <trkpt lat="44.89131" lon="6.66093">
        <ele>1686.2</ele>
        <time>2020-08-20T08:43:53Z</time>
      </trkpt>
      <trkpt lat="44.89128" lon="6.66079">
        <ele>1686.9</ele>
        <time>2020-08-20T08:44:01Z</time>
      </trkpt>
      <trkpt lat="44.8912" lon="6.66072">
        <ele>1687.6</ele>
        <time>2020-08-20T08:44:07Z</time>
      </trkpt>
      <trkpt lat="44.8911" lon="6.66074">
        <ele>1688.3</ele>
        <time>2020-08-20T08:44:13Z</time>
      </trkpt>
      <trkpt lat="44.89102" lon="6.6608">
        <ele>1689.1</ele>
        <time>2020-08-20T08:44:19Z</time>
      </trkpt>
      <trkpt lat="44.89095" lon="6.66089">
        <ele>1690</ele>
        <time>2020-08-20T08:44:26Z</time>
      </trkpt>
      <trkpt lat="44.89088" lon="6.66099">
        <ele>1690.8</ele>
        <time>2020-08-20T08:44:34Z</time>
      </trkpt>
      <trkpt lat="44.8908" lon="6.66106">
        <ele>1691.7</ele>
        <time>2020-08-20T08:44:42Z</time>
      </trkpt>
      <trkpt lat="44.89072" lon="6.66114">
        <ele>1692.7</ele>
        <time>2020-08-20T08:44:49Z</time>
      </trkpt>
      <trkpt lat="44.89064" lon="6.66121">
        <ele>1693.5</ele>
        <time>2020-08-20T08:44:56Z</time>
      </trkpt>
      <trkpt lat="44.89055" lon="6.66128">
        <ele>1694.5</ele>
        <time>2020-08-20T08:45:05Z</time>
      </trkpt>
      <trkpt lat="44.89045" lon="6.6613">
        <ele>1695.4</ele>
        <time>2020-08-20T08:45:13Z</time>
      </trkpt>
      <trkpt lat="44.89036" lon="6.6613">
        <ele>1696.2</ele>
        <time>2020-08-20T08:45:20Z</time>
      </trkpt>
      <trkpt lat="44.89027" lon="6.66125">
        <ele>1696.8</ele>
        <time>2020-08-20T08:45:26Z</time>
      </trkpt>
      <trkpt lat="44.89019" lon="6.66118">
        <ele>1697.4</ele>
        <time>2020-08-20T08:45:33Z</time>
      </trkpt>
      <trkpt lat="44.89011" lon="6.66113">
        <ele>1698.1</ele>
        <time>2020-08-20T08:45:40Z</time>
      </trkpt>
      <trkpt lat="44.89002" lon="6.66106">
        <ele>1698.8</ele>
        <time>2020-08-20T08:45:48Z</time>
      </trkpt>
      <trkpt lat="44.88996" lon="6.66095">
        <ele>1699.5</ele>
        <time>2020-08-20T08:45:56Z</time>
      </trkpt>
      <trkpt lat="44.88991" lon="6.66082">
        <ele>1700.2</ele>
        <time>2020-08-20T08:46:05Z</time>
      </trkpt>
      <trkpt lat="44.88992" lon="6.66069">
        <ele>1700.8</ele>
        <time>2020-08-20T08:46:12Z</time>
      </trkpt>
      <trkpt lat="44.88998" lon="6.66059">
        <ele>1701.3</ele>
        <time>2020-08-20T08:46:20Z</time>
      </trkpt>
      <trkpt lat="44.89001" lon="6.66045">
        <ele>1702</ele>
        <time>2020-08-20T08:46:29Z</time>
      </trkpt>
      <trkpt lat="44.88999" lon="6.66032">
        <ele>1702.4</ele>
        <time>2020-08-20T08:46:36Z</time>
      </trkpt>
      <trkpt lat="44.88994" lon="6.66019">
        <ele>1702.8</ele>
        <time>2020-08-20T08:46:43Z</time>
      </trkpt>
      <trkpt lat="44.88987" lon="6.6601">
        <ele>1703.2</ele>
        <time>2020-08-20T08:46:50Z</time>
      </trkpt>
      <trkpt lat="44.88979" lon="6.66002">
        <ele>1703.5</ele>
        <time>2020-08-20T08:46:57Z</time>
      </trkpt>
      <trkpt lat="44.8897" lon="6.65997">
        <ele>1704.1</ele>
        <time>2020-08-20T08:47:05Z</time>
      </trkpt>
      <trkpt lat="44.88962" lon="6.65991">
        <ele>1704.5</ele>
        <time>2020-08-20T08:47:11Z</time>
      </trkpt>
      <trkpt lat="44.88952" lon="6.65985">
        <ele>1705</ele>
        <time>2020-08-20T08:47:18Z</time>
      </trkpt>
      <trkpt lat="44.88944" lon="6.65978">
        <ele>1705.4</ele>
        <time>2020-08-20T08:47:25Z</time>
      </trkpt>
      <trkpt lat="44.88935" lon="6.65973">
        <ele>1706.2</ele>
        <time>2020-08-20T08:47:44Z</time>
      </trkpt>
      <trkpt lat="44.88945" lon="6.65979">
        <ele>1705.5</ele>
        <time>2020-08-20T08:49:56Z</time>
      </trkpt>
      <trkpt lat="44.88953" lon="6.65987">
        <ele>1705.4</ele>
        <time>2020-08-20T08:50:04Z</time>
      </trkpt>
      <trkpt lat="44.88961" lon="6.65994">
        <ele>1705.3</ele>
        <time>2020-08-20T08:50:12Z</time>
      </trkpt>
      <trkpt lat="44.8897" lon="6.66">
        <ele>1705.1</ele>
        <time>2020-08-20T08:50:21Z</time>
      </trkpt>
      <trkpt lat="44.88978" lon="6.66005">
        <ele>1704.7</ele>
        <time>2020-08-20T08:50:29Z</time>
      </trkpt>
      <trkpt lat="44.88987" lon="6.66013">
        <ele>1704.3</ele>
        <time>2020-08-20T08:50:36Z</time>
      </trkpt>
      <trkpt lat="44.88993" lon="6.66023">
        <ele>1703.7</ele>
        <time>2020-08-20T08:50:42Z</time>
      </trkpt>
      <trkpt lat="44.88998" lon="6.66035">
        <ele>1703.2</ele>
        <time>2020-08-20T08:50:49Z</time>
      </trkpt>
      <trkpt lat="44.89001" lon="6.66047">
        <ele>1702.7</ele>
        <time>2020-08-20T08:50:55Z</time>
      </trkpt>
      <trkpt lat="44.88999" lon="6.66061">
        <ele>1702.1</ele>
        <time>2020-08-20T08:51:02Z</time>
      </trkpt>
      <trkpt lat="44.88995" lon="6.66073">
        <ele>1701.6</ele>
        <time>2020-08-20T08:51:10Z</time>
      </trkpt>
      <trkpt lat="44.88992" lon="6.66086">
        <ele>1701</ele>
        <time>2020-08-20T08:51:18Z</time>
      </trkpt>
      <trkpt lat="44.88993" lon="6.66101">
        <ele>1700.6</ele>
        <time>2020-08-20T08:51:25Z</time>
      </trkpt>
      <trkpt lat="44.88995" lon="6.66113">
        <ele>1700.3</ele>
        <time>2020-08-20T08:51:32Z</time>
      </trkpt>
      <trkpt lat="44.89001" lon="6.66124">
        <ele>1700.3</ele>
        <time>2020-08-20T08:51:44Z</time>
      </trkpt>
      <trkpt lat="44.89009" lon="6.6613">
        <ele>1700.3</ele>
        <time>2020-08-20T08:51:52Z</time>
      </trkpt>
      <trkpt lat="44.89017" lon="6.66137">
        <ele>1700.5</ele>
        <time>2020-08-20T08:52:00Z</time>
      </trkpt>
      <trkpt lat="44.89025" lon="6.66145">
        <ele>1700.6</ele>
        <time>2020-08-20T08:52:07Z</time>
      </trkpt>
      <trkpt lat="44.89032" lon="6.66154">
        <ele>1700.8</ele>
        <time>2020-08-20T08:52:14Z</time>
      </trkpt>
      <trkpt lat="44.89041" lon="6.66158">
        <ele>1701.1</ele>
        <time>2020-08-20T08:52:21Z</time>
      </trkpt>
      <trkpt lat="44.8905" lon="6.66162">
        <ele>1701.6</ele>
        <time>2020-08-20T08:52:29Z</time>
      </trkpt>
      <trkpt lat="44.89059" lon="6.66161">
        <ele>1702.3</ele>
        <time>2020-08-20T08:52:37Z</time>
      </trkpt>
      <trkpt lat="44.89069" lon="6.66158">
        <ele>1702.9</ele>
        <time>2020-08-20T08:52:44Z</time>
      </trkpt>
      <trkpt lat="44.89076" lon="6.66151">
        <ele>1703.2</ele>
        <time>2020-08-20T08:52:50Z</time>
      </trkpt>
      <trkpt lat="44.89084" lon="6.66143">
        <ele>1703.6</ele>
        <time>2020-08-20T08:52:56Z</time>
      </trkpt>
      <trkpt lat="44.89094" lon="6.6614">
        <ele>1704.3</ele>
        <time>2020-08-20T08:53:05Z</time>
      </trkpt>
      <trkpt lat="44.89092" lon="6.66153">
        <ele>1706</ele>
        <time>2020-08-20T08:53:22Z</time>
      </trkpt>
      <trkpt lat="44.89086" lon="6.66162">
        <ele>1707</ele>
        <time>2020-08-20T08:53:29Z</time>
      </trkpt>
      <trkpt lat="44.89079" lon="6.6617">
        <ele>1708.4</ele>
        <time>2020-08-20T08:53:39Z</time>
      </trkpt>
      <trkpt lat="44.89073" lon="6.6618">
        <ele>1709.5</ele>
        <time>2020-08-20T08:53:47Z</time>
      </trkpt>
      <trkpt lat="44.89067" lon="6.66189">
        <ele>1710.8</ele>
        <time>2020-08-20T08:53:55Z</time>
      </trkpt>
      <trkpt lat="44.89059" lon="6.66196">
        <ele>1712</ele>
        <time>2020-08-20T08:54:02Z</time>
      </trkpt>
      <trkpt lat="44.89048" lon="6.662">
        <ele>1713.9</ele>
        <time>2020-08-20T08:54:14Z</time>
      </trkpt>
      <trkpt lat="44.89039" lon="6.66203">
        <ele>1714.6</ele>
        <time>2020-08-20T08:54:20Z</time>
      </trkpt>
      <trkpt lat="44.89029" lon="6.66202">
        <ele>1715.5</ele>
        <time>2020-08-20T08:54:27Z</time>
      </trkpt>
      <trkpt lat="44.8902" lon="6.662">
        <ele>1716.4</ele>
        <time>2020-08-20T08:54:34Z</time>
      </trkpt>
      <trkpt lat="44.89012" lon="6.66192">
        <ele>1717.7</ele>
        <time>2020-08-20T08:54:44Z</time>
      </trkpt>
      <trkpt lat="44.89004" lon="6.66184">
        <ele>1718.4</ele>
        <time>2020-08-20T08:54:52Z</time>
      </trkpt>
      <trkpt lat="44.88994" lon="6.66178">
        <ele>1719.4</ele>
        <time>2020-08-20T08:55:01Z</time>
      </trkpt>
      <trkpt lat="44.88986" lon="6.66175">
        <ele>1720.1</ele>
        <time>2020-08-20T08:55:08Z</time>
      </trkpt>
      <trkpt lat="44.88976" lon="6.66176">
        <ele>1721.4</ele>
        <time>2020-08-20T08:55:17Z</time>
      </trkpt>
      <trkpt lat="44.88967" lon="6.6617">
        <ele>1722.6</ele>
        <time>2020-08-20T08:55:29Z</time>
      </trkpt>
      <trkpt lat="44.88958" lon="6.66165">
        <ele>1723.3</ele>
        <time>2020-08-20T08:55:36Z</time>
      </trkpt>
      <trkpt lat="44.8895" lon="6.66159">
        <ele>1724</ele>
        <time>2020-08-20T08:55:43Z</time>
      </trkpt>
      <trkpt lat="44.88943" lon="6.66151">
        <ele>1725.1</ele>
        <time>2020-08-20T08:55:52Z</time>
      </trkpt>
      <trkpt lat="44.88936" lon="6.66142">
        <ele>1726.5</ele>
        <time>2020-08-20T08:56:02Z</time>
      </trkpt>
      <trkpt lat="44.88938" lon="6.66154">
        <ele>1728.3</ele>
        <time>2020-08-20T08:56:14Z</time>
      </trkpt>
      <trkpt lat="44.88944" lon="6.66165">
        <ele>1729.3</ele>
        <time>2020-08-20T08:56:22Z</time>
      </trkpt>
      <trkpt lat="44.8895" lon="6.66174">
        <ele>1730.4</ele>
        <time>2020-08-20T08:56:30Z</time>
      </trkpt>
      <trkpt lat="44.88956" lon="6.66186">
        <ele>1731.8</ele>
        <time>2020-08-20T08:56:40Z</time>
      </trkpt>
      <trkpt lat="44.88962" lon="6.66195">
        <ele>1732.9</ele>
        <time>2020-08-20T08:56:49Z</time>
      </trkpt>
      <trkpt lat="44.88971" lon="6.66203">
        <ele>1734</ele>
        <time>2020-08-20T08:56:57Z</time>
      </trkpt>
      <trkpt lat="44.88978" lon="6.66211">
        <ele>1735.1</ele>
        <time>2020-08-20T08:57:06Z</time>
      </trkpt>
      <trkpt lat="44.88986" lon="6.66217">
        <ele>1736.2</ele>
        <time>2020-08-20T08:57:16Z</time>
      </trkpt>
      <trkpt lat="44.88993" lon="6.66227">
        <ele>1737.3</ele>
        <time>2020-08-20T08:57:26Z</time>
      </trkpt>
      <trkpt lat="44.89" lon="6.66237">
        <ele>1738.2</ele>
        <time>2020-08-20T08:57:34Z</time>
      </trkpt>
      <trkpt lat="44.89008" lon="6.66245">
        <ele>1739</ele>
        <time>2020-08-20T08:57:41Z</time>
      </trkpt>
      <trkpt lat="44.88999" lon="6.66247">
        <ele>1741.5</ele>
        <time>2020-08-20T08:58:00Z</time>
      </trkpt>
      <trkpt lat="44.8899" lon="6.66242">
        <ele>1742.5</ele>
        <time>2020-08-20T08:58:08Z</time>
      </trkpt>
      <trkpt lat="44.8898" lon="6.66238">
        <ele>1743.2</ele>
        <time>2020-08-20T08:58:15Z</time>
      </trkpt>
      <trkpt lat="44.8897" lon="6.66237">
        <ele>1744.2</ele>
        <time>2020-08-20T08:58:24Z</time>
      </trkpt>
      <trkpt lat="44.88962" lon="6.66231">
        <ele>1745.1</ele>
        <time>2020-08-20T08:58:32Z</time>
      </trkpt>
      <trkpt lat="44.88953" lon="6.66224">
        <ele>1746.1</ele>
        <time>2020-08-20T08:58:41Z</time>
      </trkpt>
      <trkpt lat="44.88944" lon="6.66219">
        <ele>1746.9</ele>
        <time>2020-08-20T08:58:48Z</time>
      </trkpt>
      <trkpt lat="44.88936" lon="6.66211">
        <ele>1748</ele>
        <time>2020-08-20T08:58:57Z</time>
      </trkpt>
      <trkpt lat="44.88928" lon="6.66204">
        <ele>1749.3</ele>
        <time>2020-08-20T08:59:06Z</time>
      </trkpt>
      <trkpt lat="44.8892" lon="6.66197">
        <ele>1750.7</ele>
        <time>2020-08-20T08:59:16Z</time>
      </trkpt>
      <trkpt lat="44.88912" lon="6.6619">
        <ele>1751.8</ele>
        <time>2020-08-20T08:59:25Z</time>
      </trkpt>
      <trkpt lat="44.88902" lon="6.66186">
        <ele>1753</ele>
        <time>2020-08-20T08:59:35Z</time>
      </trkpt>
      <trkpt lat="44.88909" lon="6.66197">
        <ele>1754.6</ele>
        <time>2020-08-20T08:59:49Z</time>
      </trkpt>
      <trkpt lat="44.88918" lon="6.66203">
        <ele>1755.4</ele>
        <time>2020-08-20T08:59:58Z</time>
      </trkpt>
      <trkpt lat="44.88925" lon="6.66212">
        <ele>1756.2</ele>
        <time>2020-08-20T09:00:06Z</time>
      </trkpt>
      <trkpt lat="44.88931" lon="6.66221">
        <ele>1756.8</ele>
        <time>2020-08-20T09:00:13Z</time>
      </trkpt>
      <trkpt lat="44.88938" lon="6.6623">
        <ele>1757.8</ele>
        <time>2020-08-20T09:00:21Z</time>
      </trkpt>
      <trkpt lat="44.88943" lon="6.66242">
        <ele>1758.7</ele>
        <time>2020-08-20T09:00:29Z</time>
      </trkpt>
      <trkpt lat="44.88949" lon="6.66253">
        <ele>1759.6</ele>
        <time>2020-08-20T09:00:37Z</time>
      </trkpt>
      <trkpt lat="44.88956" lon="6.66264">
        <ele>1760.4</ele>
        <time>2020-08-20T09:00:45Z</time>
      </trkpt>
      <trkpt lat="44.88962" lon="6.66274">
        <ele>1761.6</ele>
        <time>2020-08-20T09:00:54Z</time>
      </trkpt>
      <trkpt lat="44.88968" lon="6.66284">
        <ele>1762.8</ele>
        <time>2020-08-20T09:01:03Z</time>
      </trkpt>
      <trkpt lat="44.88975" lon="6.66292">
        <ele>1763.9</ele>
        <time>2020-08-20T09:01:11Z</time>
      </trkpt>
      <trkpt lat="44.88983" lon="6.66299">
        <ele>1764.9</ele>
        <time>2020-08-20T09:01:19Z</time>
      </trkpt>
      <trkpt lat="44.88992" lon="6.66306">
        <ele>1766.4</ele>
        <time>2020-08-20T09:01:30Z</time>
      </trkpt>
      <trkpt lat="44.88982" lon="6.6631">
        <ele>1768.7</ele>
        <time>2020-08-20T09:01:46Z</time>
      </trkpt>
      <trkpt lat="44.88971" lon="6.66307">
        <ele>1769.5</ele>
        <time>2020-08-20T09:01:53Z</time>
      </trkpt>
      <trkpt lat="44.88962" lon="6.66305">
        <ele>1770.7</ele>
        <time>2020-08-20T09:02:03Z</time>
      </trkpt>
      <trkpt lat="44.88953" lon="6.66299">
        <ele>1771.6</ele>
        <time>2020-08-20T09:02:11Z</time>
      </trkpt>
      <trkpt lat="44.88945" lon="6.66294">
        <ele>1772.6</ele>
        <time>2020-08-20T09:02:19Z</time>
      </trkpt>
      <trkpt lat="44.88938" lon="6.66285">
        <ele>1773.9</ele>
        <time>2020-08-20T09:02:30Z</time>
      </trkpt>
      <trkpt lat="44.8893" lon="6.66277">
        <ele>1774.8</ele>
        <time>2020-08-20T09:02:38Z</time>
      </trkpt>
      <trkpt lat="44.88922" lon="6.66269">
        <ele>1775.7</ele>
        <time>2020-08-20T09:02:45Z</time>
      </trkpt>
      <trkpt lat="44.88914" lon="6.66263">
        <ele>1776.6</ele>
        <time>2020-08-20T09:02:53Z</time>
      </trkpt>
      <trkpt lat="44.88919" lon="6.66274">
        <ele>1779.9</ele>
        <time>2020-08-20T09:03:20Z</time>
      </trkpt>
      <trkpt lat="44.88925" lon="6.66284">
        <ele>1780.6</ele>
        <time>2020-08-20T09:03:26Z</time>
      </trkpt>
      <trkpt lat="44.88931" lon="6.66294">
        <ele>1781.4</ele>
        <time>2020-08-20T09:03:33Z</time>
      </trkpt>
      <trkpt lat="44.88937" lon="6.66304">
        <ele>1782.4</ele>
        <time>2020-08-20T09:03:41Z</time>
      </trkpt>
      <trkpt lat="44.88944" lon="6.66312">
        <ele>1783.3</ele>
        <time>2020-08-20T09:03:49Z</time>
      </trkpt>
      <trkpt lat="44.8895" lon="6.66322">
        <ele>1784.5</ele>
        <time>2020-08-20T09:03:59Z</time>
      </trkpt>
      <trkpt lat="44.88958" lon="6.66331">
        <ele>1785.7</ele>
        <time>2020-08-20T09:04:09Z</time>
      </trkpt>
      <trkpt lat="44.88966" lon="6.66338">
        <ele>1787</ele>
        <time>2020-08-20T09:04:20Z</time>
      </trkpt>
      <trkpt lat="44.88976" lon="6.66339">
        <ele>1788.3</ele>
        <time>2020-08-20T09:04:30Z</time>
      </trkpt>
      <trkpt lat="44.88969" lon="6.66347">
        <ele>1790.7</ele>
        <time>2020-08-20T09:04:49Z</time>
      </trkpt>
      <trkpt lat="44.88959" lon="6.66349">
        <ele>1791.8</ele>
        <time>2020-08-20T09:04:59Z</time>
      </trkpt>
      <trkpt lat="44.8895" lon="6.66348">
        <ele>1792.5</ele>
        <time>2020-08-20T09:05:05Z</time>
      </trkpt>
      <trkpt lat="44.88941" lon="6.66344">
        <ele>1793.7</ele>
        <time>2020-08-20T09:05:14Z</time>
      </trkpt>
      <trkpt lat="44.88932" lon="6.66338">
        <ele>1794.5</ele>
        <time>2020-08-20T09:05:23Z</time>
      </trkpt>
      <trkpt lat="44.88924" lon="6.66333">
        <ele>1795.4</ele>
        <time>2020-08-20T09:05:31Z</time>
      </trkpt>
      <trkpt lat="44.88915" lon="6.66327">
        <ele>1796.4</ele>
        <time>2020-08-20T09:05:39Z</time>
      </trkpt>
      <trkpt lat="44.88906" lon="6.66322">
        <ele>1797.3</ele>
        <time>2020-08-20T09:05:48Z</time>
      </trkpt>
      <trkpt lat="44.88914" lon="6.6633">
        <ele>1799.7</ele>
        <time>2020-08-20T09:06:10Z</time>
      </trkpt>
      <trkpt lat="44.88923" lon="6.66337">
        <ele>1800.6</ele>
        <time>2020-08-20T09:06:18Z</time>
      </trkpt>
      <trkpt lat="44.8893" lon="6.66345">
        <ele>1801.6</ele>
        <time>2020-08-20T09:06:27Z</time>
      </trkpt>
      <trkpt lat="44.88937" lon="6.66353">
        <ele>1802.3</ele>
        <time>2020-08-20T09:06:34Z</time>
      </trkpt>
      <trkpt lat="44.88945" lon="6.66361">
        <ele>1803.3</ele>
        <time>2020-08-20T09:06:43Z</time>
      </trkpt>
      <trkpt lat="44.88953" lon="6.66368">
        <ele>1804.5</ele>
        <time>2020-08-20T09:06:53Z</time>
      </trkpt>
      <trkpt lat="44.88962" lon="6.66373">
        <ele>1805.5</ele>
        <time>2020-08-20T09:07:03Z</time>
      </trkpt>
      <trkpt lat="44.88971" lon="6.66377">
        <ele>1806.4</ele>
        <time>2020-08-20T09:07:12Z</time>
      </trkpt>
      <trkpt lat="44.8898" lon="6.66382">
        <ele>1807.4</ele>
        <time>2020-08-20T09:07:21Z</time>
      </trkpt>
      <trkpt lat="44.88989" lon="6.66386">
        <ele>1808.4</ele>
        <time>2020-08-20T09:07:29Z</time>
      </trkpt>
      <trkpt lat="44.88998" lon="6.66392">
        <ele>1809.3</ele>
        <time>2020-08-20T09:07:36Z</time>
      </trkpt>
      <trkpt lat="44.89007" lon="6.66398">
        <ele>1810.2</ele>
        <time>2020-08-20T09:07:42Z</time>
      </trkpt>
      <trkpt lat="44.89015" lon="6.66405">
        <ele>1812</ele>
        <time>2020-08-20T09:08:04Z</time>
      </trkpt>
      <trkpt lat="44.89006" lon="6.66409">
        <ele>1812.6</ele>
        <time>2020-08-20T09:10:24Z</time>
      </trkpt>
      <trkpt lat="44.88997" lon="6.66402">
        <ele>1812.5</ele>
        <time>2020-08-20T09:10:31Z</time>
      </trkpt>
      <trkpt lat="44.88988" lon="6.66398">
        <ele>1812.4</ele>
        <time>2020-08-20T09:10:38Z</time>
      </trkpt>
      <trkpt lat="44.88978" lon="6.66398">
        <ele>1812.3</ele>
        <time>2020-08-20T09:10:45Z</time>
      </trkpt>
      <trkpt lat="44.88968" lon="6.66397">
        <ele>1812.8</ele>
        <time>2020-08-20T09:10:52Z</time>
      </trkpt>
      <trkpt lat="44.88958" lon="6.66397">
        <ele>1813.3</ele>
        <time>2020-08-20T09:11:00Z</time>
      </trkpt>
      <trkpt lat="44.88948" lon="6.66395">
        <ele>1813.9</ele>
        <time>2020-08-20T09:11:08Z</time>
      </trkpt>
      <trkpt lat="44.88938" lon="6.66395">
        <ele>1814.6</ele>
        <time>2020-08-20T09:11:16Z</time>
      </trkpt>
      <trkpt lat="44.88929" lon="6.66391">
        <ele>1815.5</ele>
        <time>2020-08-20T09:11:23Z</time>
      </trkpt>
      <trkpt lat="44.8892" lon="6.66388">
        <ele>1816.4</ele>
        <time>2020-08-20T09:11:31Z</time>
      </trkpt>
      <trkpt lat="44.8891" lon="6.66386">
        <ele>1817.3</ele>
        <time>2020-08-20T09:11:38Z</time>
      </trkpt>
      <trkpt lat="44.8892" lon="6.66394">
        <ele>1818.9</ele>
        <time>2020-08-20T09:11:50Z</time>
      </trkpt>
      <trkpt lat="44.88928" lon="6.664">
        <ele>1819.8</ele>
        <time>2020-08-20T09:11:55Z</time>
      </trkpt>
      <trkpt lat="44.88937" lon="6.66407">
        <ele>1820.9</ele>
        <time>2020-08-20T09:12:03Z</time>
      </trkpt>
      <trkpt lat="44.88946" lon="6.66413">
        <ele>1822</ele>
        <time>2020-08-20T09:12:10Z</time>
      </trkpt>
      <trkpt lat="44.88954" lon="6.66418">
        <ele>1822.9</ele>
        <time>2020-08-20T09:12:17Z</time>
      </trkpt>
      <trkpt lat="44.88963" lon="6.66424">
        <ele>1824</ele>
        <time>2020-08-20T09:12:25Z</time>
      </trkpt>
      <trkpt lat="44.88971" lon="6.66431">
        <ele>1825.1</ele>
        <time>2020-08-20T09:12:33Z</time>
      </trkpt>
      <trkpt lat="44.8898" lon="6.66437">
        <ele>1826.2</ele>
        <time>2020-08-20T09:12:41Z</time>
      </trkpt>
      <trkpt lat="44.88989" lon="6.66442">
        <ele>1827</ele>
        <time>2020-08-20T09:12:48Z</time>
      </trkpt>
      <trkpt lat="44.88998" lon="6.66445">
        <ele>1827.8</ele>
        <time>2020-08-20T09:12:55Z</time>
      </trkpt>
      <trkpt lat="44.89006" lon="6.66453">
        <ele>1828.5</ele>
        <time>2020-08-20T09:13:02Z</time>
      </trkpt>
      <trkpt lat="44.88996" lon="6.66454">
        <ele>1829.5</ele>
        <time>2020-08-20T09:13:12Z</time>
      </trkpt>
      <trkpt lat="44.88986" lon="6.66452">
        <ele>1830.3</ele>
        <time>2020-08-20T09:13:19Z</time>
      </trkpt>
      <trkpt lat="44.88976" lon="6.66453">
        <ele>1831.2</ele>
        <time>2020-08-20T09:13:26Z</time>
      </trkpt>
      <trkpt lat="44.88967" lon="6.66451">
        <ele>1832.4</ele>
        <time>2020-08-20T09:13:34Z</time>
      </trkpt>
      <trkpt lat="44.88958" lon="6.66448">
        <ele>1833.2</ele>
        <time>2020-08-20T09:13:41Z</time>
      </trkpt>
      <trkpt lat="44.88948" lon="6.66446">
        <ele>1834.1</ele>
        <time>2020-08-20T09:13:48Z</time>
      </trkpt>
      <trkpt lat="44.88939" lon="6.66445">
        <ele>1835</ele>
        <time>2020-08-20T09:13:55Z</time>
      </trkpt>
      <trkpt lat="44.8893" lon="6.66444">
        <ele>1836</ele>
        <time>2020-08-20T09:14:03Z</time>
      </trkpt>
      <trkpt lat="44.88938" lon="6.66452">
        <ele>1838.8</ele>
        <time>2020-08-20T09:14:25Z</time>
      </trkpt>
      <trkpt lat="44.88946" lon="6.66457">
        <ele>1839.9</ele>
        <time>2020-08-20T09:14:33Z</time>
      </trkpt>
      <trkpt lat="44.88955" lon="6.66463">
        <ele>1841</ele>
        <time>2020-08-20T09:14:41Z</time>
      </trkpt>
      <trkpt lat="44.88963" lon="6.66469">
        <ele>1841.7</ele>
        <time>2020-08-20T09:14:47Z</time>
      </trkpt>
      <trkpt lat="44.88971" lon="6.66475">
        <ele>1842.6</ele>
        <time>2020-08-20T09:14:53Z</time>
      </trkpt>
      <trkpt lat="44.88979" lon="6.66483">
        <ele>1843.4</ele>
        <time>2020-08-20T09:14:59Z</time>
      </trkpt>
      <trkpt lat="44.88986" lon="6.66492">
        <ele>1844.8</ele>
        <time>2020-08-20T09:15:08Z</time>
      </trkpt>
      <trkpt lat="44.88994" lon="6.66499">
        <ele>1845.8</ele>
        <time>2020-08-20T09:15:15Z</time>
      </trkpt>
      <trkpt lat="44.89001" lon="6.66509">
        <ele>1847.1</ele>
        <time>2020-08-20T09:15:23Z</time>
      </trkpt>
      <trkpt lat="44.89008" lon="6.66519">
        <ele>1848.3</ele>
        <time>2020-08-20T09:15:31Z</time>
      </trkpt>
      <trkpt lat="44.89015" lon="6.6653">
        <ele>1849.5</ele>
        <time>2020-08-20T09:15:40Z</time>
      </trkpt>
      <trkpt lat="44.8902" lon="6.66541">
        <ele>1850.9</ele>
        <time>2020-08-20T09:15:49Z</time>
      </trkpt>
      <trkpt lat="44.89011" lon="6.66539">
        <ele>1851.7</ele>
        <time>2020-08-20T09:15:55Z</time>
      </trkpt>
      <trkpt lat="44.89002" lon="6.66532">
        <ele>1852.6</ele>
        <time>2020-08-20T09:16:02Z</time>
      </trkpt>
      <trkpt lat="44.88992" lon="6.66527">
        <ele>1853.6</ele>
        <time>2020-08-20T09:16:09Z</time>
      </trkpt>
      <trkpt lat="44.88982" lon="6.66525">
        <ele>1854.6</ele>
        <time>2020-08-20T09:16:17Z</time>
      </trkpt>
      <trkpt lat="44.88973" lon="6.66522">
        <ele>1855.8</ele>
        <time>2020-08-20T09:16:26Z</time>
      </trkpt>
      <trkpt lat="44.88963" lon="6.66521">
        <ele>1856.8</ele>
        <time>2020-08-20T09:16:34Z</time>
      </trkpt>
      <trkpt lat="44.88954" lon="6.66517">
        <ele>1857.9</ele>
        <time>2020-08-20T09:16:42Z</time>
      </trkpt>
      <trkpt lat="44.88945" lon="6.66515">
        <ele>1859.3</ele>
        <time>2020-08-20T09:16:52Z</time>
      </trkpt>
      <trkpt lat="44.88954" lon="6.66521">
        <ele>1860.9</ele>
        <time>2020-08-20T09:17:05Z</time>
      </trkpt>
      <trkpt lat="44.88962" lon="6.66526">
        <ele>1861.8</ele>
        <time>2020-08-20T09:17:13Z</time>
      </trkpt>
      <trkpt lat="44.8897" lon="6.66534">
        <ele>1862.7</ele>
        <time>2020-08-20T09:17:20Z</time>
      </trkpt>
      <trkpt lat="44.88979" lon="6.66541">
        <ele>1863.6</ele>
        <time>2020-08-20T09:17:28Z</time>
      </trkpt>
      <trkpt lat="44.88987" lon="6.6655">
        <ele>1864.7</ele>
        <time>2020-08-20T09:17:37Z</time>
      </trkpt>
      <trkpt lat="44.88994" lon="6.66557">
        <ele>1865.7</ele>
        <time>2020-08-20T09:17:45Z</time>
      </trkpt>
      <trkpt lat="44.89003" lon="6.66564">
        <ele>1866.7</ele>
        <time>2020-08-20T09:17:53Z</time>
      </trkpt>
      <trkpt lat="44.8901" lon="6.66573">
        <ele>1868.1</ele>
        <time>2020-08-20T09:18:02Z</time>
      </trkpt>
      <trkpt lat="44.89018" lon="6.6658">
        <ele>1869.2</ele>
        <time>2020-08-20T09:18:11Z</time>
      </trkpt>
      <trkpt lat="44.89025" lon="6.66589">
        <ele>1870.5</ele>
        <time>2020-08-20T09:18:21Z</time>
      </trkpt>
      <trkpt lat="44.89034" lon="6.66596">
        <ele>1871.5</ele>
        <time>2020-08-20T09:18:30Z</time>
      </trkpt>
      <trkpt lat="44.89042" lon="6.66603">
        <ele>1873</ele>
        <time>2020-08-20T09:18:42Z</time>
      </trkpt>
      <trkpt lat="44.89048" lon="6.66613">
        <ele>1873.9</ele>
        <time>2020-08-20T09:18:50Z</time>
      </trkpt>
      <trkpt lat="44.89039" lon="6.66614">
        <ele>1874.7</ele>
        <time>2020-08-20T09:18:57Z</time>
      </trkpt>
      <trkpt lat="44.89031" lon="6.66608">
        <ele>1875.5</ele>
        <time>2020-08-20T09:19:04Z</time>
      </trkpt>
      <trkpt lat="44.89022" lon="6.66605">
        <ele>1876.3</ele>
        <time>2020-08-20T09:19:11Z</time>
      </trkpt>
      <trkpt lat="44.89011" lon="6.66603">
        <ele>1877.4</ele>
        <time>2020-08-20T09:19:20Z</time>
      </trkpt>
      <trkpt lat="44.89002" lon="6.666">
        <ele>1878.1</ele>
        <time>2020-08-20T09:19:27Z</time>
      </trkpt>
      <trkpt lat="44.88993" lon="6.66597">
        <ele>1879.3</ele>
        <time>2020-08-20T09:19:36Z</time>
      </trkpt>
      <trkpt lat="44.88984" lon="6.66596">
        <ele>1880.3</ele>
        <time>2020-08-20T09:19:44Z</time>
      </trkpt>
      <trkpt lat="44.88974" lon="6.66597">
        <ele>1881.3</ele>
        <time>2020-08-20T09:19:52Z</time>
      </trkpt>
      <trkpt lat="44.88969" lon="6.66609">
        <ele>1882.6</ele>
        <time>2020-08-20T09:20:02Z</time>
      </trkpt>
      <trkpt lat="44.88967" lon="6.66621">
        <ele>1883.8</ele>
        <time>2020-08-20T09:20:13Z</time>
      </trkpt>
      <trkpt lat="44.88964" lon="6.66634">
        <ele>1884.9</ele>
        <time>2020-08-20T09:20:21Z</time>
      </trkpt>
      <trkpt lat="44.88965" lon="6.66647">
        <ele>1885.9</ele>
        <time>2020-08-20T09:20:29Z</time>
      </trkpt>
      <trkpt lat="44.88964" lon="6.6666">
        <ele>1887</ele>
        <time>2020-08-20T09:20:37Z</time>
      </trkpt>
      <trkpt lat="44.88964" lon="6.66675">
        <ele>1888.2</ele>
        <time>2020-08-20T09:20:46Z</time>
      </trkpt>
      <trkpt lat="44.88963" lon="6.66688">
        <ele>1889</ele>
        <time>2020-08-20T09:20:53Z</time>
      </trkpt>
      <trkpt lat="44.88964" lon="6.66702">
        <ele>1890</ele>
        <time>2020-08-20T09:21:01Z</time>
      </trkpt>
      <trkpt lat="44.88969" lon="6.66715">
        <ele>1891</ele>
        <time>2020-08-20T09:21:09Z</time>
      </trkpt>
      <trkpt lat="44.88971" lon="6.66729">
        <ele>1891.8</ele>
        <time>2020-08-20T09:21:16Z</time>
      </trkpt>
      <trkpt lat="44.88972" lon="6.66742">
        <ele>1892.7</ele>
        <time>2020-08-20T09:21:24Z</time>
      </trkpt>
      <trkpt lat="44.88976" lon="6.6673">
        <ele>1894.8</ele>
        <time>2020-08-20T09:21:42Z</time>
      </trkpt>
      <trkpt lat="44.88977" lon="6.66714">
        <ele>1895.9</ele>
        <time>2020-08-20T09:21:51Z</time>
      </trkpt>
      <trkpt lat="44.88977" lon="6.66701">
        <ele>1896.7</ele>
        <time>2020-08-20T09:21:59Z</time>
      </trkpt>
      <trkpt lat="44.88981" lon="6.66688">
        <ele>1897.7</ele>
        <time>2020-08-20T09:22:07Z</time>
      </trkpt>
      <trkpt lat="44.88988" lon="6.66679">
        <ele>1898.6</ele>
        <time>2020-08-20T09:22:15Z</time>
      </trkpt>
      <trkpt lat="44.88997" lon="6.66676">
        <ele>1899.9</ele>
        <time>2020-08-20T09:22:25Z</time>
      </trkpt>
      <trkpt lat="44.89006" lon="6.66678">
        <ele>1901</ele>
        <time>2020-08-20T09:22:34Z</time>
      </trkpt>
      <trkpt lat="44.89014" lon="6.66685">
        <ele>1902.2</ele>
        <time>2020-08-20T09:22:45Z</time>
      </trkpt>
      <trkpt lat="44.89023" lon="6.66691">
        <ele>1903.2</ele>
        <time>2020-08-20T09:22:53Z</time>
      </trkpt>
      <trkpt lat="44.89031" lon="6.66699">
        <ele>1904.1</ele>
        <time>2020-08-20T09:23:00Z</time>
      </trkpt>
      <trkpt lat="44.89039" lon="6.66705">
        <ele>1905.2</ele>
        <time>2020-08-20T09:23:09Z</time>
      </trkpt>
      <trkpt lat="44.89047" lon="6.66713">
        <ele>1906.1</ele>
        <time>2020-08-20T09:23:18Z</time>
      </trkpt>
      <trkpt lat="44.89057" lon="6.66716">
        <ele>1907</ele>
        <time>2020-08-20T09:23:27Z</time>
      </trkpt>
      <trkpt lat="44.89049" lon="6.66724">
        <ele>1909</ele>
        <time>2020-08-20T09:23:44Z</time>
      </trkpt>
      <trkpt lat="44.8904" lon="6.66725">
        <ele>1909.9</ele>
        <time>2020-08-20T09:23:51Z</time>
      </trkpt>
      <trkpt lat="44.89031" lon="6.66725">
        <ele>1910.8</ele>
        <time>2020-08-20T09:23:58Z</time>
      </trkpt>
      <trkpt lat="44.89022" lon="6.66727">
        <ele>1912.1</ele>
        <time>2020-08-20T09:24:07Z</time>
      </trkpt>
      <trkpt lat="44.8902" lon="6.6674">
        <ele>1913.4</ele>
        <time>2020-08-20T09:24:16Z</time>
      </trkpt>
      <trkpt lat="44.89021" lon="6.66753">
        <ele>1914.2</ele>
        <time>2020-08-20T09:24:23Z</time>
      </trkpt>
      <trkpt lat="44.89021" lon="6.66767">
        <ele>1915</ele>
        <time>2020-08-20T09:24:30Z</time>
      </trkpt>
      <trkpt lat="44.89023" lon="6.6678">
        <ele>1916</ele>
        <time>2020-08-20T09:24:38Z</time>
      </trkpt>
      <trkpt lat="44.89021" lon="6.66793">
        <ele>1917.3</ele>
        <time>2020-08-20T09:24:49Z</time>
      </trkpt>
      <trkpt lat="44.89018" lon="6.66807">
        <ele>1918.4</ele>
        <time>2020-08-20T09:24:58Z</time>
      </trkpt>
      <trkpt lat="44.89016" lon="6.6682">
        <ele>1919.5</ele>
        <time>2020-08-20T09:25:05Z</time>
      </trkpt>
      <trkpt lat="44.89014" lon="6.66833">
        <ele>1920.7</ele>
        <time>2020-08-20T09:25:16Z</time>
      </trkpt>
      <trkpt lat="44.89012" lon="6.66846">
        <ele>1921.5</ele>
        <time>2020-08-20T09:25:22Z</time>
      </trkpt>
      <trkpt lat="44.8901" lon="6.66859">
        <ele>1922.6</ele>
        <time>2020-08-20T09:25:31Z</time>
      </trkpt>
      <trkpt lat="44.89011" lon="6.66872">
        <ele>1923.5</ele>
        <time>2020-08-20T09:25:37Z</time>
      </trkpt>
      <trkpt lat="44.89014" lon="6.66885">
        <ele>1924.2</ele>
        <time>2020-08-20T09:25:43Z</time>
      </trkpt>
      <trkpt lat="44.8901" lon="6.66898">
        <ele>1925</ele>
        <time>2020-08-20T09:25:52Z</time>
      </trkpt>
      <trkpt lat="44.89" lon="6.66905">
        <ele>1926.6</ele>
        <time>2020-08-20T09:27:01Z</time>
      </trkpt>
      <trkpt lat="44.88999" lon="6.66918">
        <ele>1927</ele>
        <time>2020-08-20T09:27:41Z</time>
      </trkpt>
      <trkpt lat="44.88996" lon="6.66932">
        <ele>1927</ele>
        <time>2020-08-20T09:27:48Z</time>
      </trkpt>
      <trkpt lat="44.88995" lon="6.66945">
        <ele>1927</ele>
        <time>2020-08-20T09:27:57Z</time>
      </trkpt>
      <trkpt lat="44.88993" lon="6.66958">
        <ele>1927</ele>
        <time>2020-08-20T09:28:04Z</time>
      </trkpt>
      <trkpt lat="44.88993" lon="6.66972">
        <ele>1927</ele>
        <time>2020-08-20T09:28:11Z</time>
      </trkpt>
      <trkpt lat="44.88993" lon="6.66986">
        <ele>1927</ele>
        <time>2020-08-20T09:28:19Z</time>
      </trkpt>
      <trkpt lat="44.88993" lon="6.67">
        <ele>1927.2</ele>
        <time>2020-08-20T09:28:26Z</time>
      </trkpt>
      <trkpt lat="44.88993" lon="6.67015">
        <ele>1927.3</ele>
        <time>2020-08-20T09:28:33Z</time>
      </trkpt>
      <trkpt lat="44.88996" lon="6.67029">
        <ele>1927.5</ele>
        <time>2020-08-20T09:28:40Z</time>
      </trkpt>
      <trkpt lat="44.88999" lon="6.67041">
        <ele>1927.7</ele>
        <time>2020-08-20T09:28:46Z</time>
      </trkpt>
      <trkpt lat="44.89002" lon="6.67055">
        <ele>1927.9</ele>
        <time>2020-08-20T09:28:54Z</time>
      </trkpt>
      <trkpt lat="44.89002" lon="6.6707">
        <ele>1928.1</ele>
        <time>2020-08-20T09:29:02Z</time>
      </trkpt>
      <trkpt lat="44.89" lon="6.67082">
        <ele>1928.2</ele>
        <time>2020-08-20T09:29:09Z</time>
      </trkpt>
      <trkpt lat="44.88998" lon="6.67095">
        <ele>1928.3</ele>
        <time>2020-08-20T09:29:16Z</time>
      </trkpt>
      <trkpt lat="44.88998" lon="6.67108">
        <ele>1928.4</ele>
        <time>2020-08-20T09:29:23Z</time>
      </trkpt>
      <trkpt lat="44.88999" lon="6.67121">
        <ele>1928.6</ele>
        <time>2020-08-20T09:29:31Z</time>
      </trkpt>
      <trkpt lat="44.88999" lon="6.67134">
        <ele>1928.8</ele>
        <time>2020-08-20T09:29:38Z</time>
      </trkpt>
      <trkpt lat="44.88998" lon="6.67149">
        <ele>1929</ele>
        <time>2020-08-20T09:29:45Z</time>
      </trkpt>
      <trkpt lat="44.88993" lon="6.67162">
        <ele>1929.1</ele>
        <time>2020-08-20T09:29:52Z</time>
      </trkpt>
      <trkpt lat="44.8899" lon="6.67176">
        <ele>1929.3</ele>
        <time>2020-08-20T09:29:59Z</time>
      </trkpt>
      <trkpt lat="44.88981" lon="6.67179">
        <ele>1929.5</ele>
        <time>2020-08-20T09:30:17Z</time>
      </trkpt>
      <trkpt lat="44.88971" lon="6.67179">
        <ele>1929.7</ele>
        <time>2020-08-20T09:30:26Z</time>
      </trkpt>
      <trkpt lat="44.88966" lon="6.6719">
        <ele>1929.9</ele>
        <time>2020-08-20T09:30:33Z</time>
      </trkpt>
      <trkpt lat="44.88963" lon="6.67203">
        <ele>1930</ele>
        <time>2020-08-20T09:30:39Z</time>
      </trkpt>
      <trkpt lat="44.88964" lon="6.67218">
        <ele>1930</ele>
        <time>2020-08-20T09:30:46Z</time>
      </trkpt>
      <trkpt lat="44.88962" lon="6.67232">
        <ele>1930.1</ele>
        <time>2020-08-20T09:30:52Z</time>
      </trkpt>
      <trkpt lat="44.8896" lon="6.67245">
        <ele>1930.3</ele>
        <time>2020-08-20T09:30:58Z</time>
      </trkpt>
      <trkpt lat="44.88955" lon="6.67257">
        <ele>1930.4</ele>
        <time>2020-08-20T09:31:05Z</time>
      </trkpt>
      <trkpt lat="44.88951" lon="6.67269">
        <ele>1930.6</ele>
        <time>2020-08-20T09:31:13Z</time>
      </trkpt>
      <trkpt lat="44.88948" lon="6.67283">
        <ele>1930.8</ele>
        <time>2020-08-20T09:31:21Z</time>
      </trkpt>
      <trkpt lat="44.88947" lon="6.67297">
        <ele>1931</ele>
        <time>2020-08-20T09:31:27Z</time>
      </trkpt>
      <trkpt lat="44.88946" lon="6.67311">
        <ele>1931.1</ele>
        <time>2020-08-20T09:31:34Z</time>
      </trkpt>
      <trkpt lat="44.88944" lon="6.67325">
        <ele>1931.2</ele>
        <time>2020-08-20T09:31:41Z</time>
      </trkpt>
      <trkpt lat="44.88943" lon="6.6734">
        <ele>1931.3</ele>
        <time>2020-08-20T09:31:48Z</time>
      </trkpt>
      <trkpt lat="44.88943" lon="6.67355">
        <ele>1931.5</ele>
        <time>2020-08-20T09:31:54Z</time>
      </trkpt>
      <trkpt lat="44.88942" lon="6.67369">
        <ele>1931.6</ele>
        <time>2020-08-20T09:32:01Z</time>
      </trkpt>
      <trkpt lat="44.88941" lon="6.67382">
        <ele>1931.9</ele>
        <time>2020-08-20T09:32:08Z</time>
      </trkpt>
      <trkpt lat="44.88942" lon="6.67396">
        <ele>1932.2</ele>
        <time>2020-08-20T09:32:15Z</time>
      </trkpt>
      <trkpt lat="44.88944" lon="6.67411">
        <ele>1932.4</ele>
        <time>2020-08-20T09:32:22Z</time>
      </trkpt>
      <trkpt lat="44.88946" lon="6.67423">
        <ele>1932.5</ele>
        <time>2020-08-20T09:32:28Z</time>
      </trkpt>
      <trkpt lat="44.88949" lon="6.67435">
        <ele>1932.7</ele>
        <time>2020-08-20T09:32:34Z</time>
      </trkpt>
      <trkpt lat="44.88952" lon="6.67447">
        <ele>1932.8</ele>
        <time>2020-08-20T09:32:40Z</time>
      </trkpt>
      <trkpt lat="44.88955" lon="6.6746">
        <ele>1933.1</ele>
        <time>2020-08-20T09:32:47Z</time>
      </trkpt>
      <trkpt lat="44.88955" lon="6.67474">
        <ele>1933.4</ele>
        <time>2020-08-20T09:32:54Z</time>
      </trkpt>
      <trkpt lat="44.88955" lon="6.67488">
        <ele>1933.7</ele>
        <time>2020-08-20T09:33:02Z</time>
      </trkpt>
      <trkpt lat="44.88957" lon="6.67502">
        <ele>1934</ele>
        <time>2020-08-20T09:33:09Z</time>
      </trkpt>
      <trkpt lat="44.88959" lon="6.67516">
        <ele>1934.2</ele>
        <time>2020-08-20T09:33:16Z</time>
      </trkpt>
      <trkpt lat="44.88962" lon="6.6753">
        <ele>1934.4</ele>
        <time>2020-08-20T09:33:23Z</time>
      </trkpt>
      <trkpt lat="44.88965" lon="6.67544">
        <ele>1934.6</ele>
        <time>2020-08-20T09:33:30Z</time>
      </trkpt>
      <trkpt lat="44.88968" lon="6.67556">
        <ele>1934.8</ele>
        <time>2020-08-20T09:33:36Z</time>
      </trkpt>
      <trkpt lat="44.88971" lon="6.67568">
        <ele>1935</ele>
        <time>2020-08-20T09:33:43Z</time>
      </trkpt>
      <trkpt lat="44.88975" lon="6.67581">
        <ele>1935.2</ele>
        <time>2020-08-20T09:33:50Z</time>
      </trkpt>
      <trkpt lat="44.88979" lon="6.67595">
        <ele>1935.4</ele>
        <time>2020-08-20T09:33:57Z</time>
      </trkpt>
      <trkpt lat="44.88983" lon="6.67607">
        <ele>1935.5</ele>
        <time>2020-08-20T09:34:04Z</time>
      </trkpt>
      <trkpt lat="44.88986" lon="6.67619">
        <ele>1935.7</ele>
        <time>2020-08-20T09:34:10Z</time>
      </trkpt>
      <trkpt lat="44.88989" lon="6.67632">
        <ele>1935.8</ele>
        <time>2020-08-20T09:34:17Z</time>
      </trkpt>
      <trkpt lat="44.8899" lon="6.67646">
        <ele>1936</ele>
        <time>2020-08-20T09:34:25Z</time>
      </trkpt>
      <trkpt lat="44.88988" lon="6.67659">
        <ele>1936</ele>
        <time>2020-08-20T09:34:33Z</time>
      </trkpt>
      <trkpt lat="44.88985" lon="6.67671">
        <ele>1936.2</ele>
        <time>2020-08-20T09:34:39Z</time>
      </trkpt>
      <trkpt lat="44.88982" lon="6.67683">
        <ele>1936.3</ele>
        <time>2020-08-20T09:34:45Z</time>
      </trkpt>
      <trkpt lat="44.88976" lon="6.67693">
        <ele>1936.3</ele>
        <time>2020-08-20T09:34:51Z</time>
      </trkpt>
      <trkpt lat="44.88967" lon="6.67697">
        <ele>1936.4</ele>
        <time>2020-08-20T09:34:58Z</time>
      </trkpt>
      <trkpt lat="44.88957" lon="6.67699">
        <ele>1936.6</ele>
        <time>2020-08-20T09:35:04Z</time>
      </trkpt>
      <trkpt lat="44.88948" lon="6.67702">
        <ele>1936.7</ele>
        <time>2020-08-20T09:35:11Z</time>
      </trkpt>
      <trkpt lat="44.88942" lon="6.67714">
        <ele>1937</ele>
        <time>2020-08-20T09:35:18Z</time>
      </trkpt>
      <trkpt lat="44.88941" lon="6.67727">
        <ele>1937.2</ele>
        <time>2020-08-20T09:35:24Z</time>
      </trkpt>
      <trkpt lat="44.88938" lon="6.67741">
        <ele>1937.5</ele>
        <time>2020-08-20T09:35:32Z</time>
      </trkpt>
      <trkpt lat="44.88931" lon="6.67751">
        <ele>1937.7</ele>
        <time>2020-08-20T09:35:38Z</time>
      </trkpt>
      <trkpt lat="44.88926" lon="6.67761">
        <ele>1937.9</ele>
        <time>2020-08-20T09:35:45Z</time>
      </trkpt>
      <trkpt lat="44.88919" lon="6.6777">
        <ele>1938</ele>
        <time>2020-08-20T09:35:51Z</time>
      </trkpt>
      <trkpt lat="44.88911" lon="6.67778">
        <ele>1938.2</ele>
        <time>2020-08-20T09:35:59Z</time>
      </trkpt>
      <trkpt lat="44.88904" lon="6.67786">
        <ele>1938.7</ele>
        <time>2020-08-20T09:36:08Z</time>
      </trkpt>
      <trkpt lat="44.88894" lon="6.67788">
        <ele>1939</ele>
        <time>2020-08-20T09:36:14Z</time>
      </trkpt>
      <trkpt lat="44.88884" lon="6.67791">
        <ele>1939.3</ele>
        <time>2020-08-20T09:36:21Z</time>
      </trkpt>
      <trkpt lat="44.88875" lon="6.67794">
        <ele>1939.6</ele>
        <time>2020-08-20T09:36:27Z</time>
      </trkpt>
      <trkpt lat="44.88866" lon="6.67798">
        <ele>1940</ele>
        <time>2020-08-20T09:36:35Z</time>
      </trkpt>
      <trkpt lat="44.8886" lon="6.67808">
        <ele>1940.3</ele>
        <time>2020-08-20T09:36:42Z</time>
      </trkpt>
      <trkpt lat="44.8886" lon="6.67823">
        <ele>1940.7</ele>
        <time>2020-08-20T09:36:50Z</time>
      </trkpt>
      <trkpt lat="44.88862" lon="6.67837">
        <ele>1941</ele>
        <time>2020-08-20T09:36:57Z</time>
      </trkpt>
      <trkpt lat="44.88863" lon="6.67852">
        <ele>1941.3</ele>
        <time>2020-08-20T09:37:03Z</time>
      </trkpt>
      <trkpt lat="44.88865" lon="6.67865">
        <ele>1941.4</ele>
        <time>2020-08-20T09:37:08Z</time>
      </trkpt>
      <trkpt lat="44.88865" lon="6.67878">
        <ele>1941.6</ele>
        <time>2020-08-20T09:37:15Z</time>
      </trkpt>
      <trkpt lat="44.88866" lon="6.67891">
        <ele>1942</ele>
        <time>2020-08-20T09:37:22Z</time>
      </trkpt>
      <trkpt lat="44.88866" lon="6.67904">
        <ele>1942.2</ele>
        <time>2020-08-20T09:37:29Z</time>
      </trkpt>
      <trkpt lat="44.88863" lon="6.67917">
        <ele>1942.4</ele>
        <time>2020-08-20T09:37:36Z</time>
      </trkpt>
      <trkpt lat="44.88859" lon="6.67929">
        <ele>1942.6</ele>
        <time>2020-08-20T09:37:44Z</time>
      </trkpt>
      <trkpt lat="44.88854" lon="6.67942">
        <ele>1942.8</ele>
        <time>2020-08-20T09:37:52Z</time>
      </trkpt>
      <trkpt lat="44.88849" lon="6.67952">
        <ele>1943.1</ele>
        <time>2020-08-20T09:37:58Z</time>
      </trkpt>
      <trkpt lat="44.88843" lon="6.67962">
        <ele>1943.4</ele>
        <time>2020-08-20T09:38:07Z</time>
      </trkpt>
      <trkpt lat="44.88834" lon="6.67965">
        <ele>1943.5</ele>
        <time>2020-08-20T09:38:11Z</time>
      </trkpt>
      <trkpt lat="44.88824" lon="6.67968">
        <ele>1943.8</ele>
        <time>2020-08-20T09:38:17Z</time>
      </trkpt>
      <trkpt lat="44.88815" lon="6.67969">
        <ele>1944.3</ele>
        <time>2020-08-20T09:38:23Z</time>
      </trkpt>
      <trkpt lat="44.88805" lon="6.67971">
        <ele>1944.7</ele>
        <time>2020-08-20T09:38:30Z</time>
      </trkpt>
      <trkpt lat="44.88795" lon="6.67975">
        <ele>1945</ele>
        <time>2020-08-20T09:38:37Z</time>
      </trkpt>
      <trkpt lat="44.88788" lon="6.67984">
        <ele>1945.1</ele>
        <time>2020-08-20T09:38:43Z</time>
      </trkpt>
      <trkpt lat="44.88783" lon="6.67997">
        <ele>1945.3</ele>
        <time>2020-08-20T09:38:51Z</time>
      </trkpt>
      <trkpt lat="44.88776" lon="6.68007">
        <ele>1945.4</ele>
        <time>2020-08-20T09:38:57Z</time>
      </trkpt>
      <trkpt lat="44.88771" lon="6.68018">
        <ele>1946</ele>
        <time>2020-08-20T09:39:04Z</time>
      </trkpt>
      <trkpt lat="44.88768" lon="6.68033">
        <ele>1946.4</ele>
        <time>2020-08-20T09:39:12Z</time>
      </trkpt>
      <trkpt lat="44.88764" lon="6.68045">
        <ele>1946.7</ele>
        <time>2020-08-20T09:39:20Z</time>
      </trkpt>
      <trkpt lat="44.88762" lon="6.68058">
        <ele>1947</ele>
        <time>2020-08-20T09:39:27Z</time>
      </trkpt>
      <trkpt lat="44.88759" lon="6.6807">
        <ele>1947.3</ele>
        <time>2020-08-20T09:39:35Z</time>
      </trkpt>
      <trkpt lat="44.88754" lon="6.68084">
        <ele>1947.6</ele>
        <time>2020-08-20T09:39:41Z</time>
      </trkpt>
      <trkpt lat="44.88749" lon="6.68096">
        <ele>1947.9</ele>
        <time>2020-08-20T09:39:47Z</time>
      </trkpt>
      <trkpt lat="44.88744" lon="6.68108">
        <ele>1948.3</ele>
        <time>2020-08-20T09:39:54Z</time>
      </trkpt>
      <trkpt lat="44.88742" lon="6.68122">
        <ele>1948.7</ele>
        <time>2020-08-20T09:40:01Z</time>
      </trkpt>
      <trkpt lat="44.88739" lon="6.68137">
        <ele>1949.1</ele>
        <time>2020-08-20T09:40:07Z</time>
      </trkpt>
      <trkpt lat="44.88737" lon="6.68151">
        <ele>1949.4</ele>
        <time>2020-08-20T09:40:13Z</time>
      </trkpt>
      <trkpt lat="44.88736" lon="6.68165">
        <ele>1949.6</ele>
        <time>2020-08-20T09:40:19Z</time>
      </trkpt>
      <trkpt lat="44.88736" lon="6.68178">
        <ele>1949.8</ele>
        <time>2020-08-20T09:40:26Z</time>
      </trkpt>
      <trkpt lat="44.88733" lon="6.68192">
        <ele>1950</ele>
        <time>2020-08-20T09:40:33Z</time>
      </trkpt>
      <trkpt lat="44.88732" lon="6.68205">
        <ele>1950.3</ele>
        <time>2020-08-20T09:40:40Z</time>
      </trkpt>
      <trkpt lat="44.8873" lon="6.68218">
        <ele>1950.7</ele>
        <time>2020-08-20T09:40:47Z</time>
      </trkpt>
      <trkpt lat="44.88727" lon="6.68231">
        <ele>1950.9</ele>
        <time>2020-08-20T09:40:53Z</time>
      </trkpt>
      <trkpt lat="44.88725" lon="6.68245">
        <ele>1951.2</ele>
        <time>2020-08-20T09:41:00Z</time>
      </trkpt>
      <trkpt lat="44.88721" lon="6.68258">
        <ele>1951.4</ele>
        <time>2020-08-20T09:41:07Z</time>
      </trkpt>
      <trkpt lat="44.88716" lon="6.68271">
        <ele>1951.7</ele>
        <time>2020-08-20T09:41:14Z</time>
      </trkpt>
      <trkpt lat="44.88711" lon="6.68284">
        <ele>1952.2</ele>
        <time>2020-08-20T09:41:22Z</time>
      </trkpt>
      <trkpt lat="44.88708" lon="6.68297">
        <ele>1952.6</ele>
        <time>2020-08-20T09:41:30Z</time>
      </trkpt>
      <trkpt lat="44.88705" lon="6.68309">
        <ele>1953</ele>
        <time>2020-08-20T09:41:38Z</time>
      </trkpt>
      <trkpt lat="44.88701" lon="6.68322">
        <ele>1953.2</ele>
        <time>2020-08-20T09:41:43Z</time>
      </trkpt>
      <trkpt lat="44.88697" lon="6.68333">
        <ele>1953.5</ele>
        <time>2020-08-20T09:41:49Z</time>
      </trkpt>
      <trkpt lat="44.88693" lon="6.68345">
        <ele>1953.8</ele>
        <time>2020-08-20T09:41:55Z</time>
      </trkpt>
      <trkpt lat="44.88688" lon="6.68357">
        <ele>1954.2</ele>
        <time>2020-08-20T09:42:02Z</time>
      </trkpt>
      <trkpt lat="44.88683" lon="6.68369">
        <ele>1954.4</ele>
        <time>2020-08-20T09:42:08Z</time>
      </trkpt>
      <trkpt lat="44.88678" lon="6.68381">
        <ele>1954.8</ele>
        <time>2020-08-20T09:42:15Z</time>
      </trkpt>
      <trkpt lat="44.88676" lon="6.68394">
        <ele>1955.2</ele>
        <time>2020-08-20T09:42:21Z</time>
      </trkpt>
      <trkpt lat="44.88671" lon="6.68406">
        <ele>1955.7</ele>
        <time>2020-08-20T09:42:28Z</time>
      </trkpt>
      <trkpt lat="44.88667" lon="6.68418">
        <ele>1956.1</ele>
        <time>2020-08-20T09:42:34Z</time>
      </trkpt>
      <trkpt lat="44.88664" lon="6.68431">
        <ele>1956.4</ele>
        <time>2020-08-20T09:42:39Z</time>
      </trkpt>
      <trkpt lat="44.8866" lon="6.68443">
        <ele>1956.9</ele>
        <time>2020-08-20T09:42:45Z</time>
      </trkpt>
      <trkpt lat="44.88658" lon="6.68457">
        <ele>1957.4</ele>
        <time>2020-08-20T09:42:52Z</time>
      </trkpt>
      <trkpt lat="44.88659" lon="6.68471">
        <ele>1957.8</ele>
        <time>2020-08-20T09:42:58Z</time>
      </trkpt>
      <trkpt lat="44.88662" lon="6.68483">
        <ele>1958.2</ele>
        <time>2020-08-20T09:43:04Z</time>
      </trkpt>
      <trkpt lat="44.88667" lon="6.68496">
        <ele>1958.6</ele>
        <time>2020-08-20T09:43:11Z</time>
      </trkpt>
      <trkpt lat="44.88673" lon="6.68507">
        <ele>1959</ele>
        <time>2020-08-20T09:43:18Z</time>
      </trkpt>
      <trkpt lat="44.88681" lon="6.68514">
        <ele>1959.3</ele>
        <time>2020-08-20T09:43:24Z</time>
      </trkpt>
      <trkpt lat="44.88688" lon="6.68522">
        <ele>1959.6</ele>
        <time>2020-08-20T09:43:31Z</time>
      </trkpt>
      <trkpt lat="44.88698" lon="6.68527">
        <ele>1960</ele>
        <time>2020-08-20T09:43:39Z</time>
      </trkpt>
      <trkpt lat="44.88706" lon="6.68535">
        <ele>1960.4</ele>
        <time>2020-08-20T09:43:46Z</time>
      </trkpt>
      <trkpt lat="44.88711" lon="6.68547">
        <ele>1960.6</ele>
        <time>2020-08-20T09:43:52Z</time>
      </trkpt>
      <trkpt lat="44.88718" lon="6.68554">
        <ele>1960.9</ele>
        <time>2020-08-20T09:43:59Z</time>
      </trkpt>
      <trkpt lat="44.88728" lon="6.68558">
        <ele>1961.2</ele>
        <time>2020-08-20T09:44:06Z</time>
      </trkpt>
      <trkpt lat="44.88737" lon="6.68564">
        <ele>1961.6</ele>
        <time>2020-08-20T09:44:13Z</time>
      </trkpt>
      <trkpt lat="44.88745" lon="6.68569">
        <ele>1961.8</ele>
        <time>2020-08-20T09:44:18Z</time>
      </trkpt>
      <trkpt lat="44.88751" lon="6.68582">
        <ele>1962.3</ele>
        <time>2020-08-20T09:44:25Z</time>
      </trkpt>
      <trkpt lat="44.88753" lon="6.68596">
        <ele>1962.7</ele>
        <time>2020-08-20T09:44:31Z</time>
      </trkpt>
      <trkpt lat="44.88758" lon="6.68609">
        <ele>1963</ele>
        <time>2020-08-20T09:44:37Z</time>
      </trkpt>
      <trkpt lat="44.88759" lon="6.68622">
        <ele>1963.3</ele>
        <time>2020-08-20T09:44:42Z</time>
      </trkpt>
      <trkpt lat="44.88762" lon="6.68634">
        <ele>1963.5</ele>
        <time>2020-08-20T09:44:48Z</time>
      </trkpt>
      <trkpt lat="44.88768" lon="6.68645">
        <ele>1963.8</ele>
        <time>2020-08-20T09:44:54Z</time>
      </trkpt>
      <trkpt lat="44.88774" lon="6.68655">
        <ele>1964.1</ele>
        <time>2020-08-20T09:45:00Z</time>
      </trkpt>
      <trkpt lat="44.88781" lon="6.68666">
        <ele>1964.4</ele>
        <time>2020-08-20T09:45:07Z</time>
      </trkpt>
      <trkpt lat="44.88788" lon="6.68676">
        <ele>1964.7</ele>
        <time>2020-08-20T09:45:14Z</time>
      </trkpt>
      <trkpt lat="44.88795" lon="6.68686">
        <ele>1964.9</ele>
        <time>2020-08-20T09:45:21Z</time>
      </trkpt>
      <trkpt lat="44.88802" lon="6.68697">
        <ele>1965.1</ele>
        <time>2020-08-20T09:45:28Z</time>
      </trkpt>
      <trkpt lat="44.88804" lon="6.68711">
        <ele>1965.2</ele>
        <time>2020-08-20T09:45:34Z</time>
      </trkpt>
      <trkpt lat="44.88807" lon="6.68724">
        <ele>1965.6</ele>
        <time>2020-08-20T09:45:41Z</time>
      </trkpt>
      <trkpt lat="44.88808" lon="6.68737">
        <ele>1965.8</ele>
        <time>2020-08-20T09:45:48Z</time>
      </trkpt>
      <trkpt lat="44.88807" lon="6.6875">
        <ele>1966</ele>
        <time>2020-08-20T09:45:54Z</time>
      </trkpt>
      <trkpt lat="44.88806" lon="6.68763">
        <ele>1966.4</ele>
        <time>2020-08-20T09:46:01Z</time>
      </trkpt>
      <trkpt lat="44.88809" lon="6.68776">
        <ele>1967.1</ele>
        <time>2020-08-20T09:46:08Z</time>
      </trkpt>
      <trkpt lat="44.88813" lon="6.68789">
        <ele>1967.9</ele>
        <time>2020-08-20T09:46:15Z</time>
      </trkpt>
      <trkpt lat="44.88818" lon="6.68801">
        <ele>1968.7</ele>
        <time>2020-08-20T09:46:22Z</time>
      </trkpt>
      <trkpt lat="44.88823" lon="6.68812">
        <ele>1969.5</ele>
        <time>2020-08-20T09:46:28Z</time>
      </trkpt>
      <trkpt lat="44.88827" lon="6.68824">
        <ele>1970.5</ele>
        <time>2020-08-20T09:46:36Z</time>
      </trkpt>
      <trkpt lat="44.88828" lon="6.68837">
        <ele>1971.3</ele>
        <time>2020-08-20T09:46:43Z</time>
      </trkpt>
      <trkpt lat="44.88826" lon="6.68851">
        <ele>1972.1</ele>
        <time>2020-08-20T09:46:50Z</time>
      </trkpt>
      <trkpt lat="44.88823" lon="6.68863">
        <ele>1972.9</ele>
        <time>2020-08-20T09:46:57Z</time>
      </trkpt>
      <trkpt lat="44.88819" lon="6.68875">
        <ele>1974</ele>
        <time>2020-08-20T09:47:06Z</time>
      </trkpt>
      <trkpt lat="44.88814" lon="6.68887">
        <ele>1975</ele>
        <time>2020-08-20T09:47:13Z</time>
      </trkpt>
      <trkpt lat="44.88809" lon="6.68899">
        <ele>1976.1</ele>
        <time>2020-08-20T09:47:20Z</time>
      </trkpt>
      <trkpt lat="44.88804" lon="6.6891">
        <ele>1977</ele>
        <time>2020-08-20T09:47:26Z</time>
      </trkpt>
      <trkpt lat="44.88796" lon="6.68917">
        <ele>1977.9</ele>
        <time>2020-08-20T09:47:32Z</time>
      </trkpt>
      <trkpt lat="44.8879" lon="6.68927">
        <ele>1978.8</ele>
        <time>2020-08-20T09:47:38Z</time>
      </trkpt>
      <trkpt lat="44.88789" lon="6.6894">
        <ele>1979.7</ele>
        <time>2020-08-20T09:47:45Z</time>
      </trkpt>
      <trkpt lat="44.88794" lon="6.68952">
        <ele>1980.4</ele>
        <time>2020-08-20T09:47:51Z</time>
      </trkpt>
      <trkpt lat="44.888" lon="6.68962">
        <ele>1981.1</ele>
        <time>2020-08-20T09:47:57Z</time>
      </trkpt>
      <trkpt lat="44.88808" lon="6.6897">
        <ele>1981.8</ele>
        <time>2020-08-20T09:48:02Z</time>
      </trkpt>
      <trkpt lat="44.88815" lon="6.6898">
        <ele>1982.7</ele>
        <time>2020-08-20T09:48:09Z</time>
      </trkpt>
      <trkpt lat="44.88823" lon="6.68987">
        <ele>1983.7</ele>
        <time>2020-08-20T09:48:16Z</time>
      </trkpt>
      <trkpt lat="44.88832" lon="6.68993">
        <ele>1984.9</ele>
        <time>2020-08-20T09:48:24Z</time>
      </trkpt>
      <trkpt lat="44.88841" lon="6.69001">
        <ele>1985.8</ele>
        <time>2020-08-20T09:48:31Z</time>
      </trkpt>
      <trkpt lat="44.88849" lon="6.69009">
        <ele>1986.8</ele>
        <time>2020-08-20T09:48:37Z</time>
      </trkpt>
      <trkpt lat="44.88856" lon="6.69019">
        <ele>1987.8</ele>
        <time>2020-08-20T09:48:44Z</time>
      </trkpt>
      <trkpt lat="44.88863" lon="6.69029">
        <ele>1988.9</ele>
        <time>2020-08-20T09:48:52Z</time>
      </trkpt>
      <trkpt lat="44.8887" lon="6.69038">
        <ele>1990.1</ele>
        <time>2020-08-20T09:49:00Z</time>
      </trkpt>
      <trkpt lat="44.88875" lon="6.6905">
        <ele>1991.4</ele>
        <time>2020-08-20T09:49:08Z</time>
      </trkpt>
      <trkpt lat="44.88876" lon="6.69063">
        <ele>1992.3</ele>
        <time>2020-08-20T09:49:15Z</time>
      </trkpt>
      <trkpt lat="44.88875" lon="6.69077">
        <ele>1993.3</ele>
        <time>2020-08-20T09:49:23Z</time>
      </trkpt>
      <trkpt lat="44.88874" lon="6.69091">
        <ele>1994.3</ele>
        <time>2020-08-20T09:49:31Z</time>
      </trkpt>
      <trkpt lat="44.88873" lon="6.69104">
        <ele>1995.4</ele>
        <time>2020-08-20T09:49:38Z</time>
      </trkpt>
      <trkpt lat="44.8887" lon="6.69117">
        <ele>1996.5</ele>
        <time>2020-08-20T09:49:45Z</time>
      </trkpt>
      <trkpt lat="44.88868" lon="6.69132">
        <ele>1997.5</ele>
        <time>2020-08-20T09:49:52Z</time>
      </trkpt>
      <trkpt lat="44.8887" lon="6.69146">
        <ele>1998.3</ele>
        <time>2020-08-20T09:49:59Z</time>
      </trkpt>
      <trkpt lat="44.88876" lon="6.69156">
        <ele>1998.9</ele>
        <time>2020-08-20T09:50:05Z</time>
      </trkpt>
      <trkpt lat="44.88883" lon="6.69165">
        <ele>1999.5</ele>
        <time>2020-08-20T09:50:11Z</time>
      </trkpt>
      <trkpt lat="44.8889" lon="6.69174">
        <ele>2000.2</ele>
        <time>2020-08-20T09:50:18Z</time>
      </trkpt>
      <trkpt lat="44.88898" lon="6.69181">
        <ele>2000.9</ele>
        <time>2020-08-20T09:50:26Z</time>
      </trkpt>
      <trkpt lat="44.88908" lon="6.69184">
        <ele>2002.2</ele>
        <time>2020-08-20T09:50:34Z</time>
      </trkpt>
      <trkpt lat="44.88918" lon="6.69187">
        <ele>2003.7</ele>
        <time>2020-08-20T09:50:43Z</time>
      </trkpt>
      <trkpt lat="44.88928" lon="6.69186">
        <ele>2005.1</ele>
        <time>2020-08-20T09:50:51Z</time>
      </trkpt>
      <trkpt lat="44.88938" lon="6.69186">
        <ele>2007.2</ele>
        <time>2020-08-20T09:51:02Z</time>
      </trkpt>
      <trkpt lat="44.88946" lon="6.69191">
        <ele>2008.2</ele>
        <time>2020-08-20T09:51:09Z</time>
      </trkpt>
      <trkpt lat="44.88954" lon="6.69199">
        <ele>2009.1</ele>
        <time>2020-08-20T09:51:17Z</time>
      </trkpt>
      <trkpt lat="44.88962" lon="6.69206">
        <ele>2009.6</ele>
        <time>2020-08-20T09:51:22Z</time>
      </trkpt>
      <trkpt lat="44.88971" lon="6.69214">
        <ele>2010.2</ele>
        <time>2020-08-20T09:51:27Z</time>
      </trkpt>
      <trkpt lat="44.88977" lon="6.69222">
        <ele>2010.7</ele>
        <time>2020-08-20T09:51:32Z</time>
      </trkpt>
      <trkpt lat="44.88977" lon="6.69236">
        <ele>2011.8</ele>
        <time>2020-08-20T09:51:41Z</time>
      </trkpt>
      <trkpt lat="44.88972" lon="6.69247">
        <ele>2012.7</ele>
        <time>2020-08-20T09:51:48Z</time>
      </trkpt>
      <trkpt lat="44.88965" lon="6.69257">
        <ele>2013.6</ele>
        <time>2020-08-20T09:51:55Z</time>
      </trkpt>
      <trkpt lat="44.88959" lon="6.69267">
        <ele>2014.6</ele>
        <time>2020-08-20T09:52:02Z</time>
      </trkpt>
      <trkpt lat="44.88958" lon="6.69281">
        <ele>2015.9</ele>
        <time>2020-08-20T09:52:10Z</time>
      </trkpt>
      <trkpt lat="44.88964" lon="6.69293">
        <ele>2017</ele>
        <time>2020-08-20T09:52:16Z</time>
      </trkpt>
      <trkpt lat="44.88972" lon="6.69301">
        <ele>2018.1</ele>
        <time>2020-08-20T09:52:22Z</time>
      </trkpt>
      <trkpt lat="44.88979" lon="6.6931">
        <ele>2019.4</ele>
        <time>2020-08-20T09:52:29Z</time>
      </trkpt>
      <trkpt lat="44.88985" lon="6.69321">
        <ele>2020.5</ele>
        <time>2020-08-20T09:52:36Z</time>
      </trkpt>
      <trkpt lat="44.88992" lon="6.69331">
        <ele>2021.8</ele>
        <time>2020-08-20T09:52:44Z</time>
      </trkpt>
      <trkpt lat="44.88996" lon="6.69343">
        <ele>2022.7</ele>
        <time>2020-08-20T09:52:51Z</time>
      </trkpt>
      <trkpt lat="44.88999" lon="6.69355">
        <ele>2023.8</ele>
        <time>2020-08-20T09:52:58Z</time>
      </trkpt>
      <trkpt lat="44.89001" lon="6.69369">
        <ele>2024.7</ele>
        <time>2020-08-20T09:53:06Z</time>
      </trkpt>
      <trkpt lat="44.89001" lon="6.69382">
        <ele>2025.4</ele>
        <time>2020-08-20T09:53:14Z</time>
      </trkpt>
      <trkpt lat="44.89002" lon="6.69395">
        <ele>2026.3</ele>
        <time>2020-08-20T09:53:21Z</time>
      </trkpt>
      <trkpt lat="44.89001" lon="6.69409">
        <ele>2027.2</ele>
        <time>2020-08-20T09:53:28Z</time>
      </trkpt>
      <trkpt lat="44.88998" lon="6.69422">
        <ele>2027.9</ele>
        <time>2020-08-20T09:53:35Z</time>
      </trkpt>
      <trkpt lat="44.88989" lon="6.69429">
        <ele>2028.6</ele>
        <time>2020-08-20T09:53:42Z</time>
      </trkpt>
      <trkpt lat="44.8898" lon="6.69434">
        <ele>2029.3</ele>
        <time>2020-08-20T09:53:49Z</time>
      </trkpt>
      <trkpt lat="44.88973" lon="6.69442">
        <ele>2030.1</ele>
        <time>2020-08-20T09:53:55Z</time>
      </trkpt>
      <trkpt lat="44.88965" lon="6.69451">
        <ele>2031.2</ele>
        <time>2020-08-20T09:54:03Z</time>
      </trkpt>
      <trkpt lat="44.88956" lon="6.69457">
        <ele>2032.3</ele>
        <time>2020-08-20T09:54:10Z</time>
      </trkpt>
      <trkpt lat="44.88947" lon="6.69462">
        <ele>2033.3</ele>
        <time>2020-08-20T09:54:17Z</time>
      </trkpt>
      <trkpt lat="44.88938" lon="6.69465">
        <ele>2034.4</ele>
        <time>2020-08-20T09:54:24Z</time>
      </trkpt>
      <trkpt lat="44.88928" lon="6.69466">
        <ele>2035.4</ele>
        <time>2020-08-20T09:54:31Z</time>
      </trkpt>
      <trkpt lat="44.88919" lon="6.69467">
        <ele>2036.3</ele>
        <time>2020-08-20T09:54:38Z</time>
      </trkpt>
      <trkpt lat="44.88909" lon="6.69473">
        <ele>2037.1</ele>
        <time>2020-08-20T09:54:45Z</time>
      </trkpt>
      <trkpt lat="44.88904" lon="6.69485">
        <ele>2038</ele>
        <time>2020-08-20T09:54:53Z</time>
      </trkpt>
      <trkpt lat="44.88901" lon="6.69497">
        <ele>2039</ele>
        <time>2020-08-20T09:55:00Z</time>
      </trkpt>
      <trkpt lat="44.88899" lon="6.6951">
        <ele>2040.1</ele>
        <time>2020-08-20T09:55:07Z</time>
      </trkpt>
      <trkpt lat="44.88898" lon="6.69523">
        <ele>2041.1</ele>
        <time>2020-08-20T09:55:14Z</time>
      </trkpt>
      <trkpt lat="44.88894" lon="6.69536">
        <ele>2042.3</ele>
        <time>2020-08-20T09:55:22Z</time>
      </trkpt>
      <trkpt lat="44.88887" lon="6.69545">
        <ele>2043.3</ele>
        <time>2020-08-20T09:55:29Z</time>
      </trkpt>
      <trkpt lat="44.88879" lon="6.69554">
        <ele>2044.6</ele>
        <time>2020-08-20T09:55:37Z</time>
      </trkpt>
      <trkpt lat="44.88872" lon="6.69564">
        <ele>2045.6</ele>
        <time>2020-08-20T09:55:46Z</time>
      </trkpt>
      <trkpt lat="44.88863" lon="6.69572">
        <ele>2046.3</ele>
        <time>2020-08-20T09:55:52Z</time>
      </trkpt>
      <trkpt lat="44.88856" lon="6.69582">
        <ele>2047.1</ele>
        <time>2020-08-20T09:55:58Z</time>
      </trkpt>
      <trkpt lat="44.88849" lon="6.69592">
        <ele>2047.9</ele>
        <time>2020-08-20T09:56:05Z</time>
      </trkpt>
      <trkpt lat="44.88843" lon="6.69602">
        <ele>2048.7</ele>
        <time>2020-08-20T09:56:12Z</time>
      </trkpt>
      <trkpt lat="44.88837" lon="6.69614">
        <ele>2050</ele>
        <time>2020-08-20T09:56:21Z</time>
      </trkpt>
      <trkpt lat="44.88831" lon="6.69623">
        <ele>2050.7</ele>
        <time>2020-08-20T09:56:27Z</time>
      </trkpt>
      <trkpt lat="44.88825" lon="6.69634">
        <ele>2051.7</ele>
        <time>2020-08-20T09:56:34Z</time>
      </trkpt>
      <trkpt lat="44.88822" lon="6.69647">
        <ele>2053.2</ele>
        <time>2020-08-20T09:56:44Z</time>
      </trkpt>
      <trkpt lat="44.88819" lon="6.6966">
        <ele>2054.4</ele>
        <time>2020-08-20T09:56:52Z</time>
      </trkpt>
      <trkpt lat="44.88814" lon="6.69673">
        <ele>2055.5</ele>
        <time>2020-08-20T09:56:59Z</time>
      </trkpt>
      <trkpt lat="44.88808" lon="6.69683">
        <ele>2056.5</ele>
        <time>2020-08-20T09:57:05Z</time>
      </trkpt>
      <trkpt lat="44.888" lon="6.6969">
        <ele>2057.4</ele>
        <time>2020-08-20T09:57:11Z</time>
      </trkpt>
      <trkpt lat="44.88792" lon="6.697">
        <ele>2058.3</ele>
        <time>2020-08-20T09:57:18Z</time>
      </trkpt>
      <trkpt lat="44.88784" lon="6.69708">
        <ele>2059</ele>
        <time>2020-08-20T09:57:24Z</time>
      </trkpt>
      <trkpt lat="44.88776" lon="6.69715">
        <ele>2059.9</ele>
        <time>2020-08-20T09:57:31Z</time>
      </trkpt>
      <trkpt lat="44.88767" lon="6.69722">
        <ele>2061</ele>
        <time>2020-08-20T09:57:40Z</time>
      </trkpt>
      <trkpt lat="44.88758" lon="6.69729">
        <ele>2062</ele>
        <time>2020-08-20T09:57:48Z</time>
      </trkpt>
      <trkpt lat="44.88749" lon="6.69733">
        <ele>2062.9</ele>
        <time>2020-08-20T09:57:55Z</time>
      </trkpt>
      <trkpt lat="44.8874" lon="6.6974">
        <ele>2063.8</ele>
        <time>2020-08-20T09:58:02Z</time>
      </trkpt>
      <trkpt lat="44.88732" lon="6.69746">
        <ele>2065</ele>
        <time>2020-08-20T09:58:10Z</time>
      </trkpt>
      <trkpt lat="44.88726" lon="6.69756">
        <ele>2066.7</ele>
        <time>2020-08-20T09:58:21Z</time>
      </trkpt>
      <trkpt lat="44.88724" lon="6.6977">
        <ele>2068.3</ele>
        <time>2020-08-20T09:58:30Z</time>
      </trkpt>
      <trkpt lat="44.88723" lon="6.69784">
        <ele>2069.5</ele>
        <time>2020-08-20T09:58:37Z</time>
      </trkpt>
      <trkpt lat="44.88724" lon="6.69799">
        <ele>2070.5</ele>
        <time>2020-08-20T09:58:44Z</time>
      </trkpt>
      <trkpt lat="44.88723" lon="6.69812">
        <ele>2071.5</ele>
        <time>2020-08-20T09:58:51Z</time>
      </trkpt>
      <trkpt lat="44.88722" lon="6.69825">
        <ele>2072.5</ele>
        <time>2020-08-20T09:58:58Z</time>
      </trkpt>
      <trkpt lat="44.8872" lon="6.69839">
        <ele>2073.7</ele>
        <time>2020-08-20T09:59:06Z</time>
      </trkpt>
      <trkpt lat="44.88718" lon="6.69853">
        <ele>2074.8</ele>
        <time>2020-08-20T09:59:13Z</time>
      </trkpt>
      <trkpt lat="44.88718" lon="6.69866">
        <ele>2076</ele>
        <time>2020-08-20T09:59:21Z</time>
      </trkpt>
      <trkpt lat="44.8872" lon="6.69879">
        <ele>2077</ele>
        <time>2020-08-20T09:59:28Z</time>
      </trkpt>
      <trkpt lat="44.88727" lon="6.69888">
        <ele>2077.5</ele>
        <time>2020-08-20T09:59:33Z</time>
      </trkpt>
      <trkpt lat="44.88732" lon="6.69899">
        <ele>2078.2</ele>
        <time>2020-08-20T09:59:40Z</time>
      </trkpt>
      <trkpt lat="44.88736" lon="6.69912">
        <ele>2079.3</ele>
        <time>2020-08-20T09:59:48Z</time>
      </trkpt>
      <trkpt lat="44.88739" lon="6.69924">
        <ele>2080.4</ele>
        <time>2020-08-20T09:59:56Z</time>
      </trkpt>
      <trkpt lat="44.8874" lon="6.69939">
        <ele>2081.7</ele>
        <time>2020-08-20T10:00:05Z</time>
      </trkpt>
      <trkpt lat="44.8874" lon="6.69952">
        <ele>2082.8</ele>
        <time>2020-08-20T10:00:12Z</time>
      </trkpt>
      <trkpt lat="44.88743" lon="6.69965">
        <ele>2083.9</ele>
        <time>2020-08-20T10:00:19Z</time>
      </trkpt>
      <trkpt lat="44.88749" lon="6.69975">
        <ele>2085</ele>
        <time>2020-08-20T10:00:26Z</time>
      </trkpt>
      <trkpt lat="44.88757" lon="6.69983">
        <ele>2086.4</ele>
        <time>2020-08-20T10:00:34Z</time>
      </trkpt>
      <trkpt lat="44.88765" lon="6.69987">
        <ele>2087.7</ele>
        <time>2020-08-20T10:00:42Z</time>
      </trkpt>
      <trkpt lat="44.88773" lon="6.69993">
        <ele>2088.4</ele>
        <time>2020-08-20T10:00:48Z</time>
      </trkpt>
      <trkpt lat="44.88782" lon="6.69999">
        <ele>2089.1</ele>
        <time>2020-08-20T10:00:55Z</time>
      </trkpt>
      <trkpt lat="44.88791" lon="6.69999">
        <ele>2089.9</ele>
        <time>2020-08-20T10:01:02Z</time>
      </trkpt>
      <trkpt lat="44.88792" lon="6.69985">
        <ele>2090.8</ele>
        <time>2020-08-20T10:01:09Z</time>
      </trkpt>
      <trkpt lat="44.88784" lon="6.69977">
        <ele>2091.4</ele>
        <time>2020-08-20T10:01:14Z</time>
      </trkpt>
      <trkpt lat="44.88775" lon="6.69972">
        <ele>2092</ele>
        <time>2020-08-20T10:01:19Z</time>
      </trkpt>
      <trkpt lat="44.88766" lon="6.69967">
        <ele>2092.6</ele>
        <time>2020-08-20T10:01:26Z</time>
      </trkpt>
      <trkpt lat="44.88756" lon="6.69964">
        <ele>2093.3</ele>
        <time>2020-08-20T10:01:33Z</time>
      </trkpt>
      <trkpt lat="44.88747" lon="6.69956">
        <ele>2093.9</ele>
        <time>2020-08-20T10:01:40Z</time>
      </trkpt>
      <trkpt lat="44.88746" lon="6.69943">
        <ele>2094.6</ele>
        <time>2020-08-20T10:01:47Z</time>
      </trkpt>
      <trkpt lat="44.88749" lon="6.69931">
        <ele>2095.3</ele>
        <time>2020-08-20T10:01:54Z</time>
      </trkpt>
      <trkpt lat="44.88751" lon="6.69918">
        <ele>2095.9</ele>
        <time>2020-08-20T10:02:01Z</time>
      </trkpt>
      <trkpt lat="44.88754" lon="6.69905">
        <ele>2096.7</ele>
        <time>2020-08-20T10:02:08Z</time>
      </trkpt>
      <trkpt lat="44.88755" lon="6.69891">
        <ele>2098</ele>
        <time>2020-08-20T10:02:20Z</time>
      </trkpt>
      <trkpt lat="44.88753" lon="6.69879">
        <ele>2098.8</ele>
        <time>2020-08-20T10:02:26Z</time>
      </trkpt>
      <trkpt lat="44.88753" lon="6.69864">
        <ele>2099.9</ele>
        <time>2020-08-20T10:02:34Z</time>
      </trkpt>
      <trkpt lat="44.88757" lon="6.69851">
        <ele>2100.8</ele>
        <time>2020-08-20T10:02:43Z</time>
      </trkpt>
      <trkpt lat="44.88764" lon="6.69841">
        <ele>2101.6</ele>
        <time>2020-08-20T10:02:51Z</time>
      </trkpt>
      <trkpt lat="44.88773" lon="6.69835">
        <ele>2102.4</ele>
        <time>2020-08-20T10:02:57Z</time>
      </trkpt>
      <trkpt lat="44.88782" lon="6.69829">
        <ele>2103.1</ele>
        <time>2020-08-20T10:03:04Z</time>
      </trkpt>
      <trkpt lat="44.88789" lon="6.69821">
        <ele>2104.3</ele>
        <time>2020-08-20T10:03:12Z</time>
      </trkpt>
      <trkpt lat="44.88795" lon="6.6981">
        <ele>2105.5</ele>
        <time>2020-08-20T10:03:22Z</time>
      </trkpt>
      <trkpt lat="44.88803" lon="6.69803">
        <ele>2106.6</ele>
        <time>2020-08-20T10:03:30Z</time>
      </trkpt>
      <trkpt lat="44.88812" lon="6.69797">
        <ele>2107.6</ele>
        <time>2020-08-20T10:03:38Z</time>
      </trkpt>
      <trkpt lat="44.88821" lon="6.69791">
        <ele>2108.8</ele>
        <time>2020-08-20T10:03:47Z</time>
      </trkpt>
      <trkpt lat="44.8883" lon="6.69787">
        <ele>2109.7</ele>
        <time>2020-08-20T10:03:55Z</time>
      </trkpt>
      <trkpt lat="44.88839" lon="6.69782">
        <ele>2110.6</ele>
        <time>2020-08-20T10:04:03Z</time>
      </trkpt>
      <trkpt lat="44.88848" lon="6.69776">
        <ele>2111.7</ele>
        <time>2020-08-20T10:04:11Z</time>
      </trkpt>
      <trkpt lat="44.88856" lon="6.69768">
        <ele>2112.6</ele>
        <time>2020-08-20T10:04:18Z</time>
      </trkpt>
      <trkpt lat="44.88864" lon="6.69761">
        <ele>2113.5</ele>
        <time>2020-08-20T10:04:25Z</time>
      </trkpt>
      <trkpt lat="44.88871" lon="6.69752">
        <ele>2114.6</ele>
        <time>2020-08-20T10:04:32Z</time>
      </trkpt>
      <trkpt lat="44.88879" lon="6.69744">
        <ele>2115.5</ele>
        <time>2020-08-20T10:04:39Z</time>
      </trkpt>
      <trkpt lat="44.88886" lon="6.69736">
        <ele>2116.6</ele>
        <time>2020-08-20T10:04:47Z</time>
      </trkpt>
      <trkpt lat="44.88894" lon="6.69728">
        <ele>2117.9</ele>
        <time>2020-08-20T10:04:56Z</time>
      </trkpt>
      <trkpt lat="44.88902" lon="6.6972">
        <ele>2119</ele>
        <time>2020-08-20T10:05:04Z</time>
      </trkpt>
      <trkpt lat="44.8891" lon="6.69712">
        <ele>2120.2</ele>
        <time>2020-08-20T10:05:12Z</time>
      </trkpt>
      <trkpt lat="44.88918" lon="6.69706">
        <ele>2121.2</ele>
        <time>2020-08-20T10:05:19Z</time>
      </trkpt>
      <trkpt lat="44.88927" lon="6.69701">
        <ele>2122.2</ele>
        <time>2020-08-20T10:05:27Z</time>
      </trkpt>
      <trkpt lat="44.88935" lon="6.69697">
        <ele>2123.1</ele>
        <time>2020-08-20T10:05:33Z</time>
      </trkpt>
      <trkpt lat="44.88944" lon="6.69695">
        <ele>2124.2</ele>
        <time>2020-08-20T10:05:42Z</time>
      </trkpt>
      <trkpt lat="44.88954" lon="6.69689">
        <ele>2125</ele>
        <time>2020-08-20T10:05:49Z</time>
      </trkpt>
      <trkpt lat="44.88962" lon="6.69684">
        <ele>2125.9</ele>
        <time>2020-08-20T10:05:56Z</time>
      </trkpt>
      <trkpt lat="44.88969" lon="6.69674">
        <ele>2126.8</ele>
        <time>2020-08-20T10:06:04Z</time>
      </trkpt>
      <trkpt lat="44.88974" lon="6.69662">
        <ele>2128.1</ele>
        <time>2020-08-20T10:06:14Z</time>
      </trkpt>
      <trkpt lat="44.88981" lon="6.69653">
        <ele>2128.9</ele>
        <time>2020-08-20T10:06:21Z</time>
      </trkpt>
      <trkpt lat="44.8899" lon="6.6965">
        <ele>2129.7</ele>
        <time>2020-08-20T10:06:29Z</time>
      </trkpt>
      <trkpt lat="44.89" lon="6.69647">
        <ele>2130.9</ele>
        <time>2020-08-20T10:06:38Z</time>
      </trkpt>
      <trkpt lat="44.89009" lon="6.69647">
        <ele>2131.6</ele>
        <time>2020-08-20T10:06:44Z</time>
      </trkpt>
      <trkpt lat="44.89018" lon="6.69644">
        <ele>2132.7</ele>
        <time>2020-08-20T10:06:51Z</time>
      </trkpt>
      <trkpt lat="44.89027" lon="6.6964">
        <ele>2133.6</ele>
        <time>2020-08-20T10:06:57Z</time>
      </trkpt>
      <trkpt lat="44.89038" lon="6.69638">
        <ele>2134.5</ele>
        <time>2020-08-20T10:07:04Z</time>
      </trkpt>
      <trkpt lat="44.89047" lon="6.69637">
        <ele>2135.1</ele>
        <time>2020-08-20T10:07:08Z</time>
      </trkpt>
      <trkpt lat="44.89056" lon="6.69633">
        <ele>2136.2</ele>
        <time>2020-08-20T10:07:18Z</time>
      </trkpt>
      <trkpt lat="44.89064" lon="6.69623">
        <ele>2137</ele>
        <time>2020-08-20T10:07:29Z</time>
      </trkpt>
      <trkpt lat="44.89074" lon="6.69618">
        <ele>2137.8</ele>
        <time>2020-08-20T10:07:37Z</time>
      </trkpt>
      <trkpt lat="44.8907" lon="6.69631">
        <ele>2138.8</ele>
        <time>2020-08-20T10:07:46Z</time>
      </trkpt>
      <trkpt lat="44.8906" lon="6.69634">
        <ele>2139.7</ele>
        <time>2020-08-20T10:07:53Z</time>
      </trkpt>
      <trkpt lat="44.89051" lon="6.69637">
        <ele>2140.5</ele>
        <time>2020-08-20T10:08:00Z</time>
      </trkpt>
      <trkpt lat="44.89042" lon="6.6964">
        <ele>2141.1</ele>
        <time>2020-08-20T10:08:07Z</time>
      </trkpt>
      <trkpt lat="44.89033" lon="6.69643">
        <ele>2141.8</ele>
        <time>2020-08-20T10:08:14Z</time>
      </trkpt>
      <trkpt lat="44.89023" lon="6.69647">
        <ele>2142.7</ele>
        <time>2020-08-20T10:08:22Z</time>
      </trkpt>
      <trkpt lat="44.89015" lon="6.69653">
        <ele>2143.5</ele>
        <time>2020-08-20T10:08:29Z</time>
      </trkpt>
      <trkpt lat="44.89007" lon="6.6966">
        <ele>2144.4</ele>
        <time>2020-08-20T10:08:36Z</time>
      </trkpt>
      <trkpt lat="44.88999" lon="6.6967">
        <ele>2145.5</ele>
        <time>2020-08-20T10:08:44Z</time>
      </trkpt>
      <trkpt lat="44.88995" lon="6.69681">
        <ele>2146.9</ele>
        <time>2020-08-20T10:08:54Z</time>
      </trkpt>
      <trkpt lat="44.88995" lon="6.69695">
        <ele>2148.2</ele>
        <time>2020-08-20T10:09:04Z</time>
      </trkpt>
      <trkpt lat="44.88991" lon="6.69708">
        <ele>2149.1</ele>
        <time>2020-08-20T10:09:10Z</time>
      </trkpt>
      <trkpt lat="44.88986" lon="6.69721">
        <ele>2150</ele>
        <time>2020-08-20T10:09:16Z</time>
      </trkpt>
      <trkpt lat="44.88979" lon="6.69728">
        <ele>2151</ele>
        <time>2020-08-20T10:09:23Z</time>
      </trkpt>
      <trkpt lat="44.8897" lon="6.69735">
        <ele>2152</ele>
        <time>2020-08-20T10:09:31Z</time>
      </trkpt>
      <trkpt lat="44.8896" lon="6.69738">
        <ele>2153</ele>
        <time>2020-08-20T10:09:39Z</time>
      </trkpt>
      <trkpt lat="44.88952" lon="6.69745">
        <ele>2154</ele>
        <time>2020-08-20T10:09:47Z</time>
      </trkpt>
      <trkpt lat="44.88944" lon="6.69751">
        <ele>2155</ele>
        <time>2020-08-20T10:09:55Z</time>
      </trkpt>
      <trkpt lat="44.88936" lon="6.69759">
        <ele>2155.7</ele>
        <time>2020-08-20T10:10:02Z</time>
      </trkpt>
      <trkpt lat="44.88929" lon="6.69769">
        <ele>2156.7</ele>
        <time>2020-08-20T10:10:10Z</time>
      </trkpt>
      <trkpt lat="44.88923" lon="6.69779">
        <ele>2157.6</ele>
        <time>2020-08-20T10:10:16Z</time>
      </trkpt>
      <trkpt lat="44.8892" lon="6.69792">
        <ele>2158.9</ele>
        <time>2020-08-20T10:10:25Z</time>
      </trkpt>
      <trkpt lat="44.88921" lon="6.69806">
        <ele>2160.1</ele>
        <time>2020-08-20T10:10:34Z</time>
      </trkpt>
      <trkpt lat="44.88924" lon="6.69819">
        <ele>2161.5</ele>
        <time>2020-08-20T10:10:44Z</time>
      </trkpt>
      <trkpt lat="44.88927" lon="6.69832">
        <ele>2162.7</ele>
        <time>2020-08-20T10:10:52Z</time>
      </trkpt>
      <trkpt lat="44.88928" lon="6.69845">
        <ele>2163.6</ele>
        <time>2020-08-20T10:10:59Z</time>
      </trkpt>
      <trkpt lat="44.88932" lon="6.69858">
        <ele>2165</ele>
        <time>2020-08-20T10:11:08Z</time>
      </trkpt>
      <trkpt lat="44.88937" lon="6.6987">
        <ele>2166.3</ele>
        <time>2020-08-20T10:11:16Z</time>
      </trkpt>
      <trkpt lat="44.88943" lon="6.69882">
        <ele>2167.4</ele>
        <time>2020-08-20T10:11:23Z</time>
      </trkpt>
      <trkpt lat="44.88949" lon="6.69893">
        <ele>2168.6</ele>
        <time>2020-08-20T10:11:31Z</time>
      </trkpt>
      <trkpt lat="44.88954" lon="6.69904">
        <ele>2169.8</ele>
        <time>2020-08-20T10:11:39Z</time>
      </trkpt>
      <trkpt lat="44.88958" lon="6.69916">
        <ele>2170.9</ele>
        <time>2020-08-20T10:11:47Z</time>
      </trkpt>
      <trkpt lat="44.88962" lon="6.69928">
        <ele>2172.2</ele>
        <time>2020-08-20T10:11:56Z</time>
      </trkpt>
      <trkpt lat="44.88969" lon="6.69939">
        <ele>2173.5</ele>
        <time>2020-08-20T10:12:04Z</time>
      </trkpt>
      <trkpt lat="44.88976" lon="6.69949">
        <ele>2174.7</ele>
        <time>2020-08-20T10:12:12Z</time>
      </trkpt>
      <trkpt lat="44.88984" lon="6.69957">
        <ele>2175.9</ele>
        <time>2020-08-20T10:12:20Z</time>
      </trkpt>
      <trkpt lat="44.88993" lon="6.69964">
        <ele>2177</ele>
        <time>2020-08-20T10:12:28Z</time>
      </trkpt>
      <trkpt lat="44.89" lon="6.69974">
        <ele>2178</ele>
        <time>2020-08-20T10:12:36Z</time>
      </trkpt>
      <trkpt lat="44.89005" lon="6.69986">
        <ele>2178.9</ele>
        <time>2020-08-20T10:12:44Z</time>
      </trkpt>
      <trkpt lat="44.89008" lon="6.69998">
        <ele>2180.2</ele>
        <time>2020-08-20T10:12:52Z</time>
      </trkpt>
      <trkpt lat="44.89009" lon="6.70011">
        <ele>2181.5</ele>
        <time>2020-08-20T10:12:59Z</time>
      </trkpt>
      <trkpt lat="44.89009" lon="6.70025">
        <ele>2182.7</ele>
        <time>2020-08-20T10:13:06Z</time>
      </trkpt>
      <trkpt lat="44.89008" lon="6.70039">
        <ele>2184</ele>
        <time>2020-08-20T10:13:14Z</time>
      </trkpt>
      <trkpt lat="44.89008" lon="6.70053">
        <ele>2185.3</ele>
        <time>2020-08-20T10:13:23Z</time>
      </trkpt>
      <trkpt lat="44.89011" lon="6.70065">
        <ele>2186.6</ele>
        <time>2020-08-20T10:13:32Z</time>
      </trkpt>
      <trkpt lat="44.89012" lon="6.7008">
        <ele>2187.9</ele>
        <time>2020-08-20T10:13:40Z</time>
      </trkpt>
      <trkpt lat="44.89019" lon="6.70091">
        <ele>2188.8</ele>
        <time>2020-08-20T10:13:47Z</time>
      </trkpt>
      <trkpt lat="44.89024" lon="6.70103">
        <ele>2190</ele>
        <time>2020-08-20T10:13:55Z</time>
      </trkpt>
      <trkpt lat="44.89031" lon="6.70112">
        <ele>2191.3</ele>
        <time>2020-08-20T10:14:03Z</time>
      </trkpt>
      <trkpt lat="44.89039" lon="6.7012">
        <ele>2192.6</ele>
        <time>2020-08-20T10:14:11Z</time>
      </trkpt>
      <trkpt lat="44.89048" lon="6.70127">
        <ele>2193.7</ele>
        <time>2020-08-20T10:14:19Z</time>
      </trkpt>
      <trkpt lat="44.89057" lon="6.70132">
        <ele>2195</ele>
        <time>2020-08-20T10:14:27Z</time>
      </trkpt>
      <trkpt lat="44.89066" lon="6.70137">
        <ele>2196.3</ele>
        <time>2020-08-20T10:14:35Z</time>
      </trkpt>
      <trkpt lat="44.89074" lon="6.70144">
        <ele>2197.4</ele>
        <time>2020-08-20T10:14:44Z</time>
      </trkpt>
      <trkpt lat="44.89081" lon="6.70151">
        <ele>2198.6</ele>
        <time>2020-08-20T10:14:53Z</time>
      </trkpt>
      <trkpt lat="44.8909" lon="6.70157">
        <ele>2199.4</ele>
        <time>2020-08-20T10:14:59Z</time>
      </trkpt>
      <trkpt lat="44.89098" lon="6.70164">
        <ele>2200.3</ele>
        <time>2020-08-20T10:15:06Z</time>
      </trkpt>
      <trkpt lat="44.89106" lon="6.70171">
        <ele>2201.5</ele>
        <time>2020-08-20T10:15:15Z</time>
      </trkpt>
      <trkpt lat="44.89115" lon="6.70177">
        <ele>2202.5</ele>
        <time>2020-08-20T10:15:22Z</time>
      </trkpt>
      <trkpt lat="44.8912" lon="6.70188">
        <ele>2203.6</ele>
        <time>2020-08-20T10:15:29Z</time>
      </trkpt>
      <trkpt lat="44.89124" lon="6.70202">
        <ele>2205.4</ele>
        <time>2020-08-20T10:15:40Z</time>
      </trkpt>
      <trkpt lat="44.89126" lon="6.70215">
        <ele>2206.9</ele>
        <time>2020-08-20T10:15:49Z</time>
      </trkpt>
      <trkpt lat="44.89127" lon="6.70229">
        <ele>2208.3</ele>
        <time>2020-08-20T10:15:57Z</time>
      </trkpt>
      <trkpt lat="44.89124" lon="6.70241">
        <ele>2209.6</ele>
        <time>2020-08-20T10:16:04Z</time>
      </trkpt>
      <trkpt lat="44.89121" lon="6.70254">
        <ele>2210.5</ele>
        <time>2020-08-20T10:16:12Z</time>
      </trkpt>
      <trkpt lat="44.89118" lon="6.70266">
        <ele>2211.4</ele>
        <time>2020-08-20T10:16:20Z</time>
      </trkpt>
      <trkpt lat="44.89119" lon="6.7028">
        <ele>2212.3</ele>
        <time>2020-08-20T10:16:28Z</time>
      </trkpt>
      <trkpt lat="44.89123" lon="6.70292">
        <ele>2213.3</ele>
        <time>2020-08-20T10:16:36Z</time>
      </trkpt>
      <trkpt lat="44.89131" lon="6.70302">
        <ele>2216.7</ele>
        <time>2020-08-20T10:17:29Z</time>
      </trkpt>
      <trkpt lat="44.89137" lon="6.70311">
        <ele>2217.2</ele>
        <time>2020-08-20T10:17:37Z</time>
      </trkpt>
      <trkpt lat="44.89144" lon="6.70319">
        <ele>2218.1</ele>
        <time>2020-08-20T10:17:45Z</time>
      </trkpt>
      <trkpt lat="44.89153" lon="6.70326">
        <ele>2219.1</ele>
        <time>2020-08-20T10:17:53Z</time>
      </trkpt>
      <trkpt lat="44.89162" lon="6.70334">
        <ele>2220.2</ele>
        <time>2020-08-20T10:18:01Z</time>
      </trkpt>
      <trkpt lat="44.89167" lon="6.70345">
        <ele>2221.4</ele>
        <time>2020-08-20T10:18:10Z</time>
      </trkpt>
      <trkpt lat="44.89173" lon="6.70357">
        <ele>2222.6</ele>
        <time>2020-08-20T10:18:19Z</time>
      </trkpt>
      <trkpt lat="44.8918" lon="6.70365">
        <ele>2223.8</ele>
        <time>2020-08-20T10:18:28Z</time>
      </trkpt>
      <trkpt lat="44.89189" lon="6.70368">
        <ele>2225.8</ele>
        <time>2020-08-20T10:18:49Z</time>
      </trkpt>
      <trkpt lat="44.89198" lon="6.70374">
        <ele>2227</ele>
        <time>2020-08-20T10:18:57Z</time>
      </trkpt>
      <trkpt lat="44.89206" lon="6.70381">
        <ele>2227.9</ele>
        <time>2020-08-20T10:19:04Z</time>
      </trkpt>
      <trkpt lat="44.89209" lon="6.70394">
        <ele>2229.3</ele>
        <time>2020-08-20T10:19:13Z</time>
      </trkpt>
      <trkpt lat="44.89213" lon="6.70407">
        <ele>2230.4</ele>
        <time>2020-08-20T10:19:22Z</time>
      </trkpt>
      <trkpt lat="44.89218" lon="6.70418">
        <ele>2231.6</ele>
        <time>2020-08-20T10:19:30Z</time>
      </trkpt>
      <trkpt lat="44.89224" lon="6.70428">
        <ele>2232.5</ele>
        <time>2020-08-20T10:19:37Z</time>
      </trkpt>
      <trkpt lat="44.8923" lon="6.70438">
        <ele>2233.5</ele>
        <time>2020-08-20T10:19:45Z</time>
      </trkpt>
      <trkpt lat="44.89236" lon="6.70448">
        <ele>2234.7</ele>
        <time>2020-08-20T10:19:53Z</time>
      </trkpt>
      <trkpt lat="44.89243" lon="6.70457">
        <ele>2235.8</ele>
        <time>2020-08-20T10:20:01Z</time>
      </trkpt>
      <trkpt lat="44.8925" lon="6.70467">
        <ele>2236.9</ele>
        <time>2020-08-20T10:20:09Z</time>
      </trkpt>
      <trkpt lat="44.89257" lon="6.70475">
        <ele>2238.1</ele>
        <time>2020-08-20T10:20:17Z</time>
      </trkpt>
      <trkpt lat="44.89264" lon="6.70483">
        <ele>2239.2</ele>
        <time>2020-08-20T10:20:25Z</time>
      </trkpt>
      <trkpt lat="44.89273" lon="6.70492">
        <ele>2240.6</ele>
        <time>2020-08-20T10:20:34Z</time>
      </trkpt>
      <trkpt lat="44.89278" lon="6.70503">
        <ele>2242.1</ele>
        <time>2020-08-20T10:20:43Z</time>
      </trkpt>
      <trkpt lat="44.89277" lon="6.70515">
        <ele>2243.4</ele>
        <time>2020-08-20T10:20:52Z</time>
      </trkpt>
      <trkpt lat="44.89275" lon="6.70529">
        <ele>2246.3</ele>
        <time>2020-08-20T10:21:23Z</time>
      </trkpt>
      <trkpt lat="44.89273" lon="6.70542">
        <ele>2247.1</ele>
        <time>2020-08-20T10:21:31Z</time>
      </trkpt>
      <trkpt lat="44.89272" lon="6.70556">
        <ele>2248</ele>
        <time>2020-08-20T10:21:39Z</time>
      </trkpt>
      <trkpt lat="44.89271" lon="6.7057">
        <ele>2248.9</ele>
        <time>2020-08-20T10:21:47Z</time>
      </trkpt>
      <trkpt lat="44.8927" lon="6.70583">
        <ele>2250</ele>
        <time>2020-08-20T10:21:55Z</time>
      </trkpt>
      <trkpt lat="44.89269" lon="6.70597">
        <ele>2251</ele>
        <time>2020-08-20T10:22:03Z</time>
      </trkpt>
      <trkpt lat="44.89267" lon="6.7061">
        <ele>2252.2</ele>
        <time>2020-08-20T10:22:11Z</time>
      </trkpt>
      <trkpt lat="44.89264" lon="6.70623">
        <ele>2253.5</ele>
        <time>2020-08-20T10:22:20Z</time>
      </trkpt>
      <trkpt lat="44.89259" lon="6.70634">
        <ele>2255.1</ele>
        <time>2020-08-20T10:22:30Z</time>
      </trkpt>
      <trkpt lat="44.89252" lon="6.70641">
        <ele>2256.7</ele>
        <time>2020-08-20T10:22:40Z</time>
      </trkpt>
      <trkpt lat="44.89244" lon="6.70649">
        <ele>2258</ele>
        <time>2020-08-20T10:22:49Z</time>
      </trkpt>
      <trkpt lat="44.89237" lon="6.70659">
        <ele>2259.2</ele>
        <time>2020-08-20T10:22:58Z</time>
      </trkpt>
      <trkpt lat="44.89233" lon="6.70671">
        <ele>2260.4</ele>
        <time>2020-08-20T10:23:06Z</time>
      </trkpt>
      <trkpt lat="44.89229" lon="6.70684">
        <ele>2261.8</ele>
        <time>2020-08-20T10:23:15Z</time>
      </trkpt>
      <trkpt lat="44.89224" lon="6.70697">
        <ele>2263</ele>
        <time>2020-08-20T10:23:23Z</time>
      </trkpt>
      <trkpt lat="44.8922" lon="6.70709">
        <ele>2264.1</ele>
        <time>2020-08-20T10:23:30Z</time>
      </trkpt>
      <trkpt lat="44.89217" lon="6.70722">
        <ele>2265.5</ele>
        <time>2020-08-20T10:23:39Z</time>
      </trkpt>
      <trkpt lat="44.89216" lon="6.70735">
        <ele>2266.6</ele>
        <time>2020-08-20T10:23:47Z</time>
      </trkpt>
      <trkpt lat="44.89213" lon="6.70749">
        <ele>2267.6</ele>
        <time>2020-08-20T10:23:55Z</time>
      </trkpt>
      <trkpt lat="44.89209" lon="6.70761">
        <ele>2268.7</ele>
        <time>2020-08-20T10:24:05Z</time>
      </trkpt>
      <trkpt lat="44.89206" lon="6.70773">
        <ele>2269.8</ele>
        <time>2020-08-20T10:24:14Z</time>
      </trkpt>
      <trkpt lat="44.8921" lon="6.70786">
        <ele>2271</ele>
        <time>2020-08-20T10:24:23Z</time>
      </trkpt>
      <trkpt lat="44.89218" lon="6.70781">
        <ele>2273.3</ele>
        <time>2020-08-20T10:24:37Z</time>
      </trkpt>
      <trkpt lat="44.89224" lon="6.70771">
        <ele>2274.4</ele>
        <time>2020-08-20T10:24:45Z</time>
      </trkpt>
      <trkpt lat="44.89228" lon="6.70759">
        <ele>2275.5</ele>
        <time>2020-08-20T10:24:53Z</time>
      </trkpt>
      <trkpt lat="44.89232" lon="6.70748">
        <ele>2276.4</ele>
        <time>2020-08-20T10:25:00Z</time>
      </trkpt>
      <trkpt lat="44.89237" lon="6.70736">
        <ele>2277.6</ele>
        <time>2020-08-20T10:25:09Z</time>
      </trkpt>
      <trkpt lat="44.89244" lon="6.70726">
        <ele>2278.5</ele>
        <time>2020-08-20T10:25:17Z</time>
      </trkpt>
      <trkpt lat="44.89252" lon="6.70719">
        <ele>2279.9</ele>
        <time>2020-08-20T10:25:26Z</time>
      </trkpt>
      <trkpt lat="44.8926" lon="6.70713">
        <ele>2281.2</ele>
        <time>2020-08-20T10:25:36Z</time>
      </trkpt>
      <trkpt lat="44.8927" lon="6.7071">
        <ele>2282.5</ele>
        <time>2020-08-20T10:25:45Z</time>
      </trkpt>
      <trkpt lat="44.89279" lon="6.70706">
        <ele>2283.7</ele>
        <time>2020-08-20T10:25:54Z</time>
      </trkpt>
      <trkpt lat="44.89287" lon="6.70701">
        <ele>2284.8</ele>
        <time>2020-08-20T10:26:02Z</time>
      </trkpt>
      <trkpt lat="44.89296" lon="6.70694">
        <ele>2286.2</ele>
        <time>2020-08-20T10:26:11Z</time>
      </trkpt>
      <trkpt lat="44.89305" lon="6.70687">
        <ele>2287.6</ele>
        <time>2020-08-20T10:26:20Z</time>
      </trkpt>
      <trkpt lat="44.89312" lon="6.70679">
        <ele>2288.9</ele>
        <time>2020-08-20T10:26:28Z</time>
      </trkpt>
      <trkpt lat="44.8932" lon="6.70672">
        <ele>2290.1</ele>
        <time>2020-08-20T10:26:36Z</time>
      </trkpt>
      <trkpt lat="44.89328" lon="6.70664">
        <ele>2291.1</ele>
        <time>2020-08-20T10:26:44Z</time>
      </trkpt>
      <trkpt lat="44.89336" lon="6.70656">
        <ele>2292.3</ele>
        <time>2020-08-20T10:26:52Z</time>
      </trkpt>
      <trkpt lat="44.89343" lon="6.70647">
        <ele>2293.5</ele>
        <time>2020-08-20T10:27:00Z</time>
      </trkpt>
      <trkpt lat="44.8935" lon="6.70638">
        <ele>2294.7</ele>
        <time>2020-08-20T10:27:08Z</time>
      </trkpt>
      <trkpt lat="44.89358" lon="6.70629">
        <ele>2295.7</ele>
        <time>2020-08-20T10:27:16Z</time>
      </trkpt>
      <trkpt lat="44.89365" lon="6.7062">
        <ele>2296.5</ele>
        <time>2020-08-20T10:27:24Z</time>
      </trkpt>
      <trkpt lat="44.89371" lon="6.70609">
        <ele>2297.4</ele>
        <time>2020-08-20T10:27:31Z</time>
      </trkpt>
      <trkpt lat="44.89377" lon="6.70598">
        <ele>2298.4</ele>
        <time>2020-08-20T10:27:39Z</time>
      </trkpt>
      <trkpt lat="44.8938" lon="6.70585">
        <ele>2299.6</ele>
        <time>2020-08-20T10:27:48Z</time>
      </trkpt>
      <trkpt lat="44.89384" lon="6.70572">
        <ele>2300.6</ele>
        <time>2020-08-20T10:27:55Z</time>
      </trkpt>
      <trkpt lat="44.89388" lon="6.7056">
        <ele>2302.4</ele>
        <time>2020-08-20T10:28:09Z</time>
      </trkpt>
      <trkpt lat="44.89391" lon="6.70548">
        <ele>2303.3</ele>
        <time>2020-08-20T10:28:16Z</time>
      </trkpt>
      <trkpt lat="44.89396" lon="6.70536">
        <ele>2304.3</ele>
        <time>2020-08-20T10:28:23Z</time>
      </trkpt>
      <trkpt lat="44.89399" lon="6.70524">
        <ele>2305.4</ele>
        <time>2020-08-20T10:28:31Z</time>
      </trkpt>
      <trkpt lat="44.89403" lon="6.70511">
        <ele>2306.4</ele>
        <time>2020-08-20T10:28:38Z</time>
      </trkpt>
      <trkpt lat="44.89407" lon="6.70497">
        <ele>2307.5</ele>
        <time>2020-08-20T10:28:46Z</time>
      </trkpt>
      <trkpt lat="44.89409" lon="6.70484">
        <ele>2309.1</ele>
        <time>2020-08-20T10:28:59Z</time>
      </trkpt>
      <trkpt lat="44.89412" lon="6.70472">
        <ele>2310.1</ele>
        <time>2020-08-20T10:29:07Z</time>
      </trkpt>
      <trkpt lat="44.89414" lon="6.70459">
        <ele>2311.3</ele>
        <time>2020-08-20T10:29:15Z</time>
      </trkpt>
      <trkpt lat="44.89416" lon="6.70445">
        <ele>2312.3</ele>
        <time>2020-08-20T10:29:23Z</time>
      </trkpt>
      <trkpt lat="44.89418" lon="6.70432">
        <ele>2313.2</ele>
        <time>2020-08-20T10:29:30Z</time>
      </trkpt>
      <trkpt lat="44.89419" lon="6.70418">
        <ele>2314.2</ele>
        <time>2020-08-20T10:29:38Z</time>
      </trkpt>
      <trkpt lat="44.8942" lon="6.70405">
        <ele>2315.5</ele>
        <time>2020-08-20T10:29:47Z</time>
      </trkpt>
      <trkpt lat="44.89422" lon="6.70392">
        <ele>2316.7</ele>
        <time>2020-08-20T10:29:55Z</time>
      </trkpt>
      <trkpt lat="44.89424" lon="6.70379">
        <ele>2317.6</ele>
        <time>2020-08-20T10:30:03Z</time>
      </trkpt>
      <trkpt lat="44.89426" lon="6.70366">
        <ele>2318.6</ele>
        <time>2020-08-20T10:30:11Z</time>
      </trkpt>
      <trkpt lat="44.89428" lon="6.70352">
        <ele>2319.5</ele>
        <time>2020-08-20T10:30:19Z</time>
      </trkpt>
      <trkpt lat="44.8943" lon="6.70338">
        <ele>2320.6</ele>
        <time>2020-08-20T10:30:28Z</time>
      </trkpt>
      <trkpt lat="44.89432" lon="6.70325">
        <ele>2321.5</ele>
        <time>2020-08-20T10:30:37Z</time>
      </trkpt>
      <trkpt lat="44.89431" lon="6.70312">
        <ele>2322.2</ele>
        <time>2020-08-20T10:30:45Z</time>
      </trkpt>
      <trkpt lat="44.89431" lon="6.70299">
        <ele>2322.9</ele>
        <time>2020-08-20T10:30:53Z</time>
      </trkpt>
      <trkpt lat="44.89435" lon="6.70286">
        <ele>2323.6</ele>
        <time>2020-08-20T10:31:02Z</time>
      </trkpt>
      <trkpt lat="44.89441" lon="6.70275">
        <ele>2324.2</ele>
        <time>2020-08-20T10:31:11Z</time>
      </trkpt>
      <trkpt lat="44.89447" lon="6.70265">
        <ele>2324.6</ele>
        <time>2020-08-20T10:31:19Z</time>
      </trkpt>
      <trkpt lat="44.89449" lon="6.70252">
        <ele>2325.1</ele>
        <time>2020-08-20T10:31:28Z</time>
      </trkpt>
      <trkpt lat="44.89451" lon="6.70239">
        <ele>2326.1</ele>
        <time>2020-08-20T10:31:38Z</time>
      </trkpt>
      <trkpt lat="44.89456" lon="6.70228">
        <ele>2327</ele>
        <time>2020-08-20T10:31:47Z</time>
      </trkpt>
      <trkpt lat="44.8945" lon="6.70208">
        <ele>2335</ele>
        <time>2020-08-20T10:37:23Z</time>
      </trkpt>
      <trkpt lat="44.89456" lon="6.70192">
        <ele>2339.7</ele>
        <time>2020-08-20T10:51:26Z</time>
      </trkpt>
      <trkpt lat="44.89458" lon="6.70205">
        <ele>2339.7</ele>
        <time>2020-08-20T10:52:01Z</time>
      </trkpt>
      <trkpt lat="44.89454" lon="6.70216">
        <ele>2337.7</ele>
        <time>2020-08-20T11:35:44Z</time>
      </trkpt>
      <trkpt lat="44.89447" lon="6.70225">
        <ele>2358.1</ele>
        <time>2020-08-20T12:30:18Z</time>
      </trkpt>
      <trkpt lat="44.89447" lon="6.70239">
        <ele>2357</ele>
        <time>2020-08-20T12:32:45Z</time>
      </trkpt>
      <trkpt lat="44.89447" lon="6.70252">
        <ele>2356.3</ele>
        <time>2020-08-20T12:32:54Z</time>
      </trkpt>
      <trkpt lat="44.89444" lon="6.70266">
        <ele>2355.7</ele>
        <time>2020-08-20T12:33:01Z</time>
      </trkpt>
      <trkpt lat="44.89438" lon="6.70277">
        <ele>2354.9</ele>
        <time>2020-08-20T12:33:09Z</time>
      </trkpt>
      <trkpt lat="44.89433" lon="6.70288">
        <ele>2354.3</ele>
        <time>2020-08-20T12:33:17Z</time>
      </trkpt>
      <trkpt lat="44.89429" lon="6.70301">
        <ele>2353.8</ele>
        <time>2020-08-20T12:33:26Z</time>
      </trkpt>
      <trkpt lat="44.89431" lon="6.70314">
        <ele>2353.1</ele>
        <time>2020-08-20T12:33:33Z</time>
      </trkpt>
      <trkpt lat="44.89437" lon="6.70325">
        <ele>2352.5</ele>
        <time>2020-08-20T12:33:41Z</time>
      </trkpt>
      <trkpt lat="44.89442" lon="6.70337">
        <ele>2352.2</ele>
        <time>2020-08-20T12:33:49Z</time>
      </trkpt>
      <trkpt lat="44.89445" lon="6.7035">
        <ele>2351.9</ele>
        <time>2020-08-20T12:33:57Z</time>
      </trkpt>
      <trkpt lat="44.89448" lon="6.70362">
        <ele>2351.8</ele>
        <time>2020-08-20T12:34:05Z</time>
      </trkpt>
      <trkpt lat="44.8945" lon="6.70375">
        <ele>2351.9</ele>
        <time>2020-08-20T12:34:13Z</time>
      </trkpt>
      <trkpt lat="44.89453" lon="6.70388">
        <ele>2352.7</ele>
        <time>2020-08-20T12:34:21Z</time>
      </trkpt>
      <trkpt lat="44.89453" lon="6.70402">
        <ele>2354.1</ele>
        <time>2020-08-20T12:34:30Z</time>
      </trkpt>
      <trkpt lat="44.89456" lon="6.70415">
        <ele>2356</ele>
        <time>2020-08-20T12:34:38Z</time>
      </trkpt>
      <trkpt lat="44.89458" lon="6.70428">
        <ele>2357.7</ele>
        <time>2020-08-20T12:34:46Z</time>
      </trkpt>
      <trkpt lat="44.8946" lon="6.7044">
        <ele>2358</ele>
        <time>2020-08-20T12:34:54Z</time>
      </trkpt>
      <trkpt lat="44.89462" lon="6.70453">
        <ele>2358.1</ele>
        <time>2020-08-20T12:35:02Z</time>
      </trkpt>
      <trkpt lat="44.89465" lon="6.70466">
        <ele>2358.5</ele>
        <time>2020-08-20T12:35:11Z</time>
      </trkpt>
      <trkpt lat="44.89468" lon="6.7048">
        <ele>2359.1</ele>
        <time>2020-08-20T12:35:20Z</time>
      </trkpt>
      <trkpt lat="44.8947" lon="6.70493">
        <ele>2359.7</ele>
        <time>2020-08-20T12:35:28Z</time>
      </trkpt>
      <trkpt lat="44.89472" lon="6.70505">
        <ele>2360.4</ele>
        <time>2020-08-20T12:35:36Z</time>
      </trkpt>
      <trkpt lat="44.89474" lon="6.70519">
        <ele>2361.4</ele>
        <time>2020-08-20T12:35:45Z</time>
      </trkpt>
      <trkpt lat="44.89477" lon="6.70533">
        <ele>2362.6</ele>
        <time>2020-08-20T12:35:54Z</time>
      </trkpt>
      <trkpt lat="44.8948" lon="6.70545">
        <ele>2363.7</ele>
        <time>2020-08-20T12:36:02Z</time>
      </trkpt>
      <trkpt lat="44.89483" lon="6.70557">
        <ele>2364.6</ele>
        <time>2020-08-20T12:36:10Z</time>
      </trkpt>
      <trkpt lat="44.89485" lon="6.7057">
        <ele>2365.3</ele>
        <time>2020-08-20T12:36:18Z</time>
      </trkpt>
      <trkpt lat="44.89485" lon="6.70584">
        <ele>2365.8</ele>
        <time>2020-08-20T12:36:26Z</time>
      </trkpt>
      <trkpt lat="44.89485" lon="6.70597">
        <ele>2366.3</ele>
        <time>2020-08-20T12:36:34Z</time>
      </trkpt>
      <trkpt lat="44.89485" lon="6.7061">
        <ele>2368.6</ele>
        <time>2020-08-20T12:37:18Z</time>
      </trkpt>
      <trkpt lat="44.89483" lon="6.70623">
        <ele>2368.8</ele>
        <time>2020-08-20T12:37:37Z</time>
      </trkpt>
      <trkpt lat="44.89481" lon="6.70637">
        <ele>2369</ele>
        <time>2020-08-20T12:37:43Z</time>
      </trkpt>
      <trkpt lat="44.8948" lon="6.7065">
        <ele>2369.4</ele>
        <time>2020-08-20T12:37:50Z</time>
      </trkpt>
      <trkpt lat="44.89479" lon="6.70662">
        <ele>2369.9</ele>
        <time>2020-08-20T12:37:57Z</time>
      </trkpt>
      <trkpt lat="44.89477" lon="6.70675">
        <ele>2370.5</ele>
        <time>2020-08-20T12:38:04Z</time>
      </trkpt>
      <trkpt lat="44.89476" lon="6.70689">
        <ele>2371.3</ele>
        <time>2020-08-20T12:38:12Z</time>
      </trkpt>
      <trkpt lat="44.89475" lon="6.70703">
        <ele>2372</ele>
        <time>2020-08-20T12:38:20Z</time>
      </trkpt>
      <trkpt lat="44.89475" lon="6.70717">
        <ele>2372.8</ele>
        <time>2020-08-20T12:38:28Z</time>
      </trkpt>
      <trkpt lat="44.89474" lon="6.7073">
        <ele>2373.7</ele>
        <time>2020-08-20T12:38:36Z</time>
      </trkpt>
      <trkpt lat="44.89471" lon="6.70743">
        <ele>2374.5</ele>
        <time>2020-08-20T12:38:44Z</time>
      </trkpt>
      <trkpt lat="44.89469" lon="6.70756">
        <ele>2375.2</ele>
        <time>2020-08-20T12:38:52Z</time>
      </trkpt>
      <trkpt lat="44.89468" lon="6.7077">
        <ele>2375.8</ele>
        <time>2020-08-20T12:39:00Z</time>
      </trkpt>
      <trkpt lat="44.89468" lon="6.70784">
        <ele>2376.9</ele>
        <time>2020-08-20T12:39:08Z</time>
      </trkpt>
      <trkpt lat="44.89467" lon="6.70798">
        <ele>2378</ele>
        <time>2020-08-20T12:39:16Z</time>
      </trkpt>
      <trkpt lat="44.89468" lon="6.70812">
        <ele>2378.7</ele>
        <time>2020-08-20T12:39:24Z</time>
      </trkpt>
      <trkpt lat="44.89471" lon="6.70826">
        <ele>2379.2</ele>
        <time>2020-08-20T12:39:32Z</time>
      </trkpt>
      <trkpt lat="44.89474" lon="6.7084">
        <ele>2379.8</ele>
        <time>2020-08-20T12:39:40Z</time>
      </trkpt>
      <trkpt lat="44.89476" lon="6.70852">
        <ele>2380.3</ele>
        <time>2020-08-20T12:39:48Z</time>
      </trkpt>
      <trkpt lat="44.89473" lon="6.70865">
        <ele>2380.8</ele>
        <time>2020-08-20T12:39:55Z</time>
      </trkpt>
      <trkpt lat="44.89471" lon="6.70878">
        <ele>2381.3</ele>
        <time>2020-08-20T12:40:04Z</time>
      </trkpt>
      <trkpt lat="44.89468" lon="6.7089">
        <ele>2381.3</ele>
        <time>2020-08-20T12:40:15Z</time>
      </trkpt>
      <trkpt lat="44.8947" lon="6.70903">
        <ele>2380.7</ele>
        <time>2020-08-20T12:40:26Z</time>
      </trkpt>
      <trkpt lat="44.8947" lon="6.70917">
        <ele>2377.2</ele>
        <time>2020-08-20T12:47:31Z</time>
      </trkpt>
      <trkpt lat="44.89461" lon="6.7092">
        <ele>2378.6</ele>
        <time>2020-08-20T12:48:21Z</time>
      </trkpt>
      <trkpt lat="44.89452" lon="6.70919">
        <ele>2378.5</ele>
        <time>2020-08-20T12:48:30Z</time>
      </trkpt>
      <trkpt lat="44.89444" lon="6.70929">
        <ele>2378.5</ele>
        <time>2020-08-20T12:48:42Z</time>
      </trkpt>
      <trkpt lat="44.89441" lon="6.70942">
        <ele>2378.6</ele>
        <time>2020-08-20T12:48:49Z</time>
      </trkpt>
      <trkpt lat="44.89437" lon="6.70954">
        <ele>2378.7</ele>
        <time>2020-08-20T12:48:56Z</time>
      </trkpt>
      <trkpt lat="44.89433" lon="6.70967">
        <ele>2379.1</ele>
        <time>2020-08-20T12:49:04Z</time>
      </trkpt>
      <trkpt lat="44.89426" lon="6.70977">
        <ele>2379.8</ele>
        <time>2020-08-20T12:49:12Z</time>
      </trkpt>
      <trkpt lat="44.89418" lon="6.70983">
        <ele>2380.6</ele>
        <time>2020-08-20T12:49:20Z</time>
      </trkpt>
      <trkpt lat="44.89408" lon="6.70986">
        <ele>2381.3</ele>
        <time>2020-08-20T12:49:28Z</time>
      </trkpt>
      <trkpt lat="44.89399" lon="6.70991">
        <ele>2382.2</ele>
        <time>2020-08-20T12:49:36Z</time>
      </trkpt>
      <trkpt lat="44.8939" lon="6.70997">
        <ele>2383.5</ele>
        <time>2020-08-20T12:49:45Z</time>
      </trkpt>
      <trkpt lat="44.89383" lon="6.71006">
        <ele>2384.7</ele>
        <time>2020-08-20T12:49:53Z</time>
      </trkpt>
      <trkpt lat="44.89377" lon="6.71016">
        <ele>2385.9</ele>
        <time>2020-08-20T12:50:02Z</time>
      </trkpt>
      <trkpt lat="44.89368" lon="6.71021">
        <ele>2386.5</ele>
        <time>2020-08-20T12:50:10Z</time>
      </trkpt>
      <trkpt lat="44.89359" lon="6.71024">
        <ele>2387.3</ele>
        <time>2020-08-20T12:50:18Z</time>
      </trkpt>
      <trkpt lat="44.8935" lon="6.71027">
        <ele>2387.8</ele>
        <time>2020-08-20T12:50:25Z</time>
      </trkpt>
      <trkpt lat="44.89343" lon="6.71036">
        <ele>2388.6</ele>
        <time>2020-08-20T12:50:34Z</time>
      </trkpt>
      <trkpt lat="44.89337" lon="6.71048">
        <ele>2389.3</ele>
        <time>2020-08-20T12:50:43Z</time>
      </trkpt>
      <trkpt lat="44.89334" lon="6.7106">
        <ele>2390.2</ele>
        <time>2020-08-20T12:50:51Z</time>
      </trkpt>
      <trkpt lat="44.89327" lon="6.7107">
        <ele>2391.4</ele>
        <time>2020-08-20T12:51:01Z</time>
      </trkpt>
      <trkpt lat="44.8932" lon="6.71078">
        <ele>2392.2</ele>
        <time>2020-08-20T12:51:08Z</time>
      </trkpt>
      <trkpt lat="44.89311" lon="6.71083">
        <ele>2392.8</ele>
        <time>2020-08-20T12:51:15Z</time>
      </trkpt>
      <trkpt lat="44.89302" lon="6.71088">
        <ele>2393.4</ele>
        <time>2020-08-20T12:51:22Z</time>
      </trkpt>
      <trkpt lat="44.89294" lon="6.71095">
        <ele>2394</ele>
        <time>2020-08-20T12:51:29Z</time>
      </trkpt>
      <trkpt lat="44.89286" lon="6.71099">
        <ele>2394.9</ele>
        <time>2020-08-20T12:51:39Z</time>
      </trkpt>
      <trkpt lat="44.89277" lon="6.71107">
        <ele>2396.2</ele>
        <time>2020-08-20T12:51:48Z</time>
      </trkpt>
      <trkpt lat="44.89269" lon="6.71115">
        <ele>2397.2</ele>
        <time>2020-08-20T12:51:56Z</time>
      </trkpt>
      <trkpt lat="44.89261" lon="6.71124">
        <ele>2398.1</ele>
        <time>2020-08-20T12:52:05Z</time>
      </trkpt>
      <trkpt lat="44.89254" lon="6.71133">
        <ele>2398.6</ele>
        <time>2020-08-20T12:52:13Z</time>
      </trkpt>
      <trkpt lat="44.89249" lon="6.71144">
        <ele>2399.1</ele>
        <time>2020-08-20T12:52:20Z</time>
      </trkpt>
      <trkpt lat="44.89245" lon="6.71156">
        <ele>2399.8</ele>
        <time>2020-08-20T12:52:28Z</time>
      </trkpt>
      <trkpt lat="44.89241" lon="6.71169">
        <ele>2400.5</ele>
        <time>2020-08-20T12:52:36Z</time>
      </trkpt>
      <trkpt lat="44.89234" lon="6.71178">
        <ele>2401</ele>
        <time>2020-08-20T12:52:44Z</time>
      </trkpt>
      <trkpt lat="44.89226" lon="6.71186">
        <ele>2401.4</ele>
        <time>2020-08-20T12:52:51Z</time>
      </trkpt>
      <trkpt lat="44.89219" lon="6.71193">
        <ele>2401.9</ele>
        <time>2020-08-20T12:52:57Z</time>
      </trkpt>
      <trkpt lat="44.8921" lon="6.712">
        <ele>2402.5</ele>
        <time>2020-08-20T12:53:04Z</time>
      </trkpt>
      <trkpt lat="44.89202" lon="6.71207">
        <ele>2403.3</ele>
        <time>2020-08-20T12:53:12Z</time>
      </trkpt>
      <trkpt lat="44.89194" lon="6.71214">
        <ele>2404</ele>
        <time>2020-08-20T12:53:20Z</time>
      </trkpt>
      <trkpt lat="44.89185" lon="6.71218">
        <ele>2404.5</ele>
        <time>2020-08-20T12:53:28Z</time>
      </trkpt>
      <trkpt lat="44.89175" lon="6.71216">
        <ele>2404.8</ele>
        <time>2020-08-20T12:53:36Z</time>
      </trkpt>
      <trkpt lat="44.89167" lon="6.71208">
        <ele>2405.1</ele>
        <time>2020-08-20T12:53:43Z</time>
      </trkpt>
      <trkpt lat="44.89159" lon="6.712">
        <ele>2405.4</ele>
        <time>2020-08-20T12:53:52Z</time>
      </trkpt>
      <trkpt lat="44.89151" lon="6.71192">
        <ele>2405.9</ele>
        <time>2020-08-20T12:54:02Z</time>
      </trkpt>
      <trkpt lat="44.89143" lon="6.71185">
        <ele>2406.3</ele>
        <time>2020-08-20T12:54:08Z</time>
      </trkpt>
      <trkpt lat="44.89136" lon="6.71175">
        <ele>2406.7</ele>
        <time>2020-08-20T12:54:15Z</time>
      </trkpt>
      <trkpt lat="44.89132" lon="6.71164">
        <ele>2406.8</ele>
        <time>2020-08-20T12:54:21Z</time>
      </trkpt>
      <trkpt lat="44.89129" lon="6.71151">
        <ele>2406.9</ele>
        <time>2020-08-20T12:54:28Z</time>
      </trkpt>
      <trkpt lat="44.8913" lon="6.71136">
        <ele>2407</ele>
        <time>2020-08-20T12:54:35Z</time>
      </trkpt>
      <trkpt lat="44.89135" lon="6.71124">
        <ele>2407</ele>
        <time>2020-08-20T12:54:42Z</time>
      </trkpt>
      <trkpt lat="44.8914" lon="6.71112">
        <ele>2407</ele>
        <time>2020-08-20T12:54:49Z</time>
      </trkpt>
      <trkpt lat="44.89142" lon="6.71099">
        <ele>2406.9</ele>
        <time>2020-08-20T12:54:57Z</time>
      </trkpt>
      <trkpt lat="44.89139" lon="6.71087">
        <ele>2406.9</ele>
        <time>2020-08-20T12:55:05Z</time>
      </trkpt>
      <trkpt lat="44.8913" lon="6.71085">
        <ele>2406.9</ele>
        <time>2020-08-20T12:55:11Z</time>
      </trkpt>
      <trkpt lat="44.89126" lon="6.71098">
        <ele>2407.3</ele>
        <time>2020-08-20T12:55:19Z</time>
      </trkpt>
      <trkpt lat="44.89125" lon="6.71111">
        <ele>2408.1</ele>
        <time>2020-08-20T12:55:26Z</time>
      </trkpt>
      <trkpt lat="44.89122" lon="6.71124">
        <ele>2408.8</ele>
        <time>2020-08-20T12:55:34Z</time>
      </trkpt>
      <trkpt lat="44.89117" lon="6.71135">
        <ele>2409.7</ele>
        <time>2020-08-20T12:55:41Z</time>
      </trkpt>
      <trkpt lat="44.89117" lon="6.71148">
        <ele>2410.4</ele>
        <time>2020-08-20T12:55:48Z</time>
      </trkpt>
      <trkpt lat="44.89119" lon="6.71161">
        <ele>2411.3</ele>
        <time>2020-08-20T12:55:55Z</time>
      </trkpt>
      <trkpt lat="44.89121" lon="6.71174">
        <ele>2411.9</ele>
        <time>2020-08-20T12:56:02Z</time>
      </trkpt>
      <trkpt lat="44.89124" lon="6.71186">
        <ele>2412.3</ele>
        <time>2020-08-20T12:56:09Z</time>
      </trkpt>
      <trkpt lat="44.89129" lon="6.71198">
        <ele>2412.6</ele>
        <time>2020-08-20T12:56:17Z</time>
      </trkpt>
      <trkpt lat="44.89136" lon="6.71206">
        <ele>2412.8</ele>
        <time>2020-08-20T12:56:24Z</time>
      </trkpt>
      <trkpt lat="44.89143" lon="6.71216">
        <ele>2413.2</ele>
        <time>2020-08-20T12:56:31Z</time>
      </trkpt>
      <trkpt lat="44.8915" lon="6.71227">
        <ele>2413.9</ele>
        <time>2020-08-20T12:56:39Z</time>
      </trkpt>
      <trkpt lat="44.89154" lon="6.7124">
        <ele>2414.5</ele>
        <time>2020-08-20T12:56:46Z</time>
      </trkpt>
      <trkpt lat="44.89157" lon="6.71253">
        <ele>2415.7</ele>
        <time>2020-08-20T13:02:56Z</time>
      </trkpt>
      <trkpt lat="44.89162" lon="6.71265">
        <ele>2415.7</ele>
        <time>2020-08-20T13:03:05Z</time>
      </trkpt>
      <trkpt lat="44.89168" lon="6.71275">
        <ele>2414.8</ele>
        <time>2020-08-20T13:03:12Z</time>
      </trkpt>
      <trkpt lat="44.89173" lon="6.71286">
        <ele>2413.6</ele>
        <time>2020-08-20T13:03:18Z</time>
      </trkpt>
      <trkpt lat="44.89177" lon="6.71299">
        <ele>2412.8</ele>
        <time>2020-08-20T13:03:25Z</time>
      </trkpt>
      <trkpt lat="44.89179" lon="6.71312">
        <ele>2412</ele>
        <time>2020-08-20T13:03:36Z</time>
      </trkpt>
      <trkpt lat="44.89182" lon="6.71324">
        <ele>2411.7</ele>
        <time>2020-08-20T13:03:43Z</time>
      </trkpt>
      <trkpt lat="44.89186" lon="6.71336">
        <ele>2411.5</ele>
        <time>2020-08-20T13:03:51Z</time>
      </trkpt>
      <trkpt lat="44.8919" lon="6.71349">
        <ele>2411.4</ele>
        <time>2020-08-20T13:03:59Z</time>
      </trkpt>
      <trkpt lat="44.89192" lon="6.71362">
        <ele>2411.2</ele>
        <time>2020-08-20T13:04:08Z</time>
      </trkpt>
      <trkpt lat="44.89193" lon="6.71374">
        <ele>2410.5</ele>
        <time>2020-08-20T13:04:15Z</time>
      </trkpt>
      <trkpt lat="44.89194" lon="6.71388">
        <ele>2409.5</ele>
        <time>2020-08-20T13:04:23Z</time>
      </trkpt>
      <trkpt lat="44.89196" lon="6.71401">
        <ele>2408.2</ele>
        <time>2020-08-20T13:04:30Z</time>
      </trkpt>
      <trkpt lat="44.89199" lon="6.71414">
        <ele>2407</ele>
        <time>2020-08-20T13:04:38Z</time>
      </trkpt>
      <trkpt lat="44.89203" lon="6.71426">
        <ele>2406.2</ele>
        <time>2020-08-20T13:04:46Z</time>
      </trkpt>
      <trkpt lat="44.8921" lon="6.71435">
        <ele>2405.6</ele>
        <time>2020-08-20T13:04:58Z</time>
      </trkpt>
      <trkpt lat="44.89217" lon="6.71444">
        <ele>2405</ele>
        <time>2020-08-20T13:05:07Z</time>
      </trkpt>
      <trkpt lat="44.89222" lon="6.71456">
        <ele>2404</ele>
        <time>2020-08-20T13:05:15Z</time>
      </trkpt>
      <trkpt lat="44.89225" lon="6.71469">
        <ele>2402.7</ele>
        <time>2020-08-20T13:05:23Z</time>
      </trkpt>
      <trkpt lat="44.89226" lon="6.71484">
        <ele>2401.2</ele>
        <time>2020-08-20T13:05:31Z</time>
      </trkpt>
      <trkpt lat="44.89227" lon="6.71498">
        <ele>2400.1</ele>
        <time>2020-08-20T13:05:39Z</time>
      </trkpt>
      <trkpt lat="44.89229" lon="6.7151">
        <ele>2399.3</ele>
        <time>2020-08-20T13:05:46Z</time>
      </trkpt>
      <trkpt lat="44.8923" lon="6.71523">
        <ele>2398.6</ele>
        <time>2020-08-20T13:05:53Z</time>
      </trkpt>
      <trkpt lat="44.89232" lon="6.71536">
        <ele>2398</ele>
        <time>2020-08-20T13:06:00Z</time>
      </trkpt>
      <trkpt lat="44.89234" lon="6.71549">
        <ele>2397.4</ele>
        <time>2020-08-20T13:06:08Z</time>
      </trkpt>
      <trkpt lat="44.89238" lon="6.71561">
        <ele>2396.9</ele>
        <time>2020-08-20T13:06:15Z</time>
      </trkpt>
      <trkpt lat="44.89242" lon="6.71573">
        <ele>2396.3</ele>
        <time>2020-08-20T13:06:22Z</time>
      </trkpt>
      <trkpt lat="44.89246" lon="6.71585">
        <ele>2395.7</ele>
        <time>2020-08-20T13:06:29Z</time>
      </trkpt>
      <trkpt lat="44.89245" lon="6.71598">
        <ele>2395.3</ele>
        <time>2020-08-20T13:06:35Z</time>
      </trkpt>
      <trkpt lat="44.89244" lon="6.71612">
        <ele>2395</ele>
        <time>2020-08-20T13:06:42Z</time>
      </trkpt>
      <trkpt lat="44.89245" lon="6.71626">
        <ele>2394.8</ele>
        <time>2020-08-20T13:06:50Z</time>
      </trkpt>
      <trkpt lat="44.89244" lon="6.7164">
        <ele>2394.7</ele>
        <time>2020-08-20T13:06:58Z</time>
      </trkpt>
      <trkpt lat="44.89241" lon="6.71652">
        <ele>2394.6</ele>
        <time>2020-08-20T13:07:05Z</time>
      </trkpt>
      <trkpt lat="44.89239" lon="6.71666">
        <ele>2394.6</ele>
        <time>2020-08-20T13:07:11Z</time>
      </trkpt>
      <trkpt lat="44.89235" lon="6.71679">
        <ele>2394.6</ele>
        <time>2020-08-20T13:07:19Z</time>
      </trkpt>
      <trkpt lat="44.89231" lon="6.7169">
        <ele>2394.5</ele>
        <time>2020-08-20T13:07:26Z</time>
      </trkpt>
      <trkpt lat="44.89225" lon="6.71701">
        <ele>2394.5</ele>
        <time>2020-08-20T13:07:33Z</time>
      </trkpt>
      <trkpt lat="44.89225" lon="6.71714">
        <ele>2394.7</ele>
        <time>2020-08-20T13:07:41Z</time>
      </trkpt>
      <trkpt lat="44.89228" lon="6.71727">
        <ele>2395</ele>
        <time>2020-08-20T13:07:48Z</time>
      </trkpt>
      <trkpt lat="44.8923" lon="6.71741">
        <ele>2395.1</ele>
        <time>2020-08-20T13:07:55Z</time>
      </trkpt>
      <trkpt lat="44.89227" lon="6.71755">
        <ele>2394.5</ele>
        <time>2020-08-20T13:08:02Z</time>
      </trkpt>
      <trkpt lat="44.89221" lon="6.71766">
        <ele>2393.1</ele>
        <time>2020-08-20T13:08:09Z</time>
      </trkpt>
      <trkpt lat="44.89214" lon="6.71776">
        <ele>2391.6</ele>
        <time>2020-08-20T13:08:16Z</time>
      </trkpt>
      <trkpt lat="44.89209" lon="6.71787">
        <ele>2389.9</ele>
        <time>2020-08-20T13:08:25Z</time>
      </trkpt>
      <trkpt lat="44.89204" lon="6.718">
        <ele>2388.6</ele>
        <time>2020-08-20T13:08:33Z</time>
      </trkpt>
      <trkpt lat="44.89198" lon="6.71811">
        <ele>2387.7</ele>
        <time>2020-08-20T13:08:41Z</time>
      </trkpt>
      <trkpt lat="44.89193" lon="6.71823">
        <ele>2386.7</ele>
        <time>2020-08-20T13:08:49Z</time>
      </trkpt>
      <trkpt lat="44.89188" lon="6.71836">
        <ele>2386.2</ele>
        <time>2020-08-20T13:08:57Z</time>
      </trkpt>
      <trkpt lat="44.89183" lon="6.71847">
        <ele>2385.4</ele>
        <time>2020-08-20T13:09:04Z</time>
      </trkpt>
      <trkpt lat="44.89179" lon="6.71859">
        <ele>2383.9</ele>
        <time>2020-08-20T13:09:13Z</time>
      </trkpt>
      <trkpt lat="44.89176" lon="6.71871">
        <ele>2383</ele>
        <time>2020-08-20T13:09:20Z</time>
      </trkpt>
      <trkpt lat="44.89174" lon="6.71884">
        <ele>2382.2</ele>
        <time>2020-08-20T13:09:27Z</time>
      </trkpt>
      <trkpt lat="44.89172" lon="6.71898">
        <ele>2381.6</ele>
        <time>2020-08-20T13:09:35Z</time>
      </trkpt>
      <trkpt lat="44.89173" lon="6.71913">
        <ele>2381.2</ele>
        <time>2020-08-20T13:09:42Z</time>
      </trkpt>
      <trkpt lat="44.89173" lon="6.71929">
        <ele>2380.7</ele>
        <time>2020-08-20T13:09:50Z</time>
      </trkpt>
      <trkpt lat="44.89175" lon="6.71945">
        <ele>2380.1</ele>
        <time>2020-08-20T13:09:58Z</time>
      </trkpt>
      <trkpt lat="44.89178" lon="6.71957">
        <ele>2379.9</ele>
        <time>2020-08-20T13:10:02Z</time>
      </trkpt>
      <trkpt lat="44.89174" lon="6.7197">
        <ele>2379.6</ele>
        <time>2020-08-20T13:10:09Z</time>
      </trkpt>
      <trkpt lat="44.89172" lon="6.71983">
        <ele>2379.4</ele>
        <time>2020-08-20T13:10:15Z</time>
      </trkpt>
      <trkpt lat="44.89164" lon="6.7199">
        <ele>2379</ele>
        <time>2020-08-20T13:10:29Z</time>
      </trkpt>
      <trkpt lat="44.89161" lon="6.72002">
        <ele>2379.6</ele>
        <time>2020-08-20T13:10:38Z</time>
      </trkpt>
      <trkpt lat="44.89158" lon="6.72015">
        <ele>2380.5</ele>
        <time>2020-08-20T13:10:55Z</time>
      </trkpt>
      <trkpt lat="44.89155" lon="6.72028">
        <ele>2380.7</ele>
        <time>2020-08-20T13:11:03Z</time>
      </trkpt>
      <trkpt lat="44.89153" lon="6.72042">
        <ele>2380.4</ele>
        <time>2020-08-20T13:11:11Z</time>
      </trkpt>
      <trkpt lat="44.89151" lon="6.72056">
        <ele>2379.9</ele>
        <time>2020-08-20T13:11:18Z</time>
      </trkpt>
      <trkpt lat="44.8915" lon="6.72069">
        <ele>2379.5</ele>
        <time>2020-08-20T13:11:25Z</time>
      </trkpt>
      <trkpt lat="44.89149" lon="6.72082">
        <ele>2379.3</ele>
        <time>2020-08-20T13:11:32Z</time>
      </trkpt>
      <trkpt lat="44.89154" lon="6.72095">
        <ele>2379.2</ele>
        <time>2020-08-20T13:11:39Z</time>
      </trkpt>
      <trkpt lat="44.89161" lon="6.72104">
        <ele>2378.9</ele>
        <time>2020-08-20T13:12:16Z</time>
      </trkpt>
      <trkpt lat="44.8917" lon="6.72105">
        <ele>2378.9</ele>
        <time>2020-08-20T13:12:22Z</time>
      </trkpt>
      <trkpt lat="44.8918" lon="6.72106">
        <ele>2378.9</ele>
        <time>2020-08-20T13:12:31Z</time>
      </trkpt>
      <trkpt lat="44.89181" lon="6.72119">
        <ele>2379.1</ele>
        <time>2020-08-20T13:13:16Z</time>
      </trkpt>
      <trkpt lat="44.8918" lon="6.72133">
        <ele>2377.4</ele>
        <time>2020-08-20T13:13:34Z</time>
      </trkpt>
      <trkpt lat="44.89185" lon="6.72146">
        <ele>2375.5</ele>
        <time>2020-08-20T13:13:44Z</time>
      </trkpt>
      <trkpt lat="44.89188" lon="6.72158">
        <ele>2373.8</ele>
        <time>2020-08-20T13:13:52Z</time>
      </trkpt>
      <trkpt lat="44.89194" lon="6.72169">
        <ele>2371.9</ele>
        <time>2020-08-20T13:14:01Z</time>
      </trkpt>
      <trkpt lat="44.892" lon="6.72181">
        <ele>2370.2</ele>
        <time>2020-08-20T13:14:10Z</time>
      </trkpt>
      <trkpt lat="44.89206" lon="6.72192">
        <ele>2368.1</ele>
        <time>2020-08-20T13:14:19Z</time>
      </trkpt>
      <trkpt lat="44.89215" lon="6.72198">
        <ele>2364.7</ele>
        <time>2020-08-20T13:14:38Z</time>
      </trkpt>
      <trkpt lat="44.89218" lon="6.7221">
        <ele>2362</ele>
        <time>2020-08-20T13:15:11Z</time>
      </trkpt>
      <trkpt lat="44.89221" lon="6.72224">
        <ele>2361.9</ele>
        <time>2020-08-20T13:15:19Z</time>
      </trkpt>
      <trkpt lat="44.89225" lon="6.72237">
        <ele>2361.5</ele>
        <time>2020-08-20T13:15:27Z</time>
      </trkpt>
      <trkpt lat="44.8923" lon="6.72248">
        <ele>2361</ele>
        <time>2020-08-20T13:15:34Z</time>
      </trkpt>
      <trkpt lat="44.89237" lon="6.72259">
        <ele>2360.6</ele>
        <time>2020-08-20T13:15:41Z</time>
      </trkpt>
      <trkpt lat="44.8924" lon="6.72271">
        <ele>2360</ele>
        <time>2020-08-20T13:15:49Z</time>
      </trkpt>
      <trkpt lat="44.89243" lon="6.72283">
        <ele>2359.4</ele>
        <time>2020-08-20T13:15:56Z</time>
      </trkpt>
      <trkpt lat="44.89246" lon="6.72296">
        <ele>2358.9</ele>
        <time>2020-08-20T13:16:02Z</time>
      </trkpt>
      <trkpt lat="44.89245" lon="6.72311">
        <ele>2358.2</ele>
        <time>2020-08-20T13:16:07Z</time>
      </trkpt>
      <trkpt lat="44.89248" lon="6.72323">
        <ele>2357.1</ele>
        <time>2020-08-20T13:16:14Z</time>
      </trkpt>
      <trkpt lat="44.89252" lon="6.72336">
        <ele>2356.1</ele>
        <time>2020-08-20T13:16:22Z</time>
      </trkpt>
      <trkpt lat="44.89256" lon="6.72349">
        <ele>2355</ele>
        <time>2020-08-20T13:16:30Z</time>
      </trkpt>
      <trkpt lat="44.89262" lon="6.72362">
        <ele>2354.2</ele>
        <time>2020-08-20T13:16:37Z</time>
      </trkpt>
      <trkpt lat="44.89268" lon="6.72373">
        <ele>2352.8</ele>
        <time>2020-08-20T13:16:47Z</time>
      </trkpt>
      <trkpt lat="44.89274" lon="6.72388">
        <ele>2351.7</ele>
        <time>2020-08-20T13:16:55Z</time>
      </trkpt>
      <trkpt lat="44.89281" lon="6.72397">
        <ele>2350.9</ele>
        <time>2020-08-20T13:17:02Z</time>
      </trkpt>
      <trkpt lat="44.89288" lon="6.72406">
        <ele>2350.1</ele>
        <time>2020-08-20T13:17:12Z</time>
      </trkpt>
      <trkpt lat="44.89295" lon="6.72416">
        <ele>2349.6</ele>
        <time>2020-08-20T13:17:20Z</time>
      </trkpt>
      <trkpt lat="44.89301" lon="6.72426">
        <ele>2348.9</ele>
        <time>2020-08-20T13:17:30Z</time>
      </trkpt>
      <trkpt lat="44.89309" lon="6.72433">
        <ele>2348.6</ele>
        <time>2020-08-20T13:17:36Z</time>
      </trkpt>
      <trkpt lat="44.89316" lon="6.72442">
        <ele>2348.8</ele>
        <time>2020-08-20T13:17:43Z</time>
      </trkpt>
      <trkpt lat="44.89324" lon="6.72451">
        <ele>2350</ele>
        <time>2020-08-20T13:17:51Z</time>
      </trkpt>
      <trkpt lat="44.8933" lon="6.72462">
        <ele>2350.3</ele>
        <time>2020-08-20T13:17:59Z</time>
      </trkpt>
      <trkpt lat="44.89336" lon="6.72472">
        <ele>2350</ele>
        <time>2020-08-20T13:18:06Z</time>
      </trkpt>
      <trkpt lat="44.89343" lon="6.72483">
        <ele>2349.1</ele>
        <time>2020-08-20T13:18:13Z</time>
      </trkpt>
      <trkpt lat="44.89349" lon="6.72493">
        <ele>2347.9</ele>
        <time>2020-08-20T13:18:20Z</time>
      </trkpt>
      <trkpt lat="44.89356" lon="6.72502">
        <ele>2346.6</ele>
        <time>2020-08-20T13:18:27Z</time>
      </trkpt>
      <trkpt lat="44.89363" lon="6.72513">
        <ele>2345.4</ele>
        <time>2020-08-20T13:18:34Z</time>
      </trkpt>
      <trkpt lat="44.8937" lon="6.72522">
        <ele>2344.5</ele>
        <time>2020-08-20T13:18:41Z</time>
      </trkpt>
      <trkpt lat="44.89377" lon="6.72532">
        <ele>2343.7</ele>
        <time>2020-08-20T13:18:48Z</time>
      </trkpt>
      <trkpt lat="44.89385" lon="6.72542">
        <ele>2343</ele>
        <time>2020-08-20T13:18:55Z</time>
      </trkpt>
      <trkpt lat="44.89392" lon="6.72552">
        <ele>2341.7</ele>
        <time>2020-08-20T13:19:02Z</time>
      </trkpt>
      <trkpt lat="44.89399" lon="6.72562">
        <ele>2340.9</ele>
        <time>2020-08-20T13:19:09Z</time>
      </trkpt>
      <trkpt lat="44.89407" lon="6.7257">
        <ele>2340.3</ele>
        <time>2020-08-20T13:19:16Z</time>
      </trkpt>
      <trkpt lat="44.89416" lon="6.72577">
        <ele>2339.5</ele>
        <time>2020-08-20T13:19:23Z</time>
      </trkpt>
      <trkpt lat="44.89424" lon="6.72584">
        <ele>2338.7</ele>
        <time>2020-08-20T13:19:30Z</time>
      </trkpt>
      <trkpt lat="44.89432" lon="6.72591">
        <ele>2337.7</ele>
        <time>2020-08-20T13:19:37Z</time>
      </trkpt>
      <trkpt lat="44.89441" lon="6.72597">
        <ele>2336.8</ele>
        <time>2020-08-20T13:19:45Z</time>
      </trkpt>
      <trkpt lat="44.89449" lon="6.72603">
        <ele>2335.9</ele>
        <time>2020-08-20T13:19:52Z</time>
      </trkpt>
      <trkpt lat="44.89458" lon="6.72608">
        <ele>2335</ele>
        <time>2020-08-20T13:20:00Z</time>
      </trkpt>
      <trkpt lat="44.89467" lon="6.72613">
        <ele>2333.8</ele>
        <time>2020-08-20T13:20:08Z</time>
      </trkpt>
      <trkpt lat="44.89476" lon="6.72615">
        <ele>2333</ele>
        <time>2020-08-20T13:20:15Z</time>
      </trkpt>
      <trkpt lat="44.89486" lon="6.72616">
        <ele>2332.1</ele>
        <time>2020-08-20T13:20:23Z</time>
      </trkpt>
      <trkpt lat="44.89496" lon="6.72618">
        <ele>2331.3</ele>
        <time>2020-08-20T13:20:32Z</time>
      </trkpt>
      <trkpt lat="44.89505" lon="6.72621">
        <ele>2330.2</ele>
        <time>2020-08-20T13:20:40Z</time>
      </trkpt>
      <trkpt lat="44.89515" lon="6.72627">
        <ele>2329.2</ele>
        <time>2020-08-20T13:20:47Z</time>
      </trkpt>
      <trkpt lat="44.89526" lon="6.7263">
        <ele>2328.7</ele>
        <time>2020-08-20T13:20:52Z</time>
      </trkpt>
      <trkpt lat="44.89534" lon="6.72636">
        <ele>2328.1</ele>
        <time>2020-08-20T13:20:59Z</time>
      </trkpt>
      <trkpt lat="44.89542" lon="6.72641">
        <ele>2327.7</ele>
        <time>2020-08-20T13:21:05Z</time>
      </trkpt>
      <trkpt lat="44.89551" lon="6.72648">
        <ele>2327.2</ele>
        <time>2020-08-20T13:21:12Z</time>
      </trkpt>
      <trkpt lat="44.89558" lon="6.72655">
        <ele>2326.7</ele>
        <time>2020-08-20T13:21:19Z</time>
      </trkpt>
      <trkpt lat="44.89567" lon="6.72661">
        <ele>2326.2</ele>
        <time>2020-08-20T13:21:27Z</time>
      </trkpt>
      <trkpt lat="44.89576" lon="6.72667">
        <ele>2325.7</ele>
        <time>2020-08-20T13:21:35Z</time>
      </trkpt>
      <trkpt lat="44.89585" lon="6.72673">
        <ele>2325.1</ele>
        <time>2020-08-20T13:21:42Z</time>
      </trkpt>
      <trkpt lat="44.89593" lon="6.7268">
        <ele>2324.7</ele>
        <time>2020-08-20T13:21:50Z</time>
      </trkpt>
      <trkpt lat="44.89601" lon="6.72687">
        <ele>2324.4</ele>
        <time>2020-08-20T13:21:58Z</time>
      </trkpt>
      <trkpt lat="44.8961" lon="6.7269">
        <ele>2324.2</ele>
        <time>2020-08-20T13:22:06Z</time>
      </trkpt>
      <trkpt lat="44.8962" lon="6.72694">
        <ele>2324</ele>
        <time>2020-08-20T13:22:14Z</time>
      </trkpt>
      <trkpt lat="44.89629" lon="6.72695">
        <ele>2323.3</ele>
        <time>2020-08-20T13:22:21Z</time>
      </trkpt>
      <trkpt lat="44.89638" lon="6.7269">
        <ele>2322.6</ele>
        <time>2020-08-20T13:22:29Z</time>
      </trkpt>
      <trkpt lat="44.89647" lon="6.72688">
        <ele>2321.9</ele>
        <time>2020-08-20T13:22:37Z</time>
      </trkpt>
      <trkpt lat="44.89656" lon="6.72683">
        <ele>2320.9</ele>
        <time>2020-08-20T13:22:45Z</time>
      </trkpt>
      <trkpt lat="44.89661" lon="6.72671">
        <ele>2319.6</ele>
        <time>2020-08-20T13:22:54Z</time>
      </trkpt>
      <trkpt lat="44.89667" lon="6.72661">
        <ele>2317.6</ele>
        <time>2020-08-20T13:23:05Z</time>
      </trkpt>
      <trkpt lat="44.89674" lon="6.72652">
        <ele>2315.3</ele>
        <time>2020-08-20T13:23:16Z</time>
      </trkpt>
      <trkpt lat="44.89682" lon="6.72644">
        <ele>2313.4</ele>
        <time>2020-08-20T13:23:25Z</time>
      </trkpt>
      <trkpt lat="44.89689" lon="6.72636">
        <ele>2312.1</ele>
        <time>2020-08-20T13:23:32Z</time>
      </trkpt>
      <trkpt lat="44.89696" lon="6.72627">
        <ele>2310.8</ele>
        <time>2020-08-20T13:23:39Z</time>
      </trkpt>
      <trkpt lat="44.89705" lon="6.72621">
        <ele>2309.6</ele>
        <time>2020-08-20T13:23:47Z</time>
      </trkpt>
      <trkpt lat="44.89714" lon="6.72619">
        <ele>2308.3</ele>
        <time>2020-08-20T13:23:55Z</time>
      </trkpt>
      <trkpt lat="44.89723" lon="6.72616">
        <ele>2306.6</ele>
        <time>2020-08-20T13:24:03Z</time>
      </trkpt>
      <trkpt lat="44.89732" lon="6.72611">
        <ele>2304.1</ele>
        <time>2020-08-20T13:24:13Z</time>
      </trkpt>
      <trkpt lat="44.89742" lon="6.7261">
        <ele>2302.2</ele>
        <time>2020-08-20T13:24:21Z</time>
      </trkpt>
      <trkpt lat="44.89752" lon="6.72608">
        <ele>2300.2</ele>
        <time>2020-08-20T13:24:29Z</time>
      </trkpt>
      <trkpt lat="44.89761" lon="6.72606">
        <ele>2298.6</ele>
        <time>2020-08-20T13:24:36Z</time>
      </trkpt>
      <trkpt lat="44.8977" lon="6.72605">
        <ele>2297.1</ele>
        <time>2020-08-20T13:24:43Z</time>
      </trkpt>
      <trkpt lat="44.89779" lon="6.72602">
        <ele>2295.7</ele>
        <time>2020-08-20T13:24:50Z</time>
      </trkpt>
      <trkpt lat="44.89789" lon="6.72601">
        <ele>2294.5</ele>
        <time>2020-08-20T13:24:56Z</time>
      </trkpt>
      <trkpt lat="44.89799" lon="6.72598">
        <ele>2293.3</ele>
        <time>2020-08-20T13:25:03Z</time>
      </trkpt>
      <trkpt lat="44.89808" lon="6.72596">
        <ele>2292.2</ele>
        <time>2020-08-20T13:25:10Z</time>
      </trkpt>
      <trkpt lat="44.89818" lon="6.72594">
        <ele>2290.8</ele>
        <time>2020-08-20T13:25:18Z</time>
      </trkpt>
      <trkpt lat="44.89827" lon="6.72593">
        <ele>2289.7</ele>
        <time>2020-08-20T13:25:25Z</time>
      </trkpt>
      <trkpt lat="44.89836" lon="6.72593">
        <ele>2288.6</ele>
        <time>2020-08-20T13:25:32Z</time>
      </trkpt>
      <trkpt lat="44.89845" lon="6.72592">
        <ele>2287.5</ele>
        <time>2020-08-20T13:25:39Z</time>
      </trkpt>
      <trkpt lat="44.89855" lon="6.72591">
        <ele>2286.4</ele>
        <time>2020-08-20T13:25:46Z</time>
      </trkpt>
      <trkpt lat="44.89865" lon="6.7259">
        <ele>2285.3</ele>
        <time>2020-08-20T13:25:53Z</time>
      </trkpt>
      <trkpt lat="44.89875" lon="6.72588">
        <ele>2283.9</ele>
        <time>2020-08-20T13:26:00Z</time>
      </trkpt>
      <trkpt lat="44.89884" lon="6.72588">
        <ele>2282.7</ele>
        <time>2020-08-20T13:26:07Z</time>
      </trkpt>
      <trkpt lat="44.89893" lon="6.7259">
        <ele>2281.6</ele>
        <time>2020-08-20T13:26:14Z</time>
      </trkpt>
      <trkpt lat="44.89902" lon="6.72589">
        <ele>2280.5</ele>
        <time>2020-08-20T13:26:21Z</time>
      </trkpt>
      <trkpt lat="44.89912" lon="6.72588">
        <ele>2279.4</ele>
        <time>2020-08-20T13:26:28Z</time>
      </trkpt>
      <trkpt lat="44.89921" lon="6.72585">
        <ele>2278.2</ele>
        <time>2020-08-20T13:26:36Z</time>
      </trkpt>
      <trkpt lat="44.8993" lon="6.72584">
        <ele>2277.2</ele>
        <time>2020-08-20T13:26:43Z</time>
      </trkpt>
      <trkpt lat="44.8994" lon="6.72582">
        <ele>2276.2</ele>
        <time>2020-08-20T13:26:50Z</time>
      </trkpt>
      <trkpt lat="44.89949" lon="6.7258">
        <ele>2275.3</ele>
        <time>2020-08-20T13:26:57Z</time>
      </trkpt>
      <trkpt lat="44.89959" lon="6.72578">
        <ele>2274.2</ele>
        <time>2020-08-20T13:27:04Z</time>
      </trkpt>
      <trkpt lat="44.89967" lon="6.72574">
        <ele>2273.3</ele>
        <time>2020-08-20T13:27:11Z</time>
      </trkpt>
      <trkpt lat="44.89977" lon="6.7257">
        <ele>2272.4</ele>
        <time>2020-08-20T13:27:18Z</time>
      </trkpt>
      <trkpt lat="44.89986" lon="6.72566">
        <ele>2271.5</ele>
        <time>2020-08-20T13:27:26Z</time>
      </trkpt>
      <trkpt lat="44.89996" lon="6.72564">
        <ele>2270.7</ele>
        <time>2020-08-20T13:27:33Z</time>
      </trkpt>
      <trkpt lat="44.90005" lon="6.72561">
        <ele>2269.9</ele>
        <time>2020-08-20T13:27:40Z</time>
      </trkpt>
      <trkpt lat="44.90012" lon="6.72553">
        <ele>2269.2</ele>
        <time>2020-08-20T13:27:47Z</time>
      </trkpt>
      <trkpt lat="44.90021" lon="6.72546">
        <ele>2268.6</ele>
        <time>2020-08-20T13:27:55Z</time>
      </trkpt>
      <trkpt lat="44.90029" lon="6.72539">
        <ele>2268.1</ele>
        <time>2020-08-20T13:28:02Z</time>
      </trkpt>
      <trkpt lat="44.90036" lon="6.72531">
        <ele>2267.4</ele>
        <time>2020-08-20T13:28:09Z</time>
      </trkpt>
      <trkpt lat="44.90041" lon="6.7252">
        <ele>2266.6</ele>
        <time>2020-08-20T13:28:16Z</time>
      </trkpt>
      <trkpt lat="44.90045" lon="6.72509">
        <ele>2265.7</ele>
        <time>2020-08-20T13:28:23Z</time>
      </trkpt>
      <trkpt lat="44.90048" lon="6.72496">
        <ele>2264.7</ele>
        <time>2020-08-20T13:28:30Z</time>
      </trkpt>
      <trkpt lat="44.9005" lon="6.72483">
        <ele>2263.8</ele>
        <time>2020-08-20T13:28:37Z</time>
      </trkpt>
      <trkpt lat="44.90053" lon="6.7247">
        <ele>2263.1</ele>
        <time>2020-08-20T13:28:44Z</time>
      </trkpt>
      <trkpt lat="44.90056" lon="6.72458">
        <ele>2262.4</ele>
        <time>2020-08-20T13:28:51Z</time>
      </trkpt>
      <trkpt lat="44.90058" lon="6.72446">
        <ele>2261.8</ele>
        <time>2020-08-20T13:28:58Z</time>
      </trkpt>
      <trkpt lat="44.90062" lon="6.72434">
        <ele>2260.9</ele>
        <time>2020-08-20T13:29:05Z</time>
      </trkpt>
      <trkpt lat="44.90064" lon="6.7242">
        <ele>2260.2</ele>
        <time>2020-08-20T13:29:12Z</time>
      </trkpt>
      <trkpt lat="44.90067" lon="6.72405">
        <ele>2259.4</ele>
        <time>2020-08-20T13:29:19Z</time>
      </trkpt>
      <trkpt lat="44.90068" lon="6.72392">
        <ele>2258.8</ele>
        <time>2020-08-20T13:29:25Z</time>
      </trkpt>
      <trkpt lat="44.9007" lon="6.72378">
        <ele>2258</ele>
        <time>2020-08-20T13:29:32Z</time>
      </trkpt>
      <trkpt lat="44.90071" lon="6.72365">
        <ele>2257.2</ele>
        <time>2020-08-20T13:29:39Z</time>
      </trkpt>
      <trkpt lat="44.90074" lon="6.72351">
        <ele>2256.5</ele>
        <time>2020-08-20T13:29:46Z</time>
      </trkpt>
      <trkpt lat="44.90076" lon="6.72337">
        <ele>2255.8</ele>
        <time>2020-08-20T13:29:54Z</time>
      </trkpt>
      <trkpt lat="44.90079" lon="6.72324">
        <ele>2255.2</ele>
        <time>2020-08-20T13:30:01Z</time>
      </trkpt>
      <trkpt lat="44.90081" lon="6.72312">
        <ele>2254.6</ele>
        <time>2020-08-20T13:30:08Z</time>
      </trkpt>
      <trkpt lat="44.90085" lon="6.72298">
        <ele>2254</ele>
        <time>2020-08-20T13:30:16Z</time>
      </trkpt>
      <trkpt lat="44.90088" lon="6.72286">
        <ele>2253.3</ele>
        <time>2020-08-20T13:30:24Z</time>
      </trkpt>
      <trkpt lat="44.90091" lon="6.72272">
        <ele>2252.5</ele>
        <time>2020-08-20T13:30:32Z</time>
      </trkpt>
      <trkpt lat="44.90096" lon="6.7226">
        <ele>2251.9</ele>
        <time>2020-08-20T13:30:40Z</time>
      </trkpt>
      <trkpt lat="44.90105" lon="6.72253">
        <ele>2251.1</ele>
        <time>2020-08-20T13:30:47Z</time>
      </trkpt>
      <trkpt lat="44.90115" lon="6.72253">
        <ele>2250.3</ele>
        <time>2020-08-20T13:30:54Z</time>
      </trkpt>
      <trkpt lat="44.90124" lon="6.72259">
        <ele>2249.3</ele>
        <time>2020-08-20T13:31:02Z</time>
      </trkpt>
      <trkpt lat="44.90131" lon="6.72268">
        <ele>2248.5</ele>
        <time>2020-08-20T13:31:09Z</time>
      </trkpt>
      <trkpt lat="44.9014" lon="6.72275">
        <ele>2247.4</ele>
        <time>2020-08-20T13:31:16Z</time>
      </trkpt>
      <trkpt lat="44.90148" lon="6.72282">
        <ele>2246.2</ele>
        <time>2020-08-20T13:31:25Z</time>
      </trkpt>
      <trkpt lat="44.90156" lon="6.72289">
        <ele>2245.3</ele>
        <time>2020-08-20T13:31:33Z</time>
      </trkpt>
      <trkpt lat="44.90164" lon="6.72296">
        <ele>2244.5</ele>
        <time>2020-08-20T13:31:40Z</time>
      </trkpt>
      <trkpt lat="44.90172" lon="6.72303">
        <ele>2243.3</ele>
        <time>2020-08-20T13:31:50Z</time>
      </trkpt>
      <trkpt lat="44.90181" lon="6.7231">
        <ele>2242.4</ele>
        <time>2020-08-20T13:31:58Z</time>
      </trkpt>
      <trkpt lat="44.90189" lon="6.72316">
        <ele>2241.5</ele>
        <time>2020-08-20T13:32:05Z</time>
      </trkpt>
      <trkpt lat="44.90197" lon="6.72323">
        <ele>2240.7</ele>
        <time>2020-08-20T13:32:12Z</time>
      </trkpt>
      <trkpt lat="44.90205" lon="6.72332">
        <ele>2239.9</ele>
        <time>2020-08-20T13:32:21Z</time>
      </trkpt>
      <trkpt lat="44.90213" lon="6.72341">
        <ele>2239.3</ele>
        <time>2020-08-20T13:32:29Z</time>
      </trkpt>
      <trkpt lat="44.90221" lon="6.72349">
        <ele>2238.8</ele>
        <time>2020-08-20T13:32:37Z</time>
      </trkpt>
      <trkpt lat="44.90228" lon="6.72358">
        <ele>2238.2</ele>
        <time>2020-08-20T13:32:45Z</time>
      </trkpt>
      <trkpt lat="44.90236" lon="6.72367">
        <ele>2237.5</ele>
        <time>2020-08-20T13:32:53Z</time>
      </trkpt>
      <trkpt lat="44.90243" lon="6.72377">
        <ele>2236.7</ele>
        <time>2020-08-20T13:33:01Z</time>
      </trkpt>
      <trkpt lat="44.90249" lon="6.72388">
        <ele>2235.8</ele>
        <time>2020-08-20T13:33:09Z</time>
      </trkpt>
      <trkpt lat="44.90256" lon="6.72398">
        <ele>2234.9</ele>
        <time>2020-08-20T13:33:17Z</time>
      </trkpt>
      <trkpt lat="44.90262" lon="6.72408">
        <ele>2234.1</ele>
        <time>2020-08-20T13:33:25Z</time>
      </trkpt>
      <trkpt lat="44.9027" lon="6.72417">
        <ele>2233.4</ele>
        <time>2020-08-20T13:33:32Z</time>
      </trkpt>
      <trkpt lat="44.90277" lon="6.72426">
        <ele>2232.6</ele>
        <time>2020-08-20T13:33:39Z</time>
      </trkpt>
      <trkpt lat="44.90285" lon="6.72436">
        <ele>2231.8</ele>
        <time>2020-08-20T13:33:46Z</time>
      </trkpt>
      <trkpt lat="44.90292" lon="6.72445">
        <ele>2231.1</ele>
        <time>2020-08-20T13:33:53Z</time>
      </trkpt>
      <trkpt lat="44.90299" lon="6.72454">
        <ele>2230.4</ele>
        <time>2020-08-20T13:34:00Z</time>
      </trkpt>
      <trkpt lat="44.90306" lon="6.72463">
        <ele>2229.6</ele>
        <time>2020-08-20T13:34:07Z</time>
      </trkpt>
      <trkpt lat="44.90312" lon="6.72473">
        <ele>2229</ele>
        <time>2020-08-20T13:34:14Z</time>
      </trkpt>
      <trkpt lat="44.90318" lon="6.72483">
        <ele>2228.4</ele>
        <time>2020-08-20T13:34:21Z</time>
      </trkpt>
      <trkpt lat="44.90326" lon="6.72493">
        <ele>2227.7</ele>
        <time>2020-08-20T13:34:29Z</time>
      </trkpt>
      <trkpt lat="44.90333" lon="6.72503">
        <ele>2227.1</ele>
        <time>2020-08-20T13:34:37Z</time>
      </trkpt>
      <trkpt lat="44.9034" lon="6.72512">
        <ele>2226.4</ele>
        <time>2020-08-20T13:34:44Z</time>
      </trkpt>
      <trkpt lat="44.90346" lon="6.72522">
        <ele>2225.7</ele>
        <time>2020-08-20T13:34:51Z</time>
      </trkpt>
      <trkpt lat="44.90352" lon="6.72531">
        <ele>2224.8</ele>
        <time>2020-08-20T13:34:58Z</time>
      </trkpt>
      <trkpt lat="44.90362" lon="6.72534">
        <ele>2223.9</ele>
        <time>2020-08-20T13:35:06Z</time>
      </trkpt>
      <trkpt lat="44.90369" lon="6.72527">
        <ele>2222.8</ele>
        <time>2020-08-20T13:35:13Z</time>
      </trkpt>
      <trkpt lat="44.90374" lon="6.72515">
        <ele>2222</ele>
        <time>2020-08-20T13:35:21Z</time>
      </trkpt>
      <trkpt lat="44.90376" lon="6.72501">
        <ele>2221.1</ele>
        <time>2020-08-20T13:35:29Z</time>
      </trkpt>
      <trkpt lat="44.90379" lon="6.72488">
        <ele>2220.2</ele>
        <time>2020-08-20T13:35:36Z</time>
      </trkpt>
      <trkpt lat="44.90388" lon="6.72487">
        <ele>2219.1</ele>
        <time>2020-08-20T13:35:44Z</time>
      </trkpt>
      <trkpt lat="44.90395" lon="6.72496">
        <ele>2217.8</ele>
        <time>2020-08-20T13:35:55Z</time>
      </trkpt>
      <trkpt lat="44.90402" lon="6.72506">
        <ele>2216.8</ele>
        <time>2020-08-20T13:36:03Z</time>
      </trkpt>
      <trkpt lat="44.90409" lon="6.72516">
        <ele>2216</ele>
        <time>2020-08-20T13:36:11Z</time>
      </trkpt>
      <trkpt lat="44.90417" lon="6.72521">
        <ele>2215.2</ele>
        <time>2020-08-20T13:36:18Z</time>
      </trkpt>
      <trkpt lat="44.90427" lon="6.72518">
        <ele>2214.3</ele>
        <time>2020-08-20T13:36:26Z</time>
      </trkpt>
      <trkpt lat="44.90434" lon="6.72509">
        <ele>2212.3</ele>
        <time>2020-08-20T13:36:54Z</time>
      </trkpt>
      <trkpt lat="44.90444" lon="6.72511">
        <ele>2211.4</ele>
        <time>2020-08-20T13:37:04Z</time>
      </trkpt>
      <trkpt lat="44.90454" lon="6.72512">
        <ele>2209.8</ele>
        <time>2020-08-20T13:37:35Z</time>
      </trkpt>
      <trkpt lat="44.90464" lon="6.72512">
        <ele>2208.9</ele>
        <time>2020-08-20T13:37:42Z</time>
      </trkpt>
      <trkpt lat="44.90473" lon="6.72514">
        <ele>2208</ele>
        <time>2020-08-20T13:37:49Z</time>
      </trkpt>
      <trkpt lat="44.90483" lon="6.72515">
        <ele>2206.7</ele>
        <time>2020-08-20T13:37:56Z</time>
      </trkpt>
      <trkpt lat="44.90493" lon="6.72515">
        <ele>2205.1</ele>
        <time>2020-08-20T13:38:03Z</time>
      </trkpt>
      <trkpt lat="44.90503" lon="6.72517">
        <ele>2203.4</ele>
        <time>2020-08-20T13:38:10Z</time>
      </trkpt>
      <trkpt lat="44.90513" lon="6.72519">
        <ele>2202</ele>
        <time>2020-08-20T13:38:17Z</time>
      </trkpt>
      <trkpt lat="44.90522" lon="6.72519">
        <ele>2200.8</ele>
        <time>2020-08-20T13:38:24Z</time>
      </trkpt>
      <trkpt lat="44.90532" lon="6.72523">
        <ele>2199.5</ele>
        <time>2020-08-20T13:38:31Z</time>
      </trkpt>
      <trkpt lat="44.90541" lon="6.72529">
        <ele>2198.2</ele>
        <time>2020-08-20T13:38:38Z</time>
      </trkpt>
      <trkpt lat="44.9055" lon="6.72531">
        <ele>2196.8</ele>
        <time>2020-08-20T13:38:44Z</time>
      </trkpt>
      <trkpt lat="44.90559" lon="6.72531">
        <ele>2195.6</ele>
        <time>2020-08-20T13:38:50Z</time>
      </trkpt>
      <trkpt lat="44.90569" lon="6.72535">
        <ele>2194.3</ele>
        <time>2020-08-20T13:38:57Z</time>
      </trkpt>
      <trkpt lat="44.90578" lon="6.72539">
        <ele>2192.8</ele>
        <time>2020-08-20T13:39:04Z</time>
      </trkpt>
      <trkpt lat="44.90586" lon="6.72544">
        <ele>2191.4</ele>
        <time>2020-08-20T13:39:11Z</time>
      </trkpt>
      <trkpt lat="44.90595" lon="6.72549">
        <ele>2190.3</ele>
        <time>2020-08-20T13:39:17Z</time>
      </trkpt>
      <trkpt lat="44.90603" lon="6.72556">
        <ele>2189.1</ele>
        <time>2020-08-20T13:39:24Z</time>
      </trkpt>
      <trkpt lat="44.90611" lon="6.72564">
        <ele>2187.4</ele>
        <time>2020-08-20T13:39:32Z</time>
      </trkpt>
      <trkpt lat="44.9062" lon="6.72561">
        <ele>2185.8</ele>
        <time>2020-08-20T13:39:39Z</time>
      </trkpt>
      <trkpt lat="44.90628" lon="6.72554">
        <ele>2184.7</ele>
        <time>2020-08-20T13:39:46Z</time>
      </trkpt>
      <trkpt lat="44.90637" lon="6.72549">
        <ele>2183.5</ele>
        <time>2020-08-20T13:39:53Z</time>
      </trkpt>
      <trkpt lat="44.90646" lon="6.72544">
        <ele>2182.4</ele>
        <time>2020-08-20T13:40:00Z</time>
      </trkpt>
      <trkpt lat="44.90656" lon="6.72542">
        <ele>2181.2</ele>
        <time>2020-08-20T13:40:07Z</time>
      </trkpt>
      <trkpt lat="44.90666" lon="6.72541">
        <ele>2180.1</ele>
        <time>2020-08-20T13:40:14Z</time>
      </trkpt>
      <trkpt lat="44.90675" lon="6.72537">
        <ele>2178.6</ele>
        <time>2020-08-20T13:40:21Z</time>
      </trkpt>
      <trkpt lat="44.90685" lon="6.72537">
        <ele>2177.4</ele>
        <time>2020-08-20T13:40:28Z</time>
      </trkpt>
      <trkpt lat="44.90694" lon="6.72534">
        <ele>2176.4</ele>
        <time>2020-08-20T13:40:35Z</time>
      </trkpt>
      <trkpt lat="44.90704" lon="6.7253">
        <ele>2175</ele>
        <time>2020-08-20T13:40:43Z</time>
      </trkpt>
      <trkpt lat="44.90714" lon="6.7253">
        <ele>2173.5</ele>
        <time>2020-08-20T13:40:50Z</time>
      </trkpt>
      <trkpt lat="44.90723" lon="6.72531">
        <ele>2172.1</ele>
        <time>2020-08-20T13:40:57Z</time>
      </trkpt>
      <trkpt lat="44.90733" lon="6.72526">
        <ele>2170.8</ele>
        <time>2020-08-20T13:41:03Z</time>
      </trkpt>
      <trkpt lat="44.90743" lon="6.72524">
        <ele>2169.1</ele>
        <time>2020-08-20T13:41:11Z</time>
      </trkpt>
      <trkpt lat="44.90751" lon="6.72517">
        <ele>2167.6</ele>
        <time>2020-08-20T13:41:19Z</time>
      </trkpt>
      <trkpt lat="44.9076" lon="6.72511">
        <ele>2164.5</ele>
        <time>2020-08-20T13:42:01Z</time>
      </trkpt>
      <trkpt lat="44.90769" lon="6.72508">
        <ele>2163.7</ele>
        <time>2020-08-20T13:42:09Z</time>
      </trkpt>
      <trkpt lat="44.90779" lon="6.72506">
        <ele>2162.7</ele>
        <time>2020-08-20T13:42:16Z</time>
      </trkpt>
      <trkpt lat="44.90788" lon="6.72507">
        <ele>2161.6</ele>
        <time>2020-08-20T13:42:22Z</time>
      </trkpt>
      <trkpt lat="44.90797" lon="6.72508">
        <ele>2160.3</ele>
        <time>2020-08-20T13:42:29Z</time>
      </trkpt>
      <trkpt lat="44.90807" lon="6.72509">
        <ele>2159</ele>
        <time>2020-08-20T13:42:35Z</time>
      </trkpt>
      <trkpt lat="44.90817" lon="6.72508">
        <ele>2157.8</ele>
        <time>2020-08-20T13:42:42Z</time>
      </trkpt>
      <trkpt lat="44.90826" lon="6.72512">
        <ele>2156.6</ele>
        <time>2020-08-20T13:42:49Z</time>
      </trkpt>
      <trkpt lat="44.90835" lon="6.72515">
        <ele>2155.6</ele>
        <time>2020-08-20T13:42:56Z</time>
      </trkpt>
      <trkpt lat="44.90845" lon="6.72515">
        <ele>2154.7</ele>
        <time>2020-08-20T13:43:03Z</time>
      </trkpt>
      <trkpt lat="44.90855" lon="6.72515">
        <ele>2153.8</ele>
        <time>2020-08-20T13:43:10Z</time>
      </trkpt>
      <trkpt lat="44.90864" lon="6.72514">
        <ele>2153</ele>
        <time>2020-08-20T13:43:17Z</time>
      </trkpt>
      <trkpt lat="44.90873" lon="6.72508">
        <ele>2152.1</ele>
        <time>2020-08-20T13:43:25Z</time>
      </trkpt>
      <trkpt lat="44.90882" lon="6.72504">
        <ele>2151.2</ele>
        <time>2020-08-20T13:43:32Z</time>
      </trkpt>
      <trkpt lat="44.90891" lon="6.72502">
        <ele>2150.4</ele>
        <time>2020-08-20T13:43:37Z</time>
      </trkpt>
      <trkpt lat="44.90901" lon="6.72502">
        <ele>2149.3</ele>
        <time>2020-08-20T13:43:44Z</time>
      </trkpt>
      <trkpt lat="44.9091" lon="6.725">
        <ele>2148</ele>
        <time>2020-08-20T13:43:51Z</time>
      </trkpt>
      <trkpt lat="44.9092" lon="6.72498">
        <ele>2146.6</ele>
        <time>2020-08-20T13:44:00Z</time>
      </trkpt>
      <trkpt lat="44.90928" lon="6.72494">
        <ele>2145.7</ele>
        <time>2020-08-20T13:44:06Z</time>
      </trkpt>
      <trkpt lat="44.90938" lon="6.72492">
        <ele>2144.4</ele>
        <time>2020-08-20T13:44:12Z</time>
      </trkpt>
      <trkpt lat="44.90947" lon="6.72489">
        <ele>2143</ele>
        <time>2020-08-20T13:44:19Z</time>
      </trkpt>
      <trkpt lat="44.90956" lon="6.72484">
        <ele>2141.8</ele>
        <time>2020-08-20T13:44:25Z</time>
      </trkpt>
      <trkpt lat="44.90964" lon="6.72474">
        <ele>2140.3</ele>
        <time>2020-08-20T13:44:32Z</time>
      </trkpt>
      <trkpt lat="44.90971" lon="6.72464">
        <ele>2138.1</ele>
        <time>2020-08-20T13:44:42Z</time>
      </trkpt>
      <trkpt lat="44.90975" lon="6.72452">
        <ele>2136.4</ele>
        <time>2020-08-20T13:44:49Z</time>
      </trkpt>
      <trkpt lat="44.90979" lon="6.7244">
        <ele>2134.1</ele>
        <time>2020-08-20T13:44:58Z</time>
      </trkpt>
      <trkpt lat="44.90983" lon="6.72429">
        <ele>2132.4</ele>
        <time>2020-08-20T13:45:05Z</time>
      </trkpt>
      <trkpt lat="44.90988" lon="6.72417">
        <ele>2130.2</ele>
        <time>2020-08-20T13:45:14Z</time>
      </trkpt>
      <trkpt lat="44.90992" lon="6.72404">
        <ele>2128.3</ele>
        <time>2020-08-20T13:45:21Z</time>
      </trkpt>
      <trkpt lat="44.90997" lon="6.72391">
        <ele>2126.7</ele>
        <time>2020-08-20T13:45:28Z</time>
      </trkpt>
      <trkpt lat="44.91003" lon="6.7238">
        <ele>2124.7</ele>
        <time>2020-08-20T13:45:35Z</time>
      </trkpt>
      <trkpt lat="44.91005" lon="6.72368">
        <ele>2123</ele>
        <time>2020-08-20T13:45:42Z</time>
      </trkpt>
      <trkpt lat="44.91011" lon="6.72356">
        <ele>2121.6</ele>
        <time>2020-08-20T13:45:49Z</time>
      </trkpt>
      <trkpt lat="44.91015" lon="6.72345">
        <ele>2120.5</ele>
        <time>2020-08-20T13:45:56Z</time>
      </trkpt>
      <trkpt lat="44.9102" lon="6.72333">
        <ele>2119.5</ele>
        <time>2020-08-20T13:46:03Z</time>
      </trkpt>
      <trkpt lat="44.91024" lon="6.72322">
        <ele>2118.7</ele>
        <time>2020-08-20T13:46:08Z</time>
      </trkpt>
      <trkpt lat="44.9103" lon="6.72311">
        <ele>2117.4</ele>
        <time>2020-08-20T13:46:14Z</time>
      </trkpt>
      <trkpt lat="44.91039" lon="6.72304">
        <ele>2116.3</ele>
        <time>2020-08-20T13:46:20Z</time>
      </trkpt>
      <trkpt lat="44.91047" lon="6.72296">
        <ele>2115.2</ele>
        <time>2020-08-20T13:46:27Z</time>
      </trkpt>
      <trkpt lat="44.91056" lon="6.72289">
        <ele>2114.3</ele>
        <time>2020-08-20T13:46:34Z</time>
      </trkpt>
      <trkpt lat="44.91064" lon="6.72284">
        <ele>2113.7</ele>
        <time>2020-08-20T13:46:42Z</time>
      </trkpt>
      <trkpt lat="44.91072" lon="6.72278">
        <ele>2113.3</ele>
        <time>2020-08-20T13:46:48Z</time>
      </trkpt>
      <trkpt lat="44.91082" lon="6.72273">
        <ele>2112.8</ele>
        <time>2020-08-20T13:46:55Z</time>
      </trkpt>
      <trkpt lat="44.91092" lon="6.72271">
        <ele>2112.4</ele>
        <time>2020-08-20T13:47:00Z</time>
      </trkpt>
      <trkpt lat="44.91101" lon="6.7227">
        <ele>2111.6</ele>
        <time>2020-08-20T13:47:07Z</time>
      </trkpt>
      <trkpt lat="44.9111" lon="6.72274">
        <ele>2111</ele>
        <time>2020-08-20T13:47:13Z</time>
      </trkpt>
      <trkpt lat="44.91119" lon="6.72281">
        <ele>2110.5</ele>
        <time>2020-08-20T13:47:19Z</time>
      </trkpt>
      <trkpt lat="44.91128" lon="6.72288">
        <ele>2109.8</ele>
        <time>2020-08-20T13:47:26Z</time>
      </trkpt>
      <trkpt lat="44.91137" lon="6.72294">
        <ele>2109.2</ele>
        <time>2020-08-20T13:47:32Z</time>
      </trkpt>
      <trkpt lat="44.91146" lon="6.72299">
        <ele>2108.3</ele>
        <time>2020-08-20T13:47:39Z</time>
      </trkpt>
      <trkpt lat="44.91154" lon="6.72306">
        <ele>2107.3</ele>
        <time>2020-08-20T13:47:46Z</time>
      </trkpt>
      <trkpt lat="44.91163" lon="6.7231">
        <ele>2106.6</ele>
        <time>2020-08-20T13:47:52Z</time>
      </trkpt>
      <trkpt lat="44.91171" lon="6.72316">
        <ele>2105.6</ele>
        <time>2020-08-20T13:47:59Z</time>
      </trkpt>
      <trkpt lat="44.9118" lon="6.72323">
        <ele>2104.7</ele>
        <time>2020-08-20T13:48:05Z</time>
      </trkpt>
      <trkpt lat="44.91189" lon="6.72327">
        <ele>2103.5</ele>
        <time>2020-08-20T13:48:12Z</time>
      </trkpt>
      <trkpt lat="44.91199" lon="6.72333">
        <ele>2102.4</ele>
        <time>2020-08-20T13:48:19Z</time>
      </trkpt>
      <trkpt lat="44.91208" lon="6.72338">
        <ele>2101.3</ele>
        <time>2020-08-20T13:48:26Z</time>
      </trkpt>
      <trkpt lat="44.91217" lon="6.72339">
        <ele>2100.4</ele>
        <time>2020-08-20T13:48:32Z</time>
      </trkpt>
      <trkpt lat="44.91227" lon="6.72341">
        <ele>2099.4</ele>
        <time>2020-08-20T13:48:38Z</time>
      </trkpt>
      <trkpt lat="44.91237" lon="6.72347">
        <ele>2097.4</ele>
        <time>2020-08-20T13:48:48Z</time>
      </trkpt>
      <trkpt lat="44.91245" lon="6.72354">
        <ele>2096</ele>
        <time>2020-08-20T13:48:54Z</time>
      </trkpt>
      <trkpt lat="44.91254" lon="6.7236">
        <ele>2094.2</ele>
        <time>2020-08-20T13:49:02Z</time>
      </trkpt>
      <trkpt lat="44.91262" lon="6.72367">
        <ele>2092.7</ele>
        <time>2020-08-20T13:49:08Z</time>
      </trkpt>
      <trkpt lat="44.9127" lon="6.72375">
        <ele>2090.9</ele>
        <time>2020-08-20T13:49:15Z</time>
      </trkpt>
      <trkpt lat="44.91279" lon="6.72378">
        <ele>2089.6</ele>
        <time>2020-08-20T13:49:21Z</time>
      </trkpt>
      <trkpt lat="44.91288" lon="6.7238">
        <ele>2088.3</ele>
        <time>2020-08-20T13:49:27Z</time>
      </trkpt>
      <trkpt lat="44.91296" lon="6.72389">
        <ele>2087.1</ele>
        <time>2020-08-20T13:49:34Z</time>
      </trkpt>
      <trkpt lat="44.91305" lon="6.72398">
        <ele>2085.6</ele>
        <time>2020-08-20T13:49:41Z</time>
      </trkpt>
      <trkpt lat="44.91314" lon="6.72403">
        <ele>2084.6</ele>
        <time>2020-08-20T13:49:46Z</time>
      </trkpt>
      <trkpt lat="44.91324" lon="6.7241">
        <ele>2083.3</ele>
        <time>2020-08-20T13:49:53Z</time>
      </trkpt>
      <trkpt lat="44.91333" lon="6.72411">
        <ele>2082.3</ele>
        <time>2020-08-20T13:49:59Z</time>
      </trkpt>
      <trkpt lat="44.91343" lon="6.7241">
        <ele>2081.2</ele>
        <time>2020-08-20T13:50:07Z</time>
      </trkpt>
      <trkpt lat="44.91353" lon="6.7241">
        <ele>2079.8</ele>
        <time>2020-08-20T13:50:21Z</time>
      </trkpt>
      <trkpt lat="44.91362" lon="6.72416">
        <ele>2079.3</ele>
        <time>2020-08-20T13:50:28Z</time>
      </trkpt>
      <trkpt lat="44.91371" lon="6.72419">
        <ele>2078.8</ele>
        <time>2020-08-20T13:50:34Z</time>
      </trkpt>
      <trkpt lat="44.91381" lon="6.7242">
        <ele>2078.1</ele>
        <time>2020-08-20T13:50:43Z</time>
      </trkpt>
      <trkpt lat="44.91389" lon="6.72424">
        <ele>2077.3</ele>
        <time>2020-08-20T13:51:01Z</time>
      </trkpt>
      <trkpt lat="44.91399" lon="6.72426">
        <ele>2075.6</ele>
        <time>2020-08-20T13:52:22Z</time>
      </trkpt>
      <trkpt lat="44.91409" lon="6.72427">
        <ele>2075.5</ele>
        <time>2020-08-20T13:52:31Z</time>
      </trkpt>
      <trkpt lat="44.91418" lon="6.72426">
        <ele>2075.3</ele>
        <time>2020-08-20T13:52:40Z</time>
      </trkpt>
      <trkpt lat="44.91427" lon="6.72429">
        <ele>2074.9</ele>
        <time>2020-08-20T13:52:47Z</time>
      </trkpt>
      <trkpt lat="44.91436" lon="6.72434">
        <ele>2074.2</ele>
        <time>2020-08-20T13:52:54Z</time>
      </trkpt>
      <trkpt lat="44.91445" lon="6.72439">
        <ele>2073.3</ele>
        <time>2020-08-20T13:53:01Z</time>
      </trkpt>
      <trkpt lat="44.91454" lon="6.72443">
        <ele>2072.3</ele>
        <time>2020-08-20T13:53:08Z</time>
      </trkpt>
      <trkpt lat="44.91463" lon="6.72446">
        <ele>2071</ele>
        <time>2020-08-20T13:53:17Z</time>
      </trkpt>
      <trkpt lat="44.91472" lon="6.72451">
        <ele>2070</ele>
        <time>2020-08-20T13:53:24Z</time>
      </trkpt>
      <trkpt lat="44.91482" lon="6.72454">
        <ele>2067.8</ele>
        <time>2020-08-20T13:53:38Z</time>
      </trkpt>
      <trkpt lat="44.91492" lon="6.72459">
        <ele>2066.3</ele>
        <time>2020-08-20T13:53:48Z</time>
      </trkpt>
      <trkpt lat="44.91501" lon="6.72467">
        <ele>2065.1</ele>
        <time>2020-08-20T13:53:55Z</time>
      </trkpt>
      <trkpt lat="44.91509" lon="6.72474">
        <ele>2064.3</ele>
        <time>2020-08-20T13:54:01Z</time>
      </trkpt>
      <trkpt lat="44.91519" lon="6.72474">
        <ele>2063.1</ele>
        <time>2020-08-20T13:54:10Z</time>
      </trkpt>
      <trkpt lat="44.91529" lon="6.72477">
        <ele>2062.3</ele>
        <time>2020-08-20T13:54:18Z</time>
      </trkpt>
      <trkpt lat="44.91539" lon="6.72479">
        <ele>2061.4</ele>
        <time>2020-08-20T13:54:25Z</time>
      </trkpt>
      <trkpt lat="44.91549" lon="6.72477">
        <ele>2060.4</ele>
        <time>2020-08-20T13:54:33Z</time>
      </trkpt>
      <trkpt lat="44.91558" lon="6.72477">
        <ele>2059.4</ele>
        <time>2020-08-20T13:54:39Z</time>
      </trkpt>
      <trkpt lat="44.91567" lon="6.72478">
        <ele>2058.3</ele>
        <time>2020-08-20T13:54:46Z</time>
      </trkpt>
      <trkpt lat="44.91576" lon="6.72478">
        <ele>2057</ele>
        <time>2020-08-20T13:54:53Z</time>
      </trkpt>
      <trkpt lat="44.91586" lon="6.72479">
        <ele>2055.7</ele>
        <time>2020-08-20T13:55:00Z</time>
      </trkpt>
      <trkpt lat="44.91595" lon="6.72475">
        <ele>2054.2</ele>
        <time>2020-08-20T13:55:09Z</time>
      </trkpt>
      <trkpt lat="44.91604" lon="6.72474">
        <ele>2053</ele>
        <time>2020-08-20T13:55:16Z</time>
      </trkpt>
      <trkpt lat="44.91613" lon="6.72472">
        <ele>2051.8</ele>
        <time>2020-08-20T13:55:24Z</time>
      </trkpt>
      <trkpt lat="44.91622" lon="6.72471">
        <ele>2050.6</ele>
        <time>2020-08-20T13:55:32Z</time>
      </trkpt>
      <trkpt lat="44.91632" lon="6.72475">
        <ele>2047.4</ele>
        <time>2020-08-20T13:57:52Z</time>
      </trkpt>
      <trkpt lat="44.91642" lon="6.72474">
        <ele>2046.8</ele>
        <time>2020-08-20T13:58:00Z</time>
      </trkpt>
      <trkpt lat="44.91651" lon="6.7247">
        <ele>2046</ele>
        <time>2020-08-20T13:58:07Z</time>
      </trkpt>
      <trkpt lat="44.9166" lon="6.72465">
        <ele>2045</ele>
        <time>2020-08-20T13:58:14Z</time>
      </trkpt>
      <trkpt lat="44.91669" lon="6.72462">
        <ele>2043.7</ele>
        <time>2020-08-20T13:58:22Z</time>
      </trkpt>
      <trkpt lat="44.91678" lon="6.72457">
        <ele>2042.2</ele>
        <time>2020-08-20T13:58:30Z</time>
      </trkpt>
      <trkpt lat="44.91687" lon="6.72451">
        <ele>2040.9</ele>
        <time>2020-08-20T13:58:37Z</time>
      </trkpt>
      <trkpt lat="44.91694" lon="6.72441">
        <ele>2039.8</ele>
        <time>2020-08-20T13:58:44Z</time>
      </trkpt>
      <trkpt lat="44.91702" lon="6.72435">
        <ele>2039</ele>
        <time>2020-08-20T13:58:50Z</time>
      </trkpt>
      <trkpt lat="44.9171" lon="6.72428">
        <ele>2036.6</ele>
        <time>2020-08-20T13:59:16Z</time>
      </trkpt>
      <trkpt lat="44.91716" lon="6.72417">
        <ele>2034.9</ele>
        <time>2020-08-20T13:59:26Z</time>
      </trkpt>
      <trkpt lat="44.91723" lon="6.72407">
        <ele>2033</ele>
        <time>2020-08-20T13:59:32Z</time>
      </trkpt>
      <trkpt lat="44.91731" lon="6.724">
        <ele>2030.6</ele>
        <time>2020-08-20T13:59:40Z</time>
      </trkpt>
      <trkpt lat="44.9174" lon="6.72399">
        <ele>2029.1</ele>
        <time>2020-08-20T13:59:46Z</time>
      </trkpt>
      <trkpt lat="44.91749" lon="6.72393">
        <ele>2026.9</ele>
        <time>2020-08-20T13:59:56Z</time>
      </trkpt>
      <trkpt lat="44.91759" lon="6.72394">
        <ele>2025.7</ele>
        <time>2020-08-20T14:00:04Z</time>
      </trkpt>
      <trkpt lat="44.91768" lon="6.7239">
        <ele>2024.9</ele>
        <time>2020-08-20T14:00:10Z</time>
      </trkpt>
      <trkpt lat="44.91777" lon="6.72382">
        <ele>2023.7</ele>
        <time>2020-08-20T14:00:17Z</time>
      </trkpt>
      <trkpt lat="44.91786" lon="6.72376">
        <ele>2021.8</ele>
        <time>2020-08-20T14:00:27Z</time>
      </trkpt>
      <trkpt lat="44.91797" lon="6.72378">
        <ele>2019.5</ele>
        <time>2020-08-20T14:00:40Z</time>
      </trkpt>
      <trkpt lat="44.91805" lon="6.72369">
        <ele>2017.7</ele>
        <time>2020-08-20T14:00:50Z</time>
      </trkpt>
      <trkpt lat="44.91813" lon="6.72361">
        <ele>2011.7</ele>
        <time>2020-08-20T14:03:16Z</time>
      </trkpt>
      <trkpt lat="44.91822" lon="6.72358">
        <ele>2010.8</ele>
        <time>2020-08-20T14:03:25Z</time>
      </trkpt>
      <trkpt lat="44.91829" lon="6.72351">
        <ele>2009.9</ele>
        <time>2020-08-20T14:03:32Z</time>
      </trkpt>
      <trkpt lat="44.91839" lon="6.72346">
        <ele>2008.4</ele>
        <time>2020-08-20T14:03:41Z</time>
      </trkpt>
      <trkpt lat="44.91849" lon="6.72345">
        <ele>2006.4</ele>
        <time>2020-08-20T14:03:53Z</time>
      </trkpt>
      <trkpt lat="44.91858" lon="6.72342">
        <ele>2004.9</ele>
        <time>2020-08-20T14:04:01Z</time>
      </trkpt>
      <trkpt lat="44.91867" lon="6.72344">
        <ele>2003.3</ele>
        <time>2020-08-20T14:04:11Z</time>
      </trkpt>
      <trkpt lat="44.91875" lon="6.72337">
        <ele>2002</ele>
        <time>2020-08-20T14:04:19Z</time>
      </trkpt>
      <trkpt lat="44.91884" lon="6.7234">
        <ele>2000.8</ele>
        <time>2020-08-20T14:04:26Z</time>
      </trkpt>
      <trkpt lat="44.91894" lon="6.72342">
        <ele>1999.2</ele>
        <time>2020-08-20T14:04:38Z</time>
      </trkpt>
      <trkpt lat="44.91902" lon="6.72335">
        <ele>1998.4</ele>
        <time>2020-08-20T14:04:45Z</time>
      </trkpt>
      <trkpt lat="44.91911" lon="6.72331">
        <ele>1997.5</ele>
        <time>2020-08-20T14:04:52Z</time>
      </trkpt>
      <trkpt lat="44.91918" lon="6.72322">
        <ele>1996.3</ele>
        <time>2020-08-20T14:05:01Z</time>
      </trkpt>
      <trkpt lat="44.91929" lon="6.72322">
        <ele>1995</ele>
        <time>2020-08-20T14:05:10Z</time>
      </trkpt>
      <trkpt lat="44.91938" lon="6.72321">
        <ele>1994</ele>
        <time>2020-08-20T14:05:19Z</time>
      </trkpt>
      <trkpt lat="44.91949" lon="6.72318">
        <ele>1993.3</ele>
        <time>2020-08-20T14:05:27Z</time>
      </trkpt>
      <trkpt lat="44.91957" lon="6.72311">
        <ele>1992</ele>
        <time>2020-08-20T14:05:36Z</time>
      </trkpt>
      <trkpt lat="44.91966" lon="6.72308">
        <ele>1989.4</ele>
        <time>2020-08-20T14:06:18Z</time>
      </trkpt>
      <trkpt lat="44.91973" lon="6.72301">
        <ele>1987.1</ele>
        <time>2020-08-20T14:07:33Z</time>
      </trkpt>
      <trkpt lat="44.91984" lon="6.72298">
        <ele>1986.4</ele>
        <time>2020-08-20T14:07:40Z</time>
      </trkpt>
      <trkpt lat="44.91994" lon="6.72298">
        <ele>1985.6</ele>
        <time>2020-08-20T14:07:48Z</time>
      </trkpt>
      <trkpt lat="44.92004" lon="6.72297">
        <ele>1984.6</ele>
        <time>2020-08-20T14:07:55Z</time>
      </trkpt>
      <trkpt lat="44.92015" lon="6.72291">
        <ele>1983.5</ele>
        <time>2020-08-20T14:08:03Z</time>
      </trkpt>
      <trkpt lat="44.92025" lon="6.72288">
        <ele>1982.4</ele>
        <time>2020-08-20T14:08:10Z</time>
      </trkpt>
      <trkpt lat="44.92034" lon="6.72282">
        <ele>1981.2</ele>
        <time>2020-08-20T14:08:18Z</time>
      </trkpt>
      <trkpt lat="44.92044" lon="6.72279">
        <ele>1979.8</ele>
        <time>2020-08-20T14:08:26Z</time>
      </trkpt>
      <trkpt lat="44.92053" lon="6.72274">
        <ele>1978.4</ele>
        <time>2020-08-20T14:08:34Z</time>
      </trkpt>
      <trkpt lat="44.92063" lon="6.72272">
        <ele>1976.8</ele>
        <time>2020-08-20T14:08:43Z</time>
      </trkpt>
      <trkpt lat="44.92071" lon="6.72266">
        <ele>1975.1</ele>
        <time>2020-08-20T14:08:51Z</time>
      </trkpt>
      <trkpt lat="44.9208" lon="6.72261">
        <ele>1973.3</ele>
        <time>2020-08-20T14:08:59Z</time>
      </trkpt>
      <trkpt lat="44.92089" lon="6.72261">
        <ele>1971.6</ele>
        <time>2020-08-20T14:09:07Z</time>
      </trkpt>
      <trkpt lat="44.92098" lon="6.72257">
        <ele>1970.4</ele>
        <time>2020-08-20T14:09:14Z</time>
      </trkpt>
      <trkpt lat="44.92104" lon="6.72247">
        <ele>1969.1</ele>
        <time>2020-08-20T14:09:23Z</time>
      </trkpt>
      <trkpt lat="44.92111" lon="6.72235">
        <ele>1967.8</ele>
        <time>2020-08-20T14:09:33Z</time>
      </trkpt>
      <trkpt lat="44.92117" lon="6.72223">
        <ele>1967</ele>
        <time>2020-08-20T14:09:40Z</time>
      </trkpt>
      <trkpt lat="44.92125" lon="6.72215">
        <ele>1965.7</ele>
        <time>2020-08-20T14:09:48Z</time>
      </trkpt>
      <trkpt lat="44.92132" lon="6.72205">
        <ele>1964.3</ele>
        <time>2020-08-20T14:09:56Z</time>
      </trkpt>
      <trkpt lat="44.92139" lon="6.72194">
        <ele>1962.9</ele>
        <time>2020-08-20T14:10:03Z</time>
      </trkpt>
      <trkpt lat="44.92143" lon="6.72181">
        <ele>1961.6</ele>
        <time>2020-08-20T14:10:09Z</time>
      </trkpt>
      <trkpt lat="44.92149" lon="6.7217">
        <ele>1959.9</ele>
        <time>2020-08-20T14:10:17Z</time>
      </trkpt>
      <trkpt lat="44.92158" lon="6.72166">
        <ele>1958.5</ele>
        <time>2020-08-20T14:10:25Z</time>
      </trkpt>
      <trkpt lat="44.92163" lon="6.72154">
        <ele>1956.9</ele>
        <time>2020-08-20T14:10:35Z</time>
      </trkpt>
      <trkpt lat="44.9217" lon="6.72146">
        <ele>1955.5</ele>
        <time>2020-08-20T14:10:50Z</time>
      </trkpt>
      <trkpt lat="44.92179" lon="6.72138">
        <ele>1952.7</ele>
        <time>2020-08-20T14:12:07Z</time>
      </trkpt>
      <trkpt lat="44.92185" lon="6.72129">
        <ele>1952.5</ele>
        <time>2020-08-20T14:12:13Z</time>
      </trkpt>
      <trkpt lat="44.92191" lon="6.72117">
        <ele>1950.7</ele>
        <time>2020-08-20T14:12:59Z</time>
      </trkpt>
      <trkpt lat="44.92195" lon="6.72106">
        <ele>1950.3</ele>
        <time>2020-08-20T14:13:10Z</time>
      </trkpt>
      <trkpt lat="44.92203" lon="6.72098">
        <ele>1950</ele>
        <time>2020-08-20T14:13:17Z</time>
      </trkpt>
      <trkpt lat="44.9221" lon="6.72088">
        <ele>1949.7</ele>
        <time>2020-08-20T14:13:25Z</time>
      </trkpt>
      <trkpt lat="44.92216" lon="6.72077">
        <ele>1949.3</ele>
        <time>2020-08-20T14:13:32Z</time>
      </trkpt>
      <trkpt lat="44.92222" lon="6.72065">
        <ele>1948.8</ele>
        <time>2020-08-20T14:13:38Z</time>
      </trkpt>
      <trkpt lat="44.92227" lon="6.72053">
        <ele>1948.1</ele>
        <time>2020-08-20T14:13:46Z</time>
      </trkpt>
      <trkpt lat="44.92235" lon="6.72045">
        <ele>1947.4</ele>
        <time>2020-08-20T14:13:53Z</time>
      </trkpt>
      <trkpt lat="44.92242" lon="6.72037">
        <ele>1946.6</ele>
        <time>2020-08-20T14:14:02Z</time>
      </trkpt>
      <trkpt lat="44.9225" lon="6.7203">
        <ele>1946</ele>
        <time>2020-08-20T14:14:09Z</time>
      </trkpt>
      <trkpt lat="44.92256" lon="6.7202">
        <ele>1945.5</ele>
        <time>2020-08-20T14:14:16Z</time>
      </trkpt>
      <trkpt lat="44.92263" lon="6.7201">
        <ele>1944.9</ele>
        <time>2020-08-20T14:14:23Z</time>
      </trkpt>
      <trkpt lat="44.92269" lon="6.72">
        <ele>1944.4</ele>
        <time>2020-08-20T14:14:30Z</time>
      </trkpt>
      <trkpt lat="44.92276" lon="6.71991">
        <ele>1943.7</ele>
        <time>2020-08-20T14:14:37Z</time>
      </trkpt>
      <trkpt lat="44.92278" lon="6.71977">
        <ele>1942.6</ele>
        <time>2020-08-20T14:14:45Z</time>
      </trkpt>
      <trkpt lat="44.92278" lon="6.71964">
        <ele>1941.7</ele>
        <time>2020-08-20T14:14:52Z</time>
      </trkpt>
      <trkpt lat="44.92278" lon="6.7195">
        <ele>1940.6</ele>
        <time>2020-08-20T14:15:00Z</time>
      </trkpt>
      <trkpt lat="44.92282" lon="6.71938">
        <ele>1939.6</ele>
        <time>2020-08-20T14:15:07Z</time>
      </trkpt>
      <trkpt lat="44.92285" lon="6.71925">
        <ele>1938.7</ele>
        <time>2020-08-20T14:15:14Z</time>
      </trkpt>
      <trkpt lat="44.92287" lon="6.71911">
        <ele>1937.7</ele>
        <time>2020-08-20T14:15:21Z</time>
      </trkpt>
      <trkpt lat="44.92289" lon="6.71898">
        <ele>1936.9</ele>
        <time>2020-08-20T14:15:28Z</time>
      </trkpt>
      <trkpt lat="44.92291" lon="6.71885">
        <ele>1936</ele>
        <time>2020-08-20T14:15:35Z</time>
      </trkpt>
      <trkpt lat="44.92292" lon="6.71871">
        <ele>1935</ele>
        <time>2020-08-20T14:15:42Z</time>
      </trkpt>
      <trkpt lat="44.9229" lon="6.71858">
        <ele>1933.9</ele>
        <time>2020-08-20T14:15:50Z</time>
      </trkpt>
      <trkpt lat="44.9229" lon="6.71844">
        <ele>1932.6</ele>
        <time>2020-08-20T14:15:59Z</time>
      </trkpt>
      <trkpt lat="44.92288" lon="6.71831">
        <ele>1931.9</ele>
        <time>2020-08-20T14:16:04Z</time>
      </trkpt>
      <trkpt lat="44.92284" lon="6.71818">
        <ele>1930.7</ele>
        <time>2020-08-20T14:16:12Z</time>
      </trkpt>
      <trkpt lat="44.92283" lon="6.71803">
        <ele>1929.7</ele>
        <time>2020-08-20T14:16:19Z</time>
      </trkpt>
      <trkpt lat="44.92282" lon="6.7179">
        <ele>1928.9</ele>
        <time>2020-08-20T14:16:25Z</time>
      </trkpt>
      <trkpt lat="44.92282" lon="6.71776">
        <ele>1928.1</ele>
        <time>2020-08-20T14:16:32Z</time>
      </trkpt>
      <trkpt lat="44.92282" lon="6.71761">
        <ele>1927.1</ele>
        <time>2020-08-20T14:16:39Z</time>
      </trkpt>
      <trkpt lat="44.92282" lon="6.71747">
        <ele>1926.1</ele>
        <time>2020-08-20T14:16:46Z</time>
      </trkpt>
      <trkpt lat="44.92281" lon="6.71734">
        <ele>1925.3</ele>
        <time>2020-08-20T14:16:52Z</time>
      </trkpt>
      <trkpt lat="44.92282" lon="6.7172">
        <ele>1924.4</ele>
        <time>2020-08-20T14:16:59Z</time>
      </trkpt>
      <trkpt lat="44.92282" lon="6.71706">
        <ele>1923.5</ele>
        <time>2020-08-20T14:17:06Z</time>
      </trkpt>
      <trkpt lat="44.92281" lon="6.71691">
        <ele>1922.4</ele>
        <time>2020-08-20T14:17:13Z</time>
      </trkpt>
      <trkpt lat="44.92282" lon="6.71677">
        <ele>1921.2</ele>
        <time>2020-08-20T14:17:21Z</time>
      </trkpt>
      <trkpt lat="44.9228" lon="6.71664">
        <ele>1920.3</ele>
        <time>2020-08-20T14:17:27Z</time>
      </trkpt>
      <trkpt lat="44.9228" lon="6.71651">
        <ele>1919.3</ele>
        <time>2020-08-20T14:17:34Z</time>
      </trkpt>
      <trkpt lat="44.9228" lon="6.71638">
        <ele>1918.1</ele>
        <time>2020-08-20T14:17:42Z</time>
      </trkpt>
      <trkpt lat="44.92279" lon="6.71624">
        <ele>1917.1</ele>
        <time>2020-08-20T14:17:50Z</time>
      </trkpt>
      <trkpt lat="44.92277" lon="6.71611">
        <ele>1916.1</ele>
        <time>2020-08-20T14:17:57Z</time>
      </trkpt>
      <trkpt lat="44.92274" lon="6.71598">
        <ele>1915.1</ele>
        <time>2020-08-20T14:18:04Z</time>
      </trkpt>
      <trkpt lat="44.92267" lon="6.71586">
        <ele>1914.4</ele>
        <time>2020-08-20T14:18:10Z</time>
      </trkpt>
      <trkpt lat="44.92266" lon="6.71573">
        <ele>1913.5</ele>
        <time>2020-08-20T14:18:19Z</time>
      </trkpt>
      <trkpt lat="44.92275" lon="6.71572">
        <ele>1911.4</ele>
        <time>2020-08-20T14:18:31Z</time>
      </trkpt>
      <trkpt lat="44.92281" lon="6.71582">
        <ele>1910.8</ele>
        <time>2020-08-20T14:18:35Z</time>
      </trkpt>
      <trkpt lat="44.92288" lon="6.71592">
        <ele>1910.3</ele>
        <time>2020-08-20T14:18:38Z</time>
      </trkpt>
      <trkpt lat="44.92294" lon="6.71602">
        <ele>1909.8</ele>
        <time>2020-08-20T14:18:41Z</time>
      </trkpt>
      <trkpt lat="44.92299" lon="6.71614">
        <ele>1909</ele>
        <time>2020-08-20T14:18:45Z</time>
      </trkpt>
      <trkpt lat="44.92305" lon="6.71626">
        <ele>1907.6</ele>
        <time>2020-08-20T14:18:53Z</time>
      </trkpt>
      <trkpt lat="44.92313" lon="6.71633">
        <ele>1906.7</ele>
        <time>2020-08-20T14:18:59Z</time>
      </trkpt>
      <trkpt lat="44.92317" lon="6.71646">
        <ele>1905.4</ele>
        <time>2020-08-20T14:19:07Z</time>
      </trkpt>
      <trkpt lat="44.92322" lon="6.71658">
        <ele>1904.4</ele>
        <time>2020-08-20T14:19:13Z</time>
      </trkpt>
      <trkpt lat="44.92327" lon="6.71669">
        <ele>1903.4</ele>
        <time>2020-08-20T14:19:19Z</time>
      </trkpt>
      <trkpt lat="44.92334" lon="6.71657">
        <ele>1899.2</ele>
        <time>2020-08-20T14:19:43Z</time>
      </trkpt>
      <trkpt lat="44.92331" lon="6.71642">
        <ele>1898.3</ele>
        <time>2020-08-20T14:19:49Z</time>
      </trkpt>
      <trkpt lat="44.92327" lon="6.71629">
        <ele>1897.6</ele>
        <time>2020-08-20T14:19:55Z</time>
      </trkpt>
      <trkpt lat="44.92326" lon="6.71615">
        <ele>1897.1</ele>
        <time>2020-08-20T14:20:01Z</time>
      </trkpt>
      <trkpt lat="44.92323" lon="6.71602">
        <ele>1896.7</ele>
        <time>2020-08-20T14:20:07Z</time>
      </trkpt>
      <trkpt lat="44.92322" lon="6.71586">
        <ele>1896.1</ele>
        <time>2020-08-20T14:20:14Z</time>
      </trkpt>
      <trkpt lat="44.92322" lon="6.71573">
        <ele>1895.2</ele>
        <time>2020-08-20T14:20:23Z</time>
      </trkpt>
      <trkpt lat="44.92323" lon="6.71559">
        <ele>1894.1</ele>
        <time>2020-08-20T14:20:32Z</time>
      </trkpt>
      <trkpt lat="44.92321" lon="6.71544">
        <ele>1893.1</ele>
        <time>2020-08-20T14:20:40Z</time>
      </trkpt>
      <trkpt lat="44.9232" lon="6.71532">
        <ele>1892</ele>
        <time>2020-08-20T14:20:47Z</time>
      </trkpt>
      <trkpt lat="44.9232" lon="6.71518">
        <ele>1890.8</ele>
        <time>2020-08-20T14:20:55Z</time>
      </trkpt>
      <trkpt lat="44.9232" lon="6.71505">
        <ele>1889.2</ele>
        <time>2020-08-20T14:21:03Z</time>
      </trkpt>
      <trkpt lat="44.92322" lon="6.71492">
        <ele>1887.1</ele>
        <time>2020-08-20T14:21:12Z</time>
      </trkpt>
      <trkpt lat="44.92322" lon="6.71479">
        <ele>1885.2</ele>
        <time>2020-08-20T14:21:20Z</time>
      </trkpt>
      <trkpt lat="44.92322" lon="6.71466">
        <ele>1883.7</ele>
        <time>2020-08-20T14:21:27Z</time>
      </trkpt>
      <trkpt lat="44.92325" lon="6.71453">
        <ele>1881.4</ele>
        <time>2020-08-20T14:21:37Z</time>
      </trkpt>
      <trkpt lat="44.92326" lon="6.7144">
        <ele>1879.5</ele>
        <time>2020-08-20T14:21:44Z</time>
      </trkpt>
      <trkpt lat="44.92325" lon="6.71427">
        <ele>1878.1</ele>
        <time>2020-08-20T14:21:51Z</time>
      </trkpt>
      <trkpt lat="44.9232" lon="6.71416">
        <ele>1877.3</ele>
        <time>2020-08-20T14:21:57Z</time>
      </trkpt>
      <trkpt lat="44.92314" lon="6.71405">
        <ele>1876.6</ele>
        <time>2020-08-20T14:22:04Z</time>
      </trkpt>
      <trkpt lat="44.92309" lon="6.71393">
        <ele>1875.8</ele>
        <time>2020-08-20T14:22:12Z</time>
      </trkpt>
      <trkpt lat="44.92306" lon="6.7138">
        <ele>1874</ele>
        <time>2020-08-20T14:22:25Z</time>
      </trkpt>
      <trkpt lat="44.92304" lon="6.71367">
        <ele>1872.1</ele>
        <time>2020-08-20T14:22:36Z</time>
      </trkpt>
      <trkpt lat="44.92303" lon="6.71353">
        <ele>1870.1</ele>
        <time>2020-08-20T14:22:44Z</time>
      </trkpt>
      <trkpt lat="44.92305" lon="6.71339">
        <ele>1867.7</ele>
        <time>2020-08-20T14:22:53Z</time>
      </trkpt>
      <trkpt lat="44.92307" lon="6.71326">
        <ele>1865.7</ele>
        <time>2020-08-20T14:23:01Z</time>
      </trkpt>
      <trkpt lat="44.92314" lon="6.71316">
        <ele>1863.6</ele>
        <time>2020-08-20T14:23:09Z</time>
      </trkpt>
      <trkpt lat="44.92316" lon="6.71303">
        <ele>1862</ele>
        <time>2020-08-20T14:23:15Z</time>
      </trkpt>
      <trkpt lat="44.92309" lon="6.71294">
        <ele>1859.6</ele>
        <time>2020-08-20T14:23:24Z</time>
      </trkpt>
      <trkpt lat="44.92304" lon="6.71284">
        <ele>1857.8</ele>
        <time>2020-08-20T14:23:32Z</time>
      </trkpt>
      <trkpt lat="44.923" lon="6.71272">
        <ele>1855.4</ele>
        <time>2020-08-20T14:23:49Z</time>
      </trkpt>
      <trkpt lat="44.92291" lon="6.71268">
        <ele>1854.4</ele>
        <time>2020-08-20T14:24:07Z</time>
      </trkpt>
      <trkpt lat="44.92283" lon="6.71261">
        <ele>1854.2</ele>
        <time>2020-08-20T14:24:16Z</time>
      </trkpt>
      <trkpt lat="44.92284" lon="6.71248">
        <ele>1853.2</ele>
        <time>2020-08-20T14:25:10Z</time>
      </trkpt>
      <trkpt lat="44.92278" lon="6.71238">
        <ele>1852.6</ele>
        <time>2020-08-20T14:25:57Z</time>
      </trkpt>
      <trkpt lat="44.92287" lon="6.71235">
        <ele>1852.5</ele>
        <time>2020-08-20T14:26:04Z</time>
      </trkpt>
      <trkpt lat="44.92295" lon="6.71226">
        <ele>1852</ele>
        <time>2020-08-20T14:26:11Z</time>
      </trkpt>
      <trkpt lat="44.92305" lon="6.71225">
        <ele>1850.4</ele>
        <time>2020-08-20T14:26:24Z</time>
      </trkpt>
      <trkpt lat="44.92313" lon="6.71217">
        <ele>1849</ele>
        <time>2020-08-20T14:26:33Z</time>
      </trkpt>
      <trkpt lat="44.9232" lon="6.71208">
        <ele>1847.7</ele>
        <time>2020-08-20T14:26:42Z</time>
      </trkpt>
      <trkpt lat="44.92328" lon="6.71201">
        <ele>1846.5</ele>
        <time>2020-08-20T14:26:49Z</time>
      </trkpt>
      <trkpt lat="44.92336" lon="6.71192">
        <ele>1845</ele>
        <time>2020-08-20T14:26:56Z</time>
      </trkpt>
      <trkpt lat="44.92343" lon="6.71185">
        <ele>1842.6</ele>
        <time>2020-08-20T14:27:06Z</time>
      </trkpt>
      <trkpt lat="44.92344" lon="6.71171">
        <ele>1838.7</ele>
        <time>2020-08-20T14:27:29Z</time>
      </trkpt>
      <trkpt lat="44.92345" lon="6.71157">
        <ele>1837.3</ele>
        <time>2020-08-20T14:27:37Z</time>
      </trkpt>
      <trkpt lat="44.92348" lon="6.71143">
        <ele>1836.5</ele>
        <time>2020-08-20T14:27:42Z</time>
      </trkpt>
      <trkpt lat="44.92351" lon="6.71129">
        <ele>1835.2</ele>
        <time>2020-08-20T14:27:48Z</time>
      </trkpt>
      <trkpt lat="44.92356" lon="6.71117">
        <ele>1833.8</ele>
        <time>2020-08-20T14:27:55Z</time>
      </trkpt>
      <trkpt lat="44.92359" lon="6.71104">
        <ele>1832.1</ele>
        <time>2020-08-20T14:28:04Z</time>
      </trkpt>
      <trkpt lat="44.92365" lon="6.71093">
        <ele>1830.9</ele>
        <time>2020-08-20T14:28:12Z</time>
      </trkpt>
      <trkpt lat="44.92369" lon="6.71081">
        <ele>1829.9</ele>
        <time>2020-08-20T14:28:18Z</time>
      </trkpt>
      <trkpt lat="44.92375" lon="6.71072">
        <ele>1828.6</ele>
        <time>2020-08-20T14:28:26Z</time>
      </trkpt>
      <trkpt lat="44.92381" lon="6.71062">
        <ele>1827.8</ele>
        <time>2020-08-20T14:28:31Z</time>
      </trkpt>
      <trkpt lat="44.92382" lon="6.71049">
        <ele>1826.8</ele>
        <time>2020-08-20T14:28:37Z</time>
      </trkpt>
      <trkpt lat="44.92378" lon="6.71037">
        <ele>1823.8</ele>
        <time>2020-08-20T14:29:15Z</time>
      </trkpt>
      <trkpt lat="44.92379" lon="6.71023">
        <ele>1823.3</ele>
        <time>2020-08-20T14:29:23Z</time>
      </trkpt>
      <trkpt lat="44.92381" lon="6.7101">
        <ele>1822.2</ele>
        <time>2020-08-20T14:29:44Z</time>
      </trkpt>
      <trkpt lat="44.92388" lon="6.71">
        <ele>1821.6</ele>
        <time>2020-08-20T14:29:52Z</time>
      </trkpt>
      <trkpt lat="44.92391" lon="6.70987">
        <ele>1820.9</ele>
        <time>2020-08-20T14:29:59Z</time>
      </trkpt>
      <trkpt lat="44.92392" lon="6.70972">
        <ele>1820.4</ele>
        <time>2020-08-20T14:30:06Z</time>
      </trkpt>
      <trkpt lat="44.92394" lon="6.70958">
        <ele>1820</ele>
        <time>2020-08-20T14:30:12Z</time>
      </trkpt>
      <trkpt lat="44.92398" lon="6.70946">
        <ele>1819.7</ele>
        <time>2020-08-20T14:30:18Z</time>
      </trkpt>
      <trkpt lat="44.92402" lon="6.70933">
        <ele>1819.5</ele>
        <time>2020-08-20T14:30:24Z</time>
      </trkpt>
      <trkpt lat="44.92407" lon="6.70921">
        <ele>1819.1</ele>
        <time>2020-08-20T14:30:30Z</time>
      </trkpt>
      <trkpt lat="44.92415" lon="6.70912">
        <ele>1818.7</ele>
        <time>2020-08-20T14:30:37Z</time>
      </trkpt>
      <trkpt lat="44.9242" lon="6.709">
        <ele>1818.1</ele>
        <time>2020-08-20T14:30:44Z</time>
      </trkpt>
      <trkpt lat="44.92423" lon="6.70887">
        <ele>1817.1</ele>
        <time>2020-08-20T14:30:52Z</time>
      </trkpt>
      <trkpt lat="44.92425" lon="6.70874">
        <ele>1816</ele>
        <time>2020-08-20T14:31:00Z</time>
      </trkpt>
      <trkpt lat="44.92428" lon="6.70861">
        <ele>1815.4</ele>
        <time>2020-08-20T14:31:06Z</time>
      </trkpt>
      <trkpt lat="44.92425" lon="6.70848">
        <ele>1814.6</ele>
        <time>2020-08-20T14:31:14Z</time>
      </trkpt>
      <trkpt lat="44.92424" lon="6.70834">
        <ele>1813.9</ele>
        <time>2020-08-20T14:31:22Z</time>
      </trkpt>
      <trkpt lat="44.92422" lon="6.70821">
        <ele>1813.5</ele>
        <time>2020-08-20T14:31:26Z</time>
      </trkpt>
      <trkpt lat="44.92422" lon="6.70808">
        <ele>1812.4</ele>
        <time>2020-08-20T14:31:36Z</time>
      </trkpt>
      <trkpt lat="44.92419" lon="6.70794">
        <ele>1811.8</ele>
        <time>2020-08-20T14:31:41Z</time>
      </trkpt>
      <trkpt lat="44.92417" lon="6.7078">
        <ele>1811</ele>
        <time>2020-08-20T14:31:48Z</time>
      </trkpt>
      <trkpt lat="44.92417" lon="6.70766">
        <ele>1810.3</ele>
        <time>2020-08-20T14:31:55Z</time>
      </trkpt>
      <trkpt lat="44.92417" lon="6.70752">
        <ele>1809.6</ele>
        <time>2020-08-20T14:32:02Z</time>
      </trkpt>
      <trkpt lat="44.92419" lon="6.70739">
        <ele>1808.8</ele>
        <time>2020-08-20T14:32:13Z</time>
      </trkpt>
      <trkpt lat="44.92418" lon="6.70725">
        <ele>1807.8</ele>
        <time>2020-08-20T14:32:22Z</time>
      </trkpt>
      <trkpt lat="44.92412" lon="6.70715">
        <ele>1806.6</ele>
        <time>2020-08-20T14:32:31Z</time>
      </trkpt>
      <trkpt lat="44.92408" lon="6.70703">
        <ele>1805.2</ele>
        <time>2020-08-20T14:32:38Z</time>
      </trkpt>
      <trkpt lat="44.92404" lon="6.70692">
        <ele>1803.8</ele>
        <time>2020-08-20T14:32:45Z</time>
      </trkpt>
      <trkpt lat="44.924" lon="6.70679">
        <ele>1802.4</ele>
        <time>2020-08-20T14:32:52Z</time>
      </trkpt>
      <trkpt lat="44.92396" lon="6.70667">
        <ele>1801.2</ele>
        <time>2020-08-20T14:32:58Z</time>
      </trkpt>
      <trkpt lat="44.92391" lon="6.70656">
        <ele>1800</ele>
        <time>2020-08-20T14:33:04Z</time>
      </trkpt>
      <trkpt lat="44.92388" lon="6.70643">
        <ele>1798.2</ele>
        <time>2020-08-20T14:33:14Z</time>
      </trkpt>
      <trkpt lat="44.92385" lon="6.70629">
        <ele>1795.9</ele>
        <time>2020-08-20T14:33:25Z</time>
      </trkpt>
      <trkpt lat="44.92382" lon="6.70615">
        <ele>1793.9</ele>
        <time>2020-08-20T14:33:33Z</time>
      </trkpt>
      <trkpt lat="44.9238" lon="6.70602">
        <ele>1791.7</ele>
        <time>2020-08-20T14:33:41Z</time>
      </trkpt>
      <trkpt lat="44.92378" lon="6.70589">
        <ele>1789.9</ele>
        <time>2020-08-20T14:33:48Z</time>
      </trkpt>
      <trkpt lat="44.92375" lon="6.70577">
        <ele>1788.2</ele>
        <time>2020-08-20T14:33:55Z</time>
      </trkpt>
      <trkpt lat="44.92372" lon="6.70564">
        <ele>1786.2</ele>
        <time>2020-08-20T14:34:03Z</time>
      </trkpt>
      <trkpt lat="44.92369" lon="6.70552">
        <ele>1784.2</ele>
        <time>2020-08-20T14:34:10Z</time>
      </trkpt>
      <trkpt lat="44.92372" lon="6.70539">
        <ele>1781.5</ele>
        <time>2020-08-20T14:34:19Z</time>
      </trkpt>
      <trkpt lat="44.92375" lon="6.70526">
        <ele>1779.3</ele>
        <time>2020-08-20T14:34:27Z</time>
      </trkpt>
      <trkpt lat="44.92383" lon="6.70519">
        <ele>1777.5</ele>
        <time>2020-08-20T14:34:37Z</time>
      </trkpt>
      <trkpt lat="44.92393" lon="6.70521">
        <ele>1775.9</ele>
        <time>2020-08-20T14:34:45Z</time>
      </trkpt>
      <trkpt lat="44.92403" lon="6.70526">
        <ele>1774.3</ele>
        <time>2020-08-20T14:34:52Z</time>
      </trkpt>
      <trkpt lat="44.92412" lon="6.70527">
        <ele>1772.4</ele>
        <time>2020-08-20T14:35:00Z</time>
      </trkpt>
      <trkpt lat="44.92417" lon="6.70516">
        <ele>1769.2</ele>
        <time>2020-08-20T14:35:12Z</time>
      </trkpt>
      <trkpt lat="44.9241" lon="6.70506">
        <ele>1766.6</ele>
        <time>2020-08-20T14:35:31Z</time>
      </trkpt>
      <trkpt lat="44.92403" lon="6.70499">
        <ele>1765.8</ele>
        <time>2020-08-20T14:35:36Z</time>
      </trkpt>
      <trkpt lat="44.92398" lon="6.70486">
        <ele>1764.5</ele>
        <time>2020-08-20T14:35:43Z</time>
      </trkpt>
      <trkpt lat="44.92395" lon="6.70473">
        <ele>1762.9</ele>
        <time>2020-08-20T14:35:50Z</time>
      </trkpt>
      <trkpt lat="44.92392" lon="6.7046">
        <ele>1760.4</ele>
        <time>2020-08-20T14:35:59Z</time>
      </trkpt>
      <trkpt lat="44.92388" lon="6.70446">
        <ele>1758.1</ele>
        <time>2020-08-20T14:36:06Z</time>
      </trkpt>
      <trkpt lat="44.92388" lon="6.70433">
        <ele>1754.9</ele>
        <time>2020-08-20T14:36:16Z</time>
      </trkpt>
      <trkpt lat="44.92387" lon="6.70418">
        <ele>1751.8</ele>
        <time>2020-08-20T14:36:25Z</time>
      </trkpt>
      <trkpt lat="44.92387" lon="6.70403">
        <ele>1749.4</ele>
        <time>2020-08-20T14:36:31Z</time>
      </trkpt>
      <trkpt lat="44.92388" lon="6.70389">
        <ele>1746.2</ele>
        <time>2020-08-20T14:36:40Z</time>
      </trkpt>
      <trkpt lat="44.92386" lon="6.70376">
        <ele>1743.6</ele>
        <time>2020-08-20T14:36:47Z</time>
      </trkpt>
      <trkpt lat="44.92384" lon="6.70363">
        <ele>1741.3</ele>
        <time>2020-08-20T14:36:54Z</time>
      </trkpt>
      <trkpt lat="44.92383" lon="6.70349">
        <ele>1738.1</ele>
        <time>2020-08-20T14:37:04Z</time>
      </trkpt>
      <trkpt lat="44.92384" lon="6.70335">
        <ele>1735</ele>
        <time>2020-08-20T14:37:13Z</time>
      </trkpt>
      <trkpt lat="44.92382" lon="6.70323">
        <ele>1732.5</ele>
        <time>2020-08-20T14:37:20Z</time>
      </trkpt>
      <trkpt lat="44.92382" lon="6.70309">
        <ele>1730.3</ele>
        <time>2020-08-20T14:37:27Z</time>
      </trkpt>
      <trkpt lat="44.92384" lon="6.70297">
        <ele>1727.8</ele>
        <time>2020-08-20T14:37:36Z</time>
      </trkpt>
      <trkpt lat="44.9238" lon="6.70285">
        <ele>1725.8</ele>
        <time>2020-08-20T14:37:44Z</time>
      </trkpt>
      <trkpt lat="44.92375" lon="6.70272">
        <ele>1724</ele>
        <time>2020-08-20T14:37:52Z</time>
      </trkpt>
      <trkpt lat="44.9237" lon="6.70261">
        <ele>1722.3</ele>
        <time>2020-08-20T14:37:59Z</time>
      </trkpt>
      <trkpt lat="44.92366" lon="6.7025">
        <ele>1720.5</ele>
        <time>2020-08-20T14:38:06Z</time>
      </trkpt>
      <trkpt lat="44.92362" lon="6.70237">
        <ele>1718.3</ele>
        <time>2020-08-20T14:38:15Z</time>
      </trkpt>
      <trkpt lat="44.92364" lon="6.70224">
        <ele>1715.6</ele>
        <time>2020-08-20T14:38:27Z</time>
      </trkpt>
      <trkpt lat="44.92364" lon="6.7021">
        <ele>1712.8</ele>
        <time>2020-08-20T14:38:44Z</time>
      </trkpt>
      <trkpt lat="44.92369" lon="6.70199">
        <ele>1710</ele>
        <time>2020-08-20T14:38:56Z</time>
      </trkpt>
      <trkpt lat="44.92372" lon="6.70186">
        <ele>1707.4</ele>
        <time>2020-08-20T14:39:06Z</time>
      </trkpt>
      <trkpt lat="44.92378" lon="6.70175">
        <ele>1704.2</ele>
        <time>2020-08-20T14:39:17Z</time>
      </trkpt>
      <trkpt lat="44.92384" lon="6.70165">
        <ele>1701.9</ele>
        <time>2020-08-20T14:39:25Z</time>
      </trkpt>
      <trkpt lat="44.92384" lon="6.70152">
        <ele>1698.7</ele>
        <time>2020-08-20T14:39:38Z</time>
      </trkpt>
      <trkpt lat="44.92388" lon="6.7014">
        <ele>1696.6</ele>
        <time>2020-08-20T14:39:49Z</time>
      </trkpt>
      <trkpt lat="44.92391" lon="6.70127">
        <ele>1694.7</ele>
        <time>2020-08-20T14:39:58Z</time>
      </trkpt>
      <trkpt lat="44.92391" lon="6.70113">
        <ele>1692.8</ele>
        <time>2020-08-20T14:40:06Z</time>
      </trkpt>
      <trkpt lat="44.92387" lon="6.70101">
        <ele>1691</ele>
        <time>2020-08-20T14:40:14Z</time>
      </trkpt>
      <trkpt lat="44.92387" lon="6.70087">
        <ele>1688.9</ele>
        <time>2020-08-20T14:40:23Z</time>
      </trkpt>
      <trkpt lat="44.92384" lon="6.70074">
        <ele>1686.5</ele>
        <time>2020-08-20T14:40:32Z</time>
      </trkpt>
      <trkpt lat="44.92384" lon="6.70061">
        <ele>1684.1</ele>
        <time>2020-08-20T14:40:41Z</time>
      </trkpt>
      <trkpt lat="44.92384" lon="6.70047">
        <ele>1681.7</ele>
        <time>2020-08-20T14:40:50Z</time>
      </trkpt>
      <trkpt lat="44.92384" lon="6.70033">
        <ele>1679.4</ele>
        <time>2020-08-20T14:40:59Z</time>
      </trkpt>
      <trkpt lat="44.92383" lon="6.70019">
        <ele>1677.5</ele>
        <time>2020-08-20T14:41:08Z</time>
      </trkpt>
      <trkpt lat="44.92384" lon="6.70006">
        <ele>1675.7</ele>
        <time>2020-08-20T14:41:15Z</time>
      </trkpt>
      <trkpt lat="44.92383" lon="6.69993">
        <ele>1673.7</ele>
        <time>2020-08-20T14:41:24Z</time>
      </trkpt>
      <trkpt lat="44.92383" lon="6.6998">
        <ele>1672.3</ele>
        <time>2020-08-20T14:41:31Z</time>
      </trkpt>
      <trkpt lat="44.92382" lon="6.69966">
        <ele>1670.9</ele>
        <time>2020-08-20T14:41:38Z</time>
      </trkpt>
      <trkpt lat="44.92379" lon="6.69953">
        <ele>1669.7</ele>
        <time>2020-08-20T14:41:45Z</time>
      </trkpt>
      <trkpt lat="44.92376" lon="6.6994">
        <ele>1668.5</ele>
        <time>2020-08-20T14:41:52Z</time>
      </trkpt>
      <trkpt lat="44.92373" lon="6.69928">
        <ele>1666.5</ele>
        <time>2020-08-20T14:42:23Z</time>
      </trkpt>
      <trkpt lat="44.92375" lon="6.69913">
        <ele>1666.2</ele>
        <time>2020-08-20T14:42:41Z</time>
      </trkpt>
      <trkpt lat="44.92376" lon="6.69901">
        <ele>1666.2</ele>
        <time>2020-08-20T14:42:48Z</time>
      </trkpt>
      <trkpt lat="44.92378" lon="6.69888">
        <ele>1666.2</ele>
        <time>2020-08-20T14:42:55Z</time>
      </trkpt>
      <trkpt lat="44.9238" lon="6.69875">
        <ele>1666.2</ele>
        <time>2020-08-20T14:43:02Z</time>
      </trkpt>
      <trkpt lat="44.92383" lon="6.69863">
        <ele>1665.8</ele>
        <time>2020-08-20T14:43:09Z</time>
      </trkpt>
      <trkpt lat="44.92384" lon="6.69849">
        <ele>1665.1</ele>
        <time>2020-08-20T14:43:17Z</time>
      </trkpt>
      <trkpt lat="44.92385" lon="6.69836">
        <ele>1664.2</ele>
        <time>2020-08-20T14:43:24Z</time>
      </trkpt>
      <trkpt lat="44.92386" lon="6.69823">
        <ele>1663.3</ele>
        <time>2020-08-20T14:43:31Z</time>
      </trkpt>
      <trkpt lat="44.92387" lon="6.69809">
        <ele>1662.1</ele>
        <time>2020-08-20T14:43:38Z</time>
      </trkpt>
      <trkpt lat="44.92389" lon="6.69796">
        <ele>1661.2</ele>
        <time>2020-08-20T14:43:44Z</time>
      </trkpt>
      <trkpt lat="44.92387" lon="6.69783">
        <ele>1659.7</ele>
        <time>2020-08-20T14:44:07Z</time>
      </trkpt>
      <trkpt lat="44.92385" lon="6.6977">
        <ele>1659.3</ele>
        <time>2020-08-20T14:44:57Z</time>
      </trkpt>
      <trkpt lat="44.92385" lon="6.69756">
        <ele>1659.3</ele>
        <time>2020-08-20T14:45:07Z</time>
      </trkpt>
      <trkpt lat="44.9238" lon="6.69744">
        <ele>1659.2</ele>
        <time>2020-08-20T14:45:14Z</time>
      </trkpt>
      <trkpt lat="44.92375" lon="6.69734">
        <ele>1659</ele>
        <time>2020-08-20T14:45:20Z</time>
      </trkpt>
      <trkpt lat="44.92367" lon="6.69725">
        <ele>1658.7</ele>
        <time>2020-08-20T14:45:28Z</time>
      </trkpt>
      <trkpt lat="44.92359" lon="6.69719">
        <ele>1658.4</ele>
        <time>2020-08-20T14:45:35Z</time>
      </trkpt>
      <trkpt lat="44.92351" lon="6.69712">
        <ele>1657.1</ele>
        <time>2020-08-20T14:45:49Z</time>
      </trkpt>
      <trkpt lat="44.92343" lon="6.69704">
        <ele>1655.3</ele>
        <time>2020-08-20T14:46:00Z</time>
      </trkpt>
      <trkpt lat="44.92333" lon="6.69698">
        <ele>1653.8</ele>
        <time>2020-08-20T14:46:06Z</time>
      </trkpt>
      <trkpt lat="44.92325" lon="6.69692">
        <ele>1652.2</ele>
        <time>2020-08-20T14:46:13Z</time>
      </trkpt>
      <trkpt lat="44.92317" lon="6.69688">
        <ele>1650.4</ele>
        <time>2020-08-20T14:46:20Z</time>
      </trkpt>
      <trkpt lat="44.92307" lon="6.69688">
        <ele>1648.8</ele>
        <time>2020-08-20T14:46:27Z</time>
      </trkpt>
      <trkpt lat="44.92298" lon="6.69688">
        <ele>1646.8</ele>
        <time>2020-08-20T14:46:35Z</time>
      </trkpt>
      <trkpt lat="44.92289" lon="6.6968">
        <ele>1644.6</ele>
        <time>2020-08-20T14:46:43Z</time>
      </trkpt>
      <trkpt lat="44.92285" lon="6.69668">
        <ele>1642.5</ele>
        <time>2020-08-20T14:46:51Z</time>
      </trkpt>
      <trkpt lat="44.92282" lon="6.69656">
        <ele>1639.8</ele>
        <time>2020-08-20T14:47:00Z</time>
      </trkpt>
      <trkpt lat="44.92281" lon="6.69642">
        <ele>1637.5</ele>
        <time>2020-08-20T14:47:09Z</time>
      </trkpt>
      <trkpt lat="44.92283" lon="6.69629">
        <ele>1632.1</ele>
        <time>2020-08-20T14:48:15Z</time>
      </trkpt>
      <trkpt lat="44.92276" lon="6.69619">
        <ele>1630.4</ele>
        <time>2020-08-20T14:49:01Z</time>
      </trkpt>
      <trkpt lat="44.92269" lon="6.69608">
        <ele>1629.3</ele>
        <time>2020-08-20T14:49:16Z</time>
      </trkpt>
      <trkpt lat="44.92264" lon="6.69597">
        <ele>1627.5</ele>
        <time>2020-08-20T14:49:26Z</time>
      </trkpt>
      <trkpt lat="44.92259" lon="6.69586">
        <ele>1625.6</ele>
        <time>2020-08-20T14:49:34Z</time>
      </trkpt>
      <trkpt lat="44.92254" lon="6.69576">
        <ele>1623.4</ele>
        <time>2020-08-20T14:49:42Z</time>
      </trkpt>
      <trkpt lat="44.92249" lon="6.69564">
        <ele>1620.8</ele>
        <time>2020-08-20T14:49:51Z</time>
      </trkpt>
      <trkpt lat="44.92244" lon="6.69551">
        <ele>1618.2</ele>
        <time>2020-08-20T14:50:00Z</time>
      </trkpt>
      <trkpt lat="44.92239" lon="6.6954">
        <ele>1616.1</ele>
        <time>2020-08-20T14:50:08Z</time>
      </trkpt>
      <trkpt lat="44.92238" lon="6.69526">
        <ele>1614.6</ele>
        <time>2020-08-20T14:50:14Z</time>
      </trkpt>
      <trkpt lat="44.92232" lon="6.69517">
        <ele>1612.1</ele>
        <time>2020-08-20T14:50:27Z</time>
      </trkpt>
      <trkpt lat="44.92225" lon="6.69508">
        <ele>1610.6</ele>
        <time>2020-08-20T14:50:38Z</time>
      </trkpt>
      <trkpt lat="44.92218" lon="6.69496">
        <ele>1609.3</ele>
        <time>2020-08-20T14:51:02Z</time>
      </trkpt>
      <trkpt lat="44.92211" lon="6.69485">
        <ele>1609.1</ele>
        <time>2020-08-20T14:51:08Z</time>
      </trkpt>
      <trkpt lat="44.92204" lon="6.69477">
        <ele>1608.9</ele>
        <time>2020-08-20T14:51:15Z</time>
      </trkpt>
      <trkpt lat="44.92196" lon="6.6947">
        <ele>1608.7</ele>
        <time>2020-08-20T14:51:22Z</time>
      </trkpt>
      <trkpt lat="44.92187" lon="6.69468">
        <ele>1608.6</ele>
        <time>2020-08-20T14:51:29Z</time>
      </trkpt>
      <trkpt lat="44.92179" lon="6.69462">
        <ele>1608.5</ele>
        <time>2020-08-20T14:51:34Z</time>
      </trkpt>
      <trkpt lat="44.9217" lon="6.69456">
        <ele>1608.5</ele>
        <time>2020-08-20T14:51:40Z</time>
      </trkpt>
      <trkpt lat="44.92174" lon="6.69445">
        <ele>1608.2</ele>
        <time>2020-08-20T14:51:49Z</time>
      </trkpt>
      <trkpt lat="44.92175" lon="6.6943">
        <ele>1607.4</ele>
        <time>2020-08-20T14:51:57Z</time>
      </trkpt>
      <trkpt lat="44.92176" lon="6.69416">
        <ele>1606.4</ele>
        <time>2020-08-20T14:52:06Z</time>
      </trkpt>
      <trkpt lat="44.92176" lon="6.69403">
        <ele>1605.6</ele>
        <time>2020-08-20T14:52:14Z</time>
      </trkpt>
      <trkpt lat="44.92179" lon="6.69391">
        <ele>1604.3</ele>
        <time>2020-08-20T14:52:54Z</time>
      </trkpt>
      <trkpt lat="44.92181" lon="6.69377">
        <ele>1604.3</ele>
        <time>2020-08-20T14:53:25Z</time>
      </trkpt>
      <trkpt lat="44.92186" lon="6.69365">
        <ele>1604.3</ele>
        <time>2020-08-20T14:53:32Z</time>
      </trkpt>
      <trkpt lat="44.9219" lon="6.69353">
        <ele>1604.2</ele>
        <time>2020-08-20T14:53:39Z</time>
      </trkpt>
      <trkpt lat="44.92193" lon="6.6934">
        <ele>1604.2</ele>
        <time>2020-08-20T14:53:45Z</time>
      </trkpt>
      <trkpt lat="44.92197" lon="6.69328">
        <ele>1604.2</ele>
        <time>2020-08-20T14:53:53Z</time>
      </trkpt>
      <trkpt lat="44.92199" lon="6.69314">
        <ele>1604.2</ele>
        <time>2020-08-20T14:54:00Z</time>
      </trkpt>
      <trkpt lat="44.92201" lon="6.69302">
        <ele>1604.2</ele>
        <time>2020-08-20T14:54:06Z</time>
      </trkpt>
      <trkpt lat="44.92206" lon="6.6929">
        <ele>1603.9</ele>
        <time>2020-08-20T14:54:13Z</time>
      </trkpt>
      <trkpt lat="44.92213" lon="6.6928">
        <ele>1603.6</ele>
        <time>2020-08-20T14:54:20Z</time>
      </trkpt>
      <trkpt lat="44.92217" lon="6.69267">
        <ele>1603.1</ele>
        <time>2020-08-20T14:54:28Z</time>
      </trkpt>
      <trkpt lat="44.92213" lon="6.69255">
        <ele>1602.8</ele>
        <time>2020-08-20T14:54:34Z</time>
      </trkpt>
      <trkpt lat="44.92211" lon="6.69241">
        <ele>1602.1</ele>
        <time>2020-08-20T14:54:41Z</time>
      </trkpt>
      <trkpt lat="44.92213" lon="6.69227">
        <ele>1601.1</ele>
        <time>2020-08-20T14:54:47Z</time>
      </trkpt>
      <trkpt lat="44.92218" lon="6.69216">
        <ele>1600.1</ele>
        <time>2020-08-20T14:54:53Z</time>
      </trkpt>
      <trkpt lat="44.92223" lon="6.69205">
        <ele>1599.2</ele>
        <time>2020-08-20T14:55:00Z</time>
      </trkpt>
      <trkpt lat="44.92227" lon="6.69192">
        <ele>1598.8</ele>
        <time>2020-08-20T14:55:04Z</time>
      </trkpt>
      <trkpt lat="44.92235" lon="6.69183">
        <ele>1598.3</ele>
        <time>2020-08-20T14:55:10Z</time>
      </trkpt>
      <trkpt lat="44.92238" lon="6.6917">
        <ele>1597.9</ele>
        <time>2020-08-20T14:55:17Z</time>
      </trkpt>
      <trkpt lat="44.92235" lon="6.69157">
        <ele>1597.6</ele>
        <time>2020-08-20T14:55:23Z</time>
      </trkpt>
      <trkpt lat="44.92227" lon="6.69146">
        <ele>1597.2</ele>
        <time>2020-08-20T14:55:28Z</time>
      </trkpt>
      <trkpt lat="44.92219" lon="6.69137">
        <ele>1596.9</ele>
        <time>2020-08-20T14:55:32Z</time>
      </trkpt>
      <trkpt lat="44.92216" lon="6.69125">
        <ele>1596.5</ele>
        <time>2020-08-20T14:55:38Z</time>
      </trkpt>
      <trkpt lat="44.92216" lon="6.69112">
        <ele>1596.2</ele>
        <time>2020-08-20T14:55:44Z</time>
      </trkpt>
      <trkpt lat="44.92216" lon="6.69099">
        <ele>1595.9</ele>
        <time>2020-08-20T14:55:51Z</time>
      </trkpt>
      <trkpt lat="44.92207" lon="6.69089">
        <ele>1595.7</ele>
        <time>2020-08-20T14:55:57Z</time>
      </trkpt>
      <trkpt lat="44.922" lon="6.69079">
        <ele>1595.6</ele>
        <time>2020-08-20T14:56:02Z</time>
      </trkpt>
      <trkpt lat="44.92192" lon="6.69072">
        <ele>1595.1</ele>
        <time>2020-08-20T14:56:08Z</time>
      </trkpt>
      <trkpt lat="44.92184" lon="6.69064">
        <ele>1594.8</ele>
        <time>2020-08-20T14:56:13Z</time>
      </trkpt>
      <trkpt lat="44.92176" lon="6.69056">
        <ele>1594.5</ele>
        <time>2020-08-20T14:56:19Z</time>
      </trkpt>
      <trkpt lat="44.92168" lon="6.69049">
        <ele>1593.9</ele>
        <time>2020-08-20T14:56:25Z</time>
      </trkpt>
      <trkpt lat="44.92162" lon="6.69038">
        <ele>1593.4</ele>
        <time>2020-08-20T14:56:31Z</time>
      </trkpt>
      <trkpt lat="44.92156" lon="6.69027">
        <ele>1593</ele>
        <time>2020-08-20T14:56:37Z</time>
      </trkpt>
      <trkpt lat="44.92148" lon="6.69018">
        <ele>1592.6</ele>
        <time>2020-08-20T14:56:44Z</time>
      </trkpt>
      <trkpt lat="44.92138" lon="6.6902">
        <ele>1592.3</ele>
        <time>2020-08-20T14:56:52Z</time>
      </trkpt>
      <trkpt lat="44.92135" lon="6.69006">
        <ele>1591.9</ele>
        <time>2020-08-20T14:57:07Z</time>
      </trkpt>
      <trkpt lat="44.92134" lon="6.68992">
        <ele>1591.7</ele>
        <time>2020-08-20T14:57:14Z</time>
      </trkpt>
      <trkpt lat="44.92134" lon="6.68979">
        <ele>1591.6</ele>
        <time>2020-08-20T14:57:22Z</time>
      </trkpt>
      <trkpt lat="44.92128" lon="6.68969">
        <ele>1591.4</ele>
        <time>2020-08-20T14:57:29Z</time>
      </trkpt>
      <trkpt lat="44.92119" lon="6.68961">
        <ele>1591.3</ele>
        <time>2020-08-20T14:57:33Z</time>
      </trkpt>
      <trkpt lat="44.92112" lon="6.68952">
        <ele>1591.1</ele>
        <time>2020-08-20T14:57:38Z</time>
      </trkpt>
      <trkpt lat="44.92104" lon="6.68946">
        <ele>1591</ele>
        <time>2020-08-20T14:57:45Z</time>
      </trkpt>
      <trkpt lat="44.92095" lon="6.68944">
        <ele>1590.7</ele>
        <time>2020-08-20T14:57:53Z</time>
      </trkpt>
      <trkpt lat="44.92085" lon="6.68941">
        <ele>1590.1</ele>
        <time>2020-08-20T14:57:59Z</time>
      </trkpt>
      <trkpt lat="44.92078" lon="6.68932">
        <ele>1589.4</ele>
        <time>2020-08-20T14:58:05Z</time>
      </trkpt>
      <trkpt lat="44.92071" lon="6.68923">
        <ele>1588.3</ele>
        <time>2020-08-20T14:58:15Z</time>
      </trkpt>
      <trkpt lat="44.92063" lon="6.68913">
        <ele>1587.6</ele>
        <time>2020-08-20T14:58:24Z</time>
      </trkpt>
      <trkpt lat="44.92054" lon="6.68907">
        <ele>1587.2</ele>
        <time>2020-08-20T14:58:31Z</time>
      </trkpt>
      <trkpt lat="44.92044" lon="6.68903">
        <ele>1586.5</ele>
        <time>2020-08-20T14:58:39Z</time>
      </trkpt>
      <trkpt lat="44.92036" lon="6.68894">
        <ele>1586.2</ele>
        <time>2020-08-20T14:58:46Z</time>
      </trkpt>
      <trkpt lat="44.92029" lon="6.68885">
        <ele>1586</ele>
        <time>2020-08-20T14:58:52Z</time>
      </trkpt>
      <trkpt lat="44.92026" lon="6.68872">
        <ele>1585.5</ele>
        <time>2020-08-20T14:58:59Z</time>
      </trkpt>
      <trkpt lat="44.92025" lon="6.68858">
        <ele>1584.3</ele>
        <time>2020-08-20T14:59:11Z</time>
      </trkpt>
      <trkpt lat="44.92022" lon="6.68844">
        <ele>1583.4</ele>
        <time>2020-08-20T14:59:18Z</time>
      </trkpt>
      <trkpt lat="44.92018" lon="6.68832">
        <ele>1582.4</ele>
        <time>2020-08-20T14:59:25Z</time>
      </trkpt>
      <trkpt lat="44.92011" lon="6.68824">
        <ele>1580.9</ele>
        <time>2020-08-20T14:59:36Z</time>
      </trkpt>
      <trkpt lat="44.92005" lon="6.68813">
        <ele>1580</ele>
        <time>2020-08-20T14:59:42Z</time>
      </trkpt>
      <trkpt lat="44.91998" lon="6.68804">
        <ele>1578.9</ele>
        <time>2020-08-20T14:59:50Z</time>
      </trkpt>
      <trkpt lat="44.9199" lon="6.68797">
        <ele>1577.6</ele>
        <time>2020-08-20T14:59:57Z</time>
      </trkpt>
      <trkpt lat="44.9198" lon="6.6879">
        <ele>1576.3</ele>
        <time>2020-08-20T15:00:04Z</time>
      </trkpt>
      <trkpt lat="44.91972" lon="6.68784">
        <ele>1575</ele>
        <time>2020-08-20T15:00:10Z</time>
      </trkpt>
      <trkpt lat="44.91963" lon="6.68779">
        <ele>1573.8</ele>
        <time>2020-08-20T15:00:16Z</time>
      </trkpt>
      <trkpt lat="44.91954" lon="6.68773">
        <ele>1572.1</ele>
        <time>2020-08-20T15:00:24Z</time>
      </trkpt>
      <trkpt lat="44.91945" lon="6.6877">
        <ele>1570.7</ele>
        <time>2020-08-20T15:00:31Z</time>
      </trkpt>
      <trkpt lat="44.91935" lon="6.68767">
        <ele>1569.1</ele>
        <time>2020-08-20T15:00:38Z</time>
      </trkpt>
      <trkpt lat="44.91927" lon="6.68761">
        <ele>1567.7</ele>
        <time>2020-08-20T15:00:44Z</time>
      </trkpt>
      <trkpt lat="44.91921" lon="6.68752">
        <ele>1566.2</ele>
        <time>2020-08-20T15:00:51Z</time>
      </trkpt>
      <trkpt lat="44.91913" lon="6.68743">
        <ele>1564.4</ele>
        <time>2020-08-20T15:00:59Z</time>
      </trkpt>
      <trkpt lat="44.91906" lon="6.68735">
        <ele>1562.8</ele>
        <time>2020-08-20T15:01:06Z</time>
      </trkpt>
      <trkpt lat="44.91898" lon="6.68726">
        <ele>1561.4</ele>
        <time>2020-08-20T15:01:12Z</time>
      </trkpt>
      <trkpt lat="44.91892" lon="6.68716">
        <ele>1560.1</ele>
        <time>2020-08-20T15:01:18Z</time>
      </trkpt>
      <trkpt lat="44.91902" lon="6.68714">
        <ele>1557.2</ele>
        <time>2020-08-20T15:01:32Z</time>
      </trkpt>
      <trkpt lat="44.9191" lon="6.68721">
        <ele>1556</ele>
        <time>2020-08-20T15:01:38Z</time>
      </trkpt>
      <trkpt lat="44.91919" lon="6.68728">
        <ele>1554.9</ele>
        <time>2020-08-20T15:01:45Z</time>
      </trkpt>
      <trkpt lat="44.91928" lon="6.68731">
        <ele>1553.8</ele>
        <time>2020-08-20T15:01:52Z</time>
      </trkpt>
      <trkpt lat="44.91925" lon="6.68718">
        <ele>1552.1</ele>
        <time>2020-08-20T15:02:02Z</time>
      </trkpt>
      <trkpt lat="44.91917" lon="6.6871">
        <ele>1550.8</ele>
        <time>2020-08-20T15:02:09Z</time>
      </trkpt>
      <trkpt lat="44.9191" lon="6.687">
        <ele>1549.6</ele>
        <time>2020-08-20T15:02:16Z</time>
      </trkpt>
      <trkpt lat="44.91903" lon="6.68691">
        <ele>1548.7</ele>
        <time>2020-08-20T15:02:23Z</time>
      </trkpt>
      <trkpt lat="44.91897" lon="6.68681">
        <ele>1547.6</ele>
        <time>2020-08-20T15:02:31Z</time>
      </trkpt>
      <trkpt lat="44.91889" lon="6.68676">
        <ele>1545.8</ele>
        <time>2020-08-20T15:02:41Z</time>
      </trkpt>
      <trkpt lat="44.9188" lon="6.68672">
        <ele>1544.2</ele>
        <time>2020-08-20T15:02:49Z</time>
      </trkpt>
      <trkpt lat="44.9187" lon="6.68666">
        <ele>1542.7</ele>
        <time>2020-08-20T15:02:56Z</time>
      </trkpt>
      <trkpt lat="44.91861" lon="6.68661">
        <ele>1541.4</ele>
        <time>2020-08-20T15:03:03Z</time>
      </trkpt>
      <trkpt lat="44.91851" lon="6.68663">
        <ele>1539.7</ele>
        <time>2020-08-20T15:03:11Z</time>
      </trkpt>
      <trkpt lat="44.91841" lon="6.68661">
        <ele>1538.4</ele>
        <time>2020-08-20T15:03:17Z</time>
      </trkpt>
      <trkpt lat="44.91831" lon="6.68665">
        <ele>1536.7</ele>
        <time>2020-08-20T15:03:25Z</time>
      </trkpt>
      <trkpt lat="44.91822" lon="6.68668">
        <ele>1535.1</ele>
        <time>2020-08-20T15:03:32Z</time>
      </trkpt>
      <trkpt lat="44.91812" lon="6.68672">
        <ele>1533.2</ele>
        <time>2020-08-20T15:03:40Z</time>
      </trkpt>
      <trkpt lat="44.91804" lon="6.68679">
        <ele>1532.2</ele>
        <time>2020-08-20T15:03:45Z</time>
      </trkpt>
      <trkpt lat="44.91797" lon="6.68687">
        <ele>1531.3</ele>
        <time>2020-08-20T15:03:51Z</time>
      </trkpt>
      <trkpt lat="44.91788" lon="6.68695">
        <ele>1530.3</ele>
        <time>2020-08-20T15:03:59Z</time>
      </trkpt>
      <trkpt lat="44.91779" lon="6.687">
        <ele>1529.8</ele>
        <time>2020-08-20T15:04:04Z</time>
      </trkpt>
      <trkpt lat="44.91769" lon="6.68704">
        <ele>1529.2</ele>
        <time>2020-08-20T15:04:11Z</time>
      </trkpt>
      <trkpt lat="44.9176" lon="6.68703">
        <ele>1528.5</ele>
        <time>2020-08-20T15:04:18Z</time>
      </trkpt>
      <trkpt lat="44.91751" lon="6.68699">
        <ele>1527.9</ele>
        <time>2020-08-20T15:04:24Z</time>
      </trkpt>
      <trkpt lat="44.91743" lon="6.68691">
        <ele>1526.9</ele>
        <time>2020-08-20T15:04:32Z</time>
      </trkpt>
      <trkpt lat="44.91737" lon="6.68681">
        <ele>1526.2</ele>
        <time>2020-08-20T15:04:40Z</time>
      </trkpt>
      <trkpt lat="44.91727" lon="6.68678">
        <ele>1525.6</ele>
        <time>2020-08-20T15:04:52Z</time>
      </trkpt>
      <trkpt lat="44.9172" lon="6.68669">
        <ele>1525.4</ele>
        <time>2020-08-20T15:04:59Z</time>
      </trkpt>
      <trkpt lat="44.91722" lon="6.68655">
        <ele>1524.6</ele>
        <time>2020-08-20T15:05:09Z</time>
      </trkpt>
      <trkpt lat="44.91716" lon="6.68644">
        <ele>1523.7</ele>
        <time>2020-08-20T15:05:18Z</time>
      </trkpt>
      <trkpt lat="44.91713" lon="6.68631">
        <ele>1523</ele>
        <time>2020-08-20T15:05:26Z</time>
      </trkpt>
      <trkpt lat="44.91714" lon="6.68618">
        <ele>1522.1</ele>
        <time>2020-08-20T15:05:33Z</time>
      </trkpt>
      <trkpt lat="44.91713" lon="6.68604">
        <ele>1521.4</ele>
        <time>2020-08-20T15:05:39Z</time>
      </trkpt>
      <trkpt lat="44.91715" lon="6.6859">
        <ele>1520.4</ele>
        <time>2020-08-20T15:05:47Z</time>
      </trkpt>
      <trkpt lat="44.91716" lon="6.68577">
        <ele>1519.4</ele>
        <time>2020-08-20T15:05:55Z</time>
      </trkpt>
      <trkpt lat="44.91715" lon="6.68563">
        <ele>1518.1</ele>
        <time>2020-08-20T15:06:20Z</time>
      </trkpt>
      <trkpt lat="44.91711" lon="6.6855">
        <ele>1517.3</ele>
        <time>2020-08-20T15:06:29Z</time>
      </trkpt>
      <trkpt lat="44.91709" lon="6.68536">
        <ele>1516.3</ele>
        <time>2020-08-20T15:06:36Z</time>
      </trkpt>
      <trkpt lat="44.91708" lon="6.68522">
        <ele>1515.5</ele>
        <time>2020-08-20T15:06:43Z</time>
      </trkpt>
      <trkpt lat="44.91704" lon="6.68509">
        <ele>1514.7</ele>
        <time>2020-08-20T15:06:51Z</time>
      </trkpt>
      <trkpt lat="44.91703" lon="6.68496">
        <ele>1514.1</ele>
        <time>2020-08-20T15:06:58Z</time>
      </trkpt>
      <trkpt lat="44.91704" lon="6.68483">
        <ele>1512.9</ele>
        <time>2020-08-20T15:07:05Z</time>
      </trkpt>
      <trkpt lat="44.91709" lon="6.68473">
        <ele>1512</ele>
        <time>2020-08-20T15:07:12Z</time>
      </trkpt>
      <trkpt lat="44.91707" lon="6.6846">
        <ele>1511.3</ele>
        <time>2020-08-20T15:07:19Z</time>
      </trkpt>
      <trkpt lat="44.91701" lon="6.68448">
        <ele>1510.2</ele>
        <time>2020-08-20T15:07:28Z</time>
      </trkpt>
      <trkpt lat="44.91694" lon="6.68438">
        <ele>1508.9</ele>
        <time>2020-08-20T15:07:35Z</time>
      </trkpt>
      <trkpt lat="44.91689" lon="6.68427">
        <ele>1507.5</ele>
        <time>2020-08-20T15:07:42Z</time>
      </trkpt>
      <trkpt lat="44.91683" lon="6.68419">
        <ele>1506.1</ele>
        <time>2020-08-20T15:07:49Z</time>
      </trkpt>
      <trkpt lat="44.91674" lon="6.68411">
        <ele>1505.2</ele>
        <time>2020-08-20T15:07:55Z</time>
      </trkpt>
      <trkpt lat="44.91666" lon="6.68405">
        <ele>1504.4</ele>
        <time>2020-08-20T15:08:01Z</time>
      </trkpt>
      <trkpt lat="44.91657" lon="6.68402">
        <ele>1503</ele>
        <time>2020-08-20T15:08:09Z</time>
      </trkpt>
      <trkpt lat="44.91648" lon="6.68402">
        <ele>1501.2</ele>
        <time>2020-08-20T15:08:17Z</time>
      </trkpt>
      <trkpt lat="44.91638" lon="6.68401">
        <ele>1500.3</ele>
        <time>2020-08-20T15:08:23Z</time>
      </trkpt>
      <trkpt lat="44.91631" lon="6.68393">
        <ele>1499.6</ele>
        <time>2020-08-20T15:08:29Z</time>
      </trkpt>
      <trkpt lat="44.91624" lon="6.68384">
        <ele>1498.8</ele>
        <time>2020-08-20T15:08:35Z</time>
      </trkpt>
      <trkpt lat="44.9162" lon="6.68372">
        <ele>1497.7</ele>
        <time>2020-08-20T15:08:42Z</time>
      </trkpt>
      <trkpt lat="44.91617" lon="6.68359">
        <ele>1496.8</ele>
        <time>2020-08-20T15:08:49Z</time>
      </trkpt>
      <trkpt lat="44.91612" lon="6.68348">
        <ele>1496</ele>
        <time>2020-08-20T15:08:56Z</time>
      </trkpt>
      <trkpt lat="44.91604" lon="6.6834">
        <ele>1494.7</ele>
        <time>2020-08-20T15:09:03Z</time>
      </trkpt>
      <trkpt lat="44.91596" lon="6.68332">
        <ele>1493.5</ele>
        <time>2020-08-20T15:09:12Z</time>
      </trkpt>
      <trkpt lat="44.91588" lon="6.68326">
        <ele>1492.2</ele>
        <time>2020-08-20T15:09:20Z</time>
      </trkpt>
      <trkpt lat="44.91581" lon="6.68318">
        <ele>1491.2</ele>
        <time>2020-08-20T15:09:28Z</time>
      </trkpt>
      <trkpt lat="44.91573" lon="6.68311">
        <ele>1490.1</ele>
        <time>2020-08-20T15:09:36Z</time>
      </trkpt>
      <trkpt lat="44.91564" lon="6.68304">
        <ele>1489.2</ele>
        <time>2020-08-20T15:09:43Z</time>
      </trkpt>
      <trkpt lat="44.91556" lon="6.68295">
        <ele>1488</ele>
        <time>2020-08-20T15:09:50Z</time>
      </trkpt>
      <trkpt lat="44.91548" lon="6.68289">
        <ele>1487.1</ele>
        <time>2020-08-20T15:09:56Z</time>
      </trkpt>
      <trkpt lat="44.9154" lon="6.68282">
        <ele>1486.5</ele>
        <time>2020-08-20T15:10:03Z</time>
      </trkpt>
      <trkpt lat="44.91532" lon="6.68274">
        <ele>1485.7</ele>
        <time>2020-08-20T15:10:10Z</time>
      </trkpt>
      <trkpt lat="44.91525" lon="6.68267">
        <ele>1484.9</ele>
        <time>2020-08-20T15:10:17Z</time>
      </trkpt>
      <trkpt lat="44.91516" lon="6.68257">
        <ele>1483.6</ele>
        <time>2020-08-20T15:10:25Z</time>
      </trkpt>
      <trkpt lat="44.9151" lon="6.68246">
        <ele>1482.5</ele>
        <time>2020-08-20T15:10:33Z</time>
      </trkpt>
      <trkpt lat="44.91504" lon="6.68235">
        <ele>1481.2</ele>
        <time>2020-08-20T15:10:41Z</time>
      </trkpt>
      <trkpt lat="44.91497" lon="6.68225">
        <ele>1480.4</ele>
        <time>2020-08-20T15:10:48Z</time>
      </trkpt>
      <trkpt lat="44.9149" lon="6.68217">
        <ele>1479.8</ele>
        <time>2020-08-20T15:10:54Z</time>
      </trkpt>
      <trkpt lat="44.91483" lon="6.68208">
        <ele>1479.1</ele>
        <time>2020-08-20T15:11:01Z</time>
      </trkpt>
      <trkpt lat="44.91476" lon="6.68198">
        <ele>1478</ele>
        <time>2020-08-20T15:11:09Z</time>
      </trkpt>
      <trkpt lat="44.9147" lon="6.68188">
        <ele>1476.7</ele>
        <time>2020-08-20T15:11:17Z</time>
      </trkpt>
      <trkpt lat="44.91463" lon="6.68178">
        <ele>1475.7</ele>
        <time>2020-08-20T15:11:25Z</time>
      </trkpt>
      <trkpt lat="44.91457" lon="6.68167">
        <ele>1474.9</ele>
        <time>2020-08-20T15:11:29Z</time>
      </trkpt>
      <trkpt lat="44.9145" lon="6.68155">
        <ele>1473.9</ele>
        <time>2020-08-20T15:11:35Z</time>
      </trkpt>
      <trkpt lat="44.91448" lon="6.68142">
        <ele>1473.3</ele>
        <time>2020-08-20T15:11:41Z</time>
      </trkpt>
      <trkpt lat="44.91449" lon="6.68128">
        <ele>1472.4</ele>
        <time>2020-08-20T15:11:48Z</time>
      </trkpt>
      <trkpt lat="44.91456" lon="6.68118">
        <ele>1471.2</ele>
        <time>2020-08-20T15:11:56Z</time>
      </trkpt>
      <trkpt lat="44.91465" lon="6.68118">
        <ele>1470.1</ele>
        <time>2020-08-20T15:12:03Z</time>
      </trkpt>
      <trkpt lat="44.91475" lon="6.68121">
        <ele>1468.7</ele>
        <time>2020-08-20T15:12:11Z</time>
      </trkpt>
      <trkpt lat="44.91484" lon="6.68116">
        <ele>1467.2</ele>
        <time>2020-08-20T15:12:19Z</time>
      </trkpt>
      <trkpt lat="44.9149" lon="6.68105">
        <ele>1466</ele>
        <time>2020-08-20T15:12:26Z</time>
      </trkpt>
      <trkpt lat="44.91489" lon="6.68091">
        <ele>1464.5</ele>
        <time>2020-08-20T15:12:33Z</time>
      </trkpt>
      <trkpt lat="44.91488" lon="6.68077">
        <ele>1463.2</ele>
        <time>2020-08-20T15:12:40Z</time>
      </trkpt>
      <trkpt lat="44.91486" lon="6.68065">
        <ele>1462.1</ele>
        <time>2020-08-20T15:12:46Z</time>
      </trkpt>
      <trkpt lat="44.91485" lon="6.68051">
        <ele>1460.6</ele>
        <time>2020-08-20T15:12:53Z</time>
      </trkpt>
      <trkpt lat="44.91494" lon="6.68045">
        <ele>1458.7</ele>
        <time>2020-08-20T15:13:04Z</time>
      </trkpt>
      <trkpt lat="44.91502" lon="6.68047">
        <ele>1457.5</ele>
        <time>2020-08-20T15:13:10Z</time>
      </trkpt>
      <trkpt lat="44.9151" lon="6.68039">
        <ele>1456</ele>
        <time>2020-08-20T15:13:20Z</time>
      </trkpt>
      <trkpt lat="44.91515" lon="6.68027">
        <ele>1454.9</ele>
        <time>2020-08-20T15:13:27Z</time>
      </trkpt>
      <trkpt lat="44.91522" lon="6.68016">
        <ele>1453.4</ele>
        <time>2020-08-20T15:13:35Z</time>
      </trkpt>
      <trkpt lat="44.91528" lon="6.68003">
        <ele>1452.5</ele>
        <time>2020-08-20T15:13:40Z</time>
      </trkpt>
      <trkpt lat="44.91533" lon="6.67991">
        <ele>1451.3</ele>
        <time>2020-08-20T15:13:47Z</time>
      </trkpt>
      <trkpt lat="44.91538" lon="6.67979">
        <ele>1449.8</ele>
        <time>2020-08-20T15:13:55Z</time>
      </trkpt>
      <trkpt lat="44.91545" lon="6.67969">
        <ele>1448.4</ele>
        <time>2020-08-20T15:14:02Z</time>
      </trkpt>
      <trkpt lat="44.91553" lon="6.67963">
        <ele>1447.2</ele>
        <time>2020-08-20T15:14:08Z</time>
      </trkpt>
      <trkpt lat="44.91561" lon="6.67957">
        <ele>1445.6</ele>
        <time>2020-08-20T15:14:16Z</time>
      </trkpt>
      <trkpt lat="44.9157" lon="6.67953">
        <ele>1443.8</ele>
        <time>2020-08-20T15:14:25Z</time>
      </trkpt>
      <trkpt lat="44.91579" lon="6.67949">
        <ele>1442</ele>
        <time>2020-08-20T15:14:33Z</time>
      </trkpt>
      <trkpt lat="44.91588" lon="6.67943">
        <ele>1440.6</ele>
        <time>2020-08-20T15:14:40Z</time>
      </trkpt>
      <trkpt lat="44.91597" lon="6.67937">
        <ele>1439.5</ele>
        <time>2020-08-20T15:14:46Z</time>
      </trkpt>
      <trkpt lat="44.91606" lon="6.6793">
        <ele>1438.3</ele>
        <time>2020-08-20T15:14:52Z</time>
      </trkpt>
      <trkpt lat="44.91614" lon="6.67921">
        <ele>1437.1</ele>
        <time>2020-08-20T15:14:58Z</time>
      </trkpt>
      <trkpt lat="44.91622" lon="6.67912">
        <ele>1435.9</ele>
        <time>2020-08-20T15:15:04Z</time>
      </trkpt>
      <trkpt lat="44.9163" lon="6.67904">
        <ele>1434.7</ele>
        <time>2020-08-20T15:15:11Z</time>
      </trkpt>
      <trkpt lat="44.91638" lon="6.67895">
        <ele>1433.5</ele>
        <time>2020-08-20T15:15:18Z</time>
      </trkpt>
      <trkpt lat="44.91646" lon="6.67887">
        <ele>1432.5</ele>
        <time>2020-08-20T15:15:24Z</time>
      </trkpt>
      <trkpt lat="44.91653" lon="6.67877">
        <ele>1431.4</ele>
        <time>2020-08-20T15:15:31Z</time>
      </trkpt>
      <trkpt lat="44.91659" lon="6.67867">
        <ele>1430.5</ele>
        <time>2020-08-20T15:15:37Z</time>
      </trkpt>
      <trkpt lat="44.91665" lon="6.67855">
        <ele>1429.3</ele>
        <time>2020-08-20T15:15:44Z</time>
      </trkpt>
      <trkpt lat="44.9167" lon="6.67844">
        <ele>1428.3</ele>
        <time>2020-08-20T15:15:50Z</time>
      </trkpt>
      <trkpt lat="44.91674" lon="6.67833">
        <ele>1427.3</ele>
        <time>2020-08-20T15:15:56Z</time>
      </trkpt>
      <trkpt lat="44.9168" lon="6.67823">
        <ele>1426.2</ele>
        <time>2020-08-20T15:16:03Z</time>
      </trkpt>
      <trkpt lat="44.91686" lon="6.67811">
        <ele>1424.8</ele>
        <time>2020-08-20T15:16:10Z</time>
      </trkpt>
      <trkpt lat="44.91689" lon="6.67799">
        <ele>1423.9</ele>
        <time>2020-08-20T15:16:16Z</time>
      </trkpt>
      <trkpt lat="44.91691" lon="6.67786">
        <ele>1422.7</ele>
        <time>2020-08-20T15:16:22Z</time>
      </trkpt>
      <trkpt lat="44.91693" lon="6.67772">
        <ele>1421.6</ele>
        <time>2020-08-20T15:16:28Z</time>
      </trkpt>
      <trkpt lat="44.91697" lon="6.67759">
        <ele>1420.6</ele>
        <time>2020-08-20T15:16:35Z</time>
      </trkpt>
      <trkpt lat="44.91701" lon="6.67746">
        <ele>1419.8</ele>
        <time>2020-08-20T15:16:42Z</time>
      </trkpt>
      <trkpt lat="44.91704" lon="6.67732">
        <ele>1418.9</ele>
        <time>2020-08-20T15:16:49Z</time>
      </trkpt>
      <trkpt lat="44.91706" lon="6.67719">
        <ele>1417.8</ele>
        <time>2020-08-20T15:16:56Z</time>
      </trkpt>
      <trkpt lat="44.91709" lon="6.67706">
        <ele>1416.9</ele>
        <time>2020-08-20T15:17:02Z</time>
      </trkpt>
      <trkpt lat="44.9171" lon="6.67691">
        <ele>1415.8</ele>
        <time>2020-08-20T15:17:08Z</time>
      </trkpt>
      <trkpt lat="44.91708" lon="6.67678">
        <ele>1413.9</ele>
        <time>2020-08-20T15:17:18Z</time>
      </trkpt>
      <trkpt lat="44.91711" lon="6.67665">
        <ele>1413</ele>
        <time>2020-08-20T15:17:27Z</time>
      </trkpt>
      <trkpt lat="44.91714" lon="6.67651">
        <ele>1411.9</ele>
        <time>2020-08-20T15:17:40Z</time>
      </trkpt>
      <trkpt lat="44.91721" lon="6.67642">
        <ele>1411.3</ele>
        <time>2020-08-20T15:17:47Z</time>
      </trkpt>
      <trkpt lat="44.91725" lon="6.67629">
        <ele>1410.5</ele>
        <time>2020-08-20T15:17:55Z</time>
      </trkpt>
      <trkpt lat="44.91728" lon="6.67616">
        <ele>1409.4</ele>
        <time>2020-08-20T15:18:02Z</time>
      </trkpt>
      <trkpt lat="44.91729" lon="6.67603">
        <ele>1407.8</ele>
        <time>2020-08-20T15:18:08Z</time>
      </trkpt>
      <trkpt lat="44.9173" lon="6.67589">
        <ele>1406.4</ele>
        <time>2020-08-20T15:18:15Z</time>
      </trkpt>
      <trkpt lat="44.91728" lon="6.67575">
        <ele>1405.4</ele>
        <time>2020-08-20T15:18:22Z</time>
      </trkpt>
      <trkpt lat="44.91727" lon="6.6756">
        <ele>1404.4</ele>
        <time>2020-08-20T15:18:29Z</time>
      </trkpt>
      <trkpt lat="44.91726" lon="6.67545">
        <ele>1403</ele>
        <time>2020-08-20T15:18:36Z</time>
      </trkpt>
      <trkpt lat="44.91725" lon="6.67532">
        <ele>1402.1</ele>
        <time>2020-08-20T15:18:41Z</time>
      </trkpt>
      <trkpt lat="44.91732" lon="6.67523">
        <ele>1401</ele>
        <time>2020-08-20T15:18:49Z</time>
      </trkpt>
      <trkpt lat="44.91741" lon="6.67522">
        <ele>1400.8</ele>
        <time>2020-08-20T15:18:54Z</time>
      </trkpt>
      <trkpt lat="44.91734" lon="6.67514">
        <ele>1398.6</ele>
        <time>2020-08-20T15:20:37Z</time>
      </trkpt>
      <trkpt lat="44.91726" lon="6.67506">
        <ele>1398.5</ele>
        <time>2020-08-20T15:20:43Z</time>
      </trkpt>
      <trkpt lat="44.91722" lon="6.67495">
        <ele>1398.4</ele>
        <time>2020-08-20T15:20:49Z</time>
      </trkpt>
      <trkpt lat="44.91716" lon="6.67483">
        <ele>1398.4</ele>
        <time>2020-08-20T15:20:56Z</time>
      </trkpt>
      <trkpt lat="44.91711" lon="6.67471">
        <ele>1398.4</ele>
        <time>2020-08-20T15:21:03Z</time>
      </trkpt>
      <trkpt lat="44.91707" lon="6.67459">
        <ele>1398.2</ele>
        <time>2020-08-20T15:21:09Z</time>
      </trkpt>
      <trkpt lat="44.91704" lon="6.67445">
        <ele>1397.9</ele>
        <time>2020-08-20T15:21:16Z</time>
      </trkpt>
      <trkpt lat="44.917" lon="6.67432">
        <ele>1397.5</ele>
        <time>2020-08-20T15:21:23Z</time>
      </trkpt>
      <trkpt lat="44.91698" lon="6.67418">
        <ele>1397.2</ele>
        <time>2020-08-20T15:21:30Z</time>
      </trkpt>
      <trkpt lat="44.91691" lon="6.67409">
        <ele>1397</ele>
        <time>2020-08-20T15:21:36Z</time>
      </trkpt>
      <trkpt lat="44.91681" lon="6.67404">
        <ele>1396.9</ele>
        <time>2020-08-20T15:21:41Z</time>
      </trkpt>
      <trkpt lat="44.91673" lon="6.67399">
        <ele>1396.8</ele>
        <time>2020-08-20T15:21:47Z</time>
      </trkpt>
      <trkpt lat="44.91668" lon="6.67388">
        <ele>1396.8</ele>
        <time>2020-08-20T15:21:53Z</time>
      </trkpt>
      <trkpt lat="44.91661" lon="6.67378">
        <ele>1396.9</ele>
        <time>2020-08-20T15:22:00Z</time>
      </trkpt>
      <trkpt lat="44.91655" lon="6.67367">
        <ele>1397.3</ele>
        <time>2020-08-20T15:22:07Z</time>
      </trkpt>
      <trkpt lat="44.91648" lon="6.67356">
        <ele>1397.7</ele>
        <time>2020-08-20T15:22:15Z</time>
      </trkpt>
      <trkpt lat="44.9164" lon="6.67348">
        <ele>1398.3</ele>
        <time>2020-08-20T15:22:22Z</time>
      </trkpt>
      <trkpt lat="44.91632" lon="6.67341">
        <ele>1399</ele>
        <time>2020-08-20T15:22:28Z</time>
      </trkpt>
      <trkpt lat="44.91622" lon="6.67342">
        <ele>1399.8</ele>
        <time>2020-08-20T15:22:35Z</time>
      </trkpt>
      <trkpt lat="44.91612" lon="6.67342">
        <ele>1400.5</ele>
        <time>2020-08-20T15:22:44Z</time>
      </trkpt>
      <trkpt lat="44.91603" lon="6.67336">
        <ele>1400.8</ele>
        <time>2020-08-20T15:22:49Z</time>
      </trkpt>
      <trkpt lat="44.91594" lon="6.6733">
        <ele>1401.1</ele>
        <time>2020-08-20T15:22:55Z</time>
      </trkpt>
      <trkpt lat="44.91584" lon="6.67328">
        <ele>1401.6</ele>
        <time>2020-08-20T15:23:03Z</time>
      </trkpt>
      <trkpt lat="44.91574" lon="6.67329">
        <ele>1401.9</ele>
        <time>2020-08-20T15:23:09Z</time>
      </trkpt>
      <trkpt lat="44.91565" lon="6.67324">
        <ele>1402.2</ele>
        <time>2020-08-20T15:23:15Z</time>
      </trkpt>
      <trkpt lat="44.91572" lon="6.67316">
        <ele>1402.8</ele>
        <time>2020-08-20T15:23:35Z</time>
      </trkpt>
      <trkpt lat="44.91567" lon="6.67327">
        <ele>1403.7</ele>
        <time>2020-08-20T15:50:48Z</time>
      </trkpt>
      <trkpt lat="44.91557" lon="6.67332">
        <ele>1403.6</ele>
        <time>2020-08-20T15:50:53Z</time>
      </trkpt>
      <trkpt lat="44.91548" lon="6.67334">
        <ele>1403.5</ele>
        <time>2020-08-20T15:50:59Z</time>
      </trkpt>
      <trkpt lat="44.91538" lon="6.67333">
        <ele>1403.4</ele>
        <time>2020-08-20T15:51:06Z</time>
      </trkpt>
      <trkpt lat="44.91529" lon="6.6733">
        <ele>1403.3</ele>
        <time>2020-08-20T15:51:13Z</time>
      </trkpt>
      <trkpt lat="44.9152" lon="6.67332">
        <ele>1403.3</ele>
        <time>2020-08-20T15:51:20Z</time>
      </trkpt>
      <trkpt lat="44.9151" lon="6.67332">
        <ele>1403.3</ele>
        <time>2020-08-20T15:51:31Z</time>
      </trkpt>
      <trkpt lat="44.915" lon="6.6733">
        <ele>1403.3</ele>
        <time>2020-08-20T15:51:36Z</time>
      </trkpt>
      <trkpt lat="44.91491" lon="6.67324">
        <ele>1403.4</ele>
        <time>2020-08-20T15:51:43Z</time>
      </trkpt>
      <trkpt lat="44.91481" lon="6.67318">
        <ele>1403.4</ele>
        <time>2020-08-20T15:51:50Z</time>
      </trkpt>
      <trkpt lat="44.91472" lon="6.67311">
        <ele>1403.4</ele>
        <time>2020-08-20T15:51:57Z</time>
      </trkpt>
      <trkpt lat="44.91464" lon="6.67303">
        <ele>1403.4</ele>
        <time>2020-08-20T15:52:05Z</time>
      </trkpt>
      <trkpt lat="44.91456" lon="6.67297">
        <ele>1403.6</ele>
        <time>2020-08-20T15:52:12Z</time>
      </trkpt>
      <trkpt lat="44.91448" lon="6.6729">
        <ele>1403.9</ele>
        <time>2020-08-20T15:52:19Z</time>
      </trkpt>
      <trkpt lat="44.9144" lon="6.67284">
        <ele>1404.1</ele>
        <time>2020-08-20T15:52:27Z</time>
      </trkpt>
      <trkpt lat="44.91431" lon="6.67277">
        <ele>1404.3</ele>
        <time>2020-08-20T15:52:34Z</time>
      </trkpt>
      <trkpt lat="44.91425" lon="6.67269">
        <ele>1404.7</ele>
        <time>2020-08-20T15:52:42Z</time>
      </trkpt>
      <trkpt lat="44.91416" lon="6.67264">
        <ele>1405</ele>
        <time>2020-08-20T15:52:54Z</time>
      </trkpt>
      <trkpt lat="44.91407" lon="6.67256">
        <ele>1405.1</ele>
        <time>2020-08-20T15:53:01Z</time>
      </trkpt>
      <trkpt lat="44.91398" lon="6.67251">
        <ele>1405.2</ele>
        <time>2020-08-20T15:53:08Z</time>
      </trkpt>
      <trkpt lat="44.9139" lon="6.67245">
        <ele>1405.3</ele>
        <time>2020-08-20T15:53:16Z</time>
      </trkpt>
      <trkpt lat="44.91382" lon="6.67239">
        <ele>1405.3</ele>
        <time>2020-08-20T15:53:23Z</time>
      </trkpt>
      <trkpt lat="44.91373" lon="6.67233">
        <ele>1405.4</ele>
        <time>2020-08-20T15:53:32Z</time>
      </trkpt>
      <trkpt lat="44.91365" lon="6.67225">
        <ele>1405.4</ele>
        <time>2020-08-20T15:53:40Z</time>
      </trkpt>
      <trkpt lat="44.91357" lon="6.67218">
        <ele>1405.7</ele>
        <time>2020-08-20T15:53:48Z</time>
      </trkpt>
      <trkpt lat="44.91348" lon="6.67212">
        <ele>1406.1</ele>
        <time>2020-08-20T15:54:03Z</time>
      </trkpt>
      <trkpt lat="44.9134" lon="6.67205">
        <ele>1406.2</ele>
        <time>2020-08-20T15:54:11Z</time>
      </trkpt>
      <trkpt lat="44.91332" lon="6.67198">
        <ele>1406.3</ele>
        <time>2020-08-20T15:54:18Z</time>
      </trkpt>
      <trkpt lat="44.91324" lon="6.67192">
        <ele>1406.3</ele>
        <time>2020-08-20T15:54:25Z</time>
      </trkpt>
      <trkpt lat="44.91314" lon="6.67193">
        <ele>1406.4</ele>
        <time>2020-08-20T15:54:39Z</time>
      </trkpt>
      <trkpt lat="44.91305" lon="6.67195">
        <ele>1406.4</ele>
        <time>2020-08-20T15:54:47Z</time>
      </trkpt>
      <trkpt lat="44.91296" lon="6.672">
        <ele>1406.5</ele>
        <time>2020-08-20T15:54:54Z</time>
      </trkpt>
      <trkpt lat="44.91294" lon="6.67201">
        <ele>1406.2</ele>
        <time>2020-08-20T15:55:59Z</time>
      </trkpt>
    </trkseg>
  </trk>
</gpx>